<?xml version="1.0" encoding="UTF-8" standalone="no" ?>
<gpx xmlns="http://www.topografix.com/GPX/1/1" xmlns:xsi="http://www.w3.org/2001/XMLSchema-instance" xsi:schemaLocation="http://www.topografix.com/GPX/1/1 http://www.topografix.com/GPX/1/1/gpx.xsd" version="1.1" creator="VisuGPX - https://www.visugpx.com">
  <metadata>
    <name>Foret de St Germain - Autour du golf</name>
  </metadata>
  <trk>
    <name><![CDATA[Foret de St Germain - Autour du golf_1]]></name>
    <trkseg>
      <trkpt lat="48.92347" lon="2.05392">
        <ele>49.6</ele>
        <time>2022-04-05T08:05:44Z</time>
      </trkpt>
      <trkpt lat="48.92343" lon="2.05397">
        <ele>50.5</ele>
        <time>2022-04-05T08:05:52Z</time>
      </trkpt>
      <trkpt lat="48.92338" lon="2.05393">
        <ele>51.4</ele>
        <time>2022-04-05T08:05:57Z</time>
      </trkpt>
      <trkpt lat="48.92336" lon="2.05386">
        <ele>52.2</ele>
        <time>2022-04-05T08:06:03Z</time>
      </trkpt>
      <trkpt lat="48.92334" lon="2.0538">
        <ele>51.8</ele>
        <time>2022-04-05T08:06:08Z</time>
      </trkpt>
      <trkpt lat="48.92331" lon="2.05372">
        <ele>50.6</ele>
        <time>2022-04-05T08:06:12Z</time>
      </trkpt>
      <trkpt lat="48.92328" lon="2.05366">
        <ele>50.3</ele>
        <time>2022-04-05T08:06:17Z</time>
      </trkpt>
      <trkpt lat="48.92325" lon="2.0536">
        <ele>50.5</ele>
        <time>2022-04-05T08:06:21Z</time>
      </trkpt>
      <trkpt lat="48.92321" lon="2.05356">
        <ele>50.4</ele>
        <time>2022-04-05T08:06:24Z</time>
      </trkpt>
      <trkpt lat="48.92317" lon="2.05353">
        <ele>49.9</ele>
        <time>2022-04-05T08:06:28Z</time>
      </trkpt>
      <trkpt lat="48.92313" lon="2.05349">
        <ele>49.1</ele>
        <time>2022-04-05T08:06:31Z</time>
      </trkpt>
      <trkpt lat="48.9231" lon="2.05343">
        <ele>48.2</ele>
        <time>2022-04-05T08:06:34Z</time>
      </trkpt>
      <trkpt lat="48.92307" lon="2.05335">
        <ele>47.5</ele>
        <time>2022-04-05T08:06:38Z</time>
      </trkpt>
      <trkpt lat="48.92303" lon="2.05328">
        <ele>46.9</ele>
        <time>2022-04-05T08:06:42Z</time>
      </trkpt>
      <trkpt lat="48.92299" lon="2.05322">
        <ele>46.2</ele>
        <time>2022-04-05T08:06:46Z</time>
      </trkpt>
      <trkpt lat="48.92297" lon="2.05315">
        <ele>46.1</ele>
        <time>2022-04-05T08:06:50Z</time>
      </trkpt>
      <trkpt lat="48.92294" lon="2.05308">
        <ele>46.8</ele>
        <time>2022-04-05T08:06:54Z</time>
      </trkpt>
      <trkpt lat="48.92292" lon="2.053">
        <ele>47.9</ele>
        <time>2022-04-05T08:06:57Z</time>
      </trkpt>
      <trkpt lat="48.92289" lon="2.05293">
        <ele>48.8</ele>
        <time>2022-04-05T08:07:01Z</time>
      </trkpt>
      <trkpt lat="48.92287" lon="2.05285">
        <ele>49.1</ele>
        <time>2022-04-05T08:07:05Z</time>
      </trkpt>
      <trkpt lat="48.92285" lon="2.05278">
        <ele>48.6</ele>
        <time>2022-04-05T08:07:09Z</time>
      </trkpt>
      <trkpt lat="48.92283" lon="2.05272">
        <ele>47.4</ele>
        <time>2022-04-05T08:07:12Z</time>
      </trkpt>
      <trkpt lat="48.92279" lon="2.05266">
        <ele>46.2</ele>
        <time>2022-04-05T08:07:15Z</time>
      </trkpt>
      <trkpt lat="48.92276" lon="2.05259">
        <ele>45.7</ele>
        <time>2022-04-05T08:07:19Z</time>
      </trkpt>
      <trkpt lat="48.92273" lon="2.05253">
        <ele>45.5</ele>
        <time>2022-04-05T08:07:22Z</time>
      </trkpt>
      <trkpt lat="48.9227" lon="2.05248">
        <ele>45</ele>
        <time>2022-04-05T08:07:26Z</time>
      </trkpt>
      <trkpt lat="48.92264" lon="2.05239">
        <ele>44.9</ele>
        <time>2022-04-05T08:07:33Z</time>
      </trkpt>
      <trkpt lat="48.92261" lon="2.05234">
        <ele>46.2</ele>
        <time>2022-04-05T08:07:36Z</time>
      </trkpt>
      <trkpt lat="48.92259" lon="2.05228">
        <ele>47.2</ele>
        <time>2022-04-05T08:07:39Z</time>
      </trkpt>
      <trkpt lat="48.92255" lon="2.05221">
        <ele>48.4</ele>
        <time>2022-04-05T08:07:43Z</time>
      </trkpt>
      <trkpt lat="48.92252" lon="2.05216">
        <ele>48.4</ele>
        <time>2022-04-05T08:07:47Z</time>
      </trkpt>
      <trkpt lat="48.92249" lon="2.05209">
        <ele>48.2</ele>
        <time>2022-04-05T08:07:50Z</time>
      </trkpt>
      <trkpt lat="48.92246" lon="2.05202">
        <ele>47.4</ele>
        <time>2022-04-05T08:07:54Z</time>
      </trkpt>
      <trkpt lat="48.92243" lon="2.05195">
        <ele>46.2</ele>
        <time>2022-04-05T08:07:59Z</time>
      </trkpt>
      <trkpt lat="48.9224" lon="2.05188">
        <ele>44.9</ele>
        <time>2022-04-05T08:08:03Z</time>
      </trkpt>
      <trkpt lat="48.92237" lon="2.0518">
        <ele>45.1</ele>
        <time>2022-04-05T08:08:06Z</time>
      </trkpt>
      <trkpt lat="48.92234" lon="2.05173">
        <ele>45.5</ele>
        <time>2022-04-05T08:08:11Z</time>
      </trkpt>
      <trkpt lat="48.92231" lon="2.05164">
        <ele>46</ele>
        <time>2022-04-05T08:08:15Z</time>
      </trkpt>
      <trkpt lat="48.92229" lon="2.05158">
        <ele>46.5</ele>
        <time>2022-04-05T08:08:19Z</time>
      </trkpt>
      <trkpt lat="48.92226" lon="2.05152">
        <ele>47</ele>
        <time>2022-04-05T08:08:21Z</time>
      </trkpt>
      <trkpt lat="48.92222" lon="2.05146">
        <ele>47.9</ele>
        <time>2022-04-05T08:08:25Z</time>
      </trkpt>
      <trkpt lat="48.92219" lon="2.05139">
        <ele>48.8</ele>
        <time>2022-04-05T08:08:29Z</time>
      </trkpt>
      <trkpt lat="48.92216" lon="2.05133">
        <ele>49.8</ele>
        <time>2022-04-05T08:08:33Z</time>
      </trkpt>
      <trkpt lat="48.92213" lon="2.05125">
        <ele>51.1</ele>
        <time>2022-04-05T08:08:38Z</time>
      </trkpt>
      <trkpt lat="48.92211" lon="2.05117">
        <ele>53</ele>
        <time>2022-04-05T08:08:41Z</time>
      </trkpt>
      <trkpt lat="48.92209" lon="2.05111">
        <ele>52.7</ele>
        <time>2022-04-05T08:08:45Z</time>
      </trkpt>
      <trkpt lat="48.92207" lon="2.05104">
        <ele>52</ele>
        <time>2022-04-05T08:08:49Z</time>
      </trkpt>
      <trkpt lat="48.92205" lon="2.05098">
        <ele>51.4</ele>
        <time>2022-04-05T08:08:52Z</time>
      </trkpt>
      <trkpt lat="48.92201" lon="2.05091">
        <ele>51</ele>
        <time>2022-04-05T08:08:55Z</time>
      </trkpt>
      <trkpt lat="48.92196" lon="2.05085">
        <ele>50.8</ele>
        <time>2022-04-05T08:08:59Z</time>
      </trkpt>
      <trkpt lat="48.92193" lon="2.05079">
        <ele>50.9</ele>
        <time>2022-04-05T08:09:03Z</time>
      </trkpt>
      <trkpt lat="48.92189" lon="2.05077">
        <ele>50.6</ele>
        <time>2022-04-05T08:09:06Z</time>
      </trkpt>
      <trkpt lat="48.92184" lon="2.05077">
        <ele>50.3</ele>
        <time>2022-04-05T08:09:09Z</time>
      </trkpt>
      <trkpt lat="48.92179" lon="2.05077">
        <ele>51.4</ele>
        <time>2022-04-05T08:09:15Z</time>
      </trkpt>
      <trkpt lat="48.92173" lon="2.05074">
        <ele>53.8</ele>
        <time>2022-04-05T08:09:18Z</time>
      </trkpt>
      <trkpt lat="48.92169" lon="2.0507">
        <ele>55.4</ele>
        <time>2022-04-05T08:09:22Z</time>
      </trkpt>
      <trkpt lat="48.92164" lon="2.05067">
        <ele>57.1</ele>
        <time>2022-04-05T08:09:26Z</time>
      </trkpt>
      <trkpt lat="48.92159" lon="2.05065">
        <ele>58.6</ele>
        <time>2022-04-05T08:09:31Z</time>
      </trkpt>
      <trkpt lat="48.92155" lon="2.05061">
        <ele>59.1</ele>
        <time>2022-04-05T08:09:34Z</time>
      </trkpt>
      <trkpt lat="48.9215" lon="2.05057">
        <ele>60</ele>
        <time>2022-04-05T08:09:37Z</time>
      </trkpt>
      <trkpt lat="48.92145" lon="2.05053">
        <ele>60.8</ele>
        <time>2022-04-05T08:09:41Z</time>
      </trkpt>
      <trkpt lat="48.92141" lon="2.05051">
        <ele>61.8</ele>
        <time>2022-04-05T08:09:45Z</time>
      </trkpt>
      <trkpt lat="48.92137" lon="2.05049">
        <ele>62.3</ele>
        <time>2022-04-05T08:09:49Z</time>
      </trkpt>
      <trkpt lat="48.92132" lon="2.05043">
        <ele>63.5</ele>
        <time>2022-04-05T08:09:53Z</time>
      </trkpt>
      <trkpt lat="48.92127" lon="2.05041">
        <ele>63.7</ele>
        <time>2022-04-05T08:09:56Z</time>
      </trkpt>
      <trkpt lat="48.92123" lon="2.05037">
        <ele>63.2</ele>
        <time>2022-04-05T08:10:00Z</time>
      </trkpt>
      <trkpt lat="48.92119" lon="2.05033">
        <ele>62.4</ele>
        <time>2022-04-05T08:10:04Z</time>
      </trkpt>
      <trkpt lat="48.92114" lon="2.05029">
        <ele>61.5</ele>
        <time>2022-04-05T08:10:07Z</time>
      </trkpt>
      <trkpt lat="48.9211" lon="2.05027">
        <ele>60.7</ele>
        <time>2022-04-05T08:10:11Z</time>
      </trkpt>
      <trkpt lat="48.92106" lon="2.05023">
        <ele>60.1</ele>
        <time>2022-04-05T08:10:13Z</time>
      </trkpt>
      <trkpt lat="48.92103" lon="2.05018">
        <ele>59.7</ele>
        <time>2022-04-05T08:10:16Z</time>
      </trkpt>
      <trkpt lat="48.92099" lon="2.05013">
        <ele>58.5</ele>
        <time>2022-04-05T08:10:20Z</time>
      </trkpt>
      <trkpt lat="48.92095" lon="2.05005">
        <ele>56.4</ele>
        <time>2022-04-05T08:10:25Z</time>
      </trkpt>
      <trkpt lat="48.92091" lon="2.04999">
        <ele>54.9</ele>
        <time>2022-04-05T08:10:28Z</time>
      </trkpt>
      <trkpt lat="48.92088" lon="2.04994">
        <ele>54.7</ele>
        <time>2022-04-05T08:10:32Z</time>
      </trkpt>
      <trkpt lat="48.92083" lon="2.0499">
        <ele>55.5</ele>
        <time>2022-04-05T08:10:36Z</time>
      </trkpt>
      <trkpt lat="48.92078" lon="2.04988">
        <ele>56.8</ele>
        <time>2022-04-05T08:10:41Z</time>
      </trkpt>
      <trkpt lat="48.92073" lon="2.04987">
        <ele>57.4</ele>
        <time>2022-04-05T08:10:44Z</time>
      </trkpt>
      <trkpt lat="48.92068" lon="2.04986">
        <ele>57.3</ele>
        <time>2022-04-05T08:10:47Z</time>
      </trkpt>
      <trkpt lat="48.92062" lon="2.04984">
        <ele>58.1</ele>
        <time>2022-04-05T08:10:51Z</time>
      </trkpt>
      <trkpt lat="48.92056" lon="2.04982">
        <ele>59.5</ele>
        <time>2022-04-05T08:10:56Z</time>
      </trkpt>
      <trkpt lat="48.92051" lon="2.0498">
        <ele>59.7</ele>
        <time>2022-04-05T08:10:59Z</time>
      </trkpt>
      <trkpt lat="48.92046" lon="2.04977">
        <ele>59.1</ele>
        <time>2022-04-05T08:11:03Z</time>
      </trkpt>
      <trkpt lat="48.92041" lon="2.04974">
        <ele>59.1</ele>
        <time>2022-04-05T08:11:08Z</time>
      </trkpt>
      <trkpt lat="48.92035" lon="2.04972">
        <ele>59.9</ele>
        <time>2022-04-05T08:11:12Z</time>
      </trkpt>
      <trkpt lat="48.9203" lon="2.0497">
        <ele>60.6</ele>
        <time>2022-04-05T08:11:15Z</time>
      </trkpt>
      <trkpt lat="48.92025" lon="2.04969">
        <ele>60</ele>
        <time>2022-04-05T08:11:19Z</time>
      </trkpt>
      <trkpt lat="48.9202" lon="2.04966">
        <ele>58.8</ele>
        <time>2022-04-05T08:11:23Z</time>
      </trkpt>
      <trkpt lat="48.92016" lon="2.04963">
        <ele>58.6</ele>
        <time>2022-04-05T08:11:27Z</time>
      </trkpt>
      <trkpt lat="48.92011" lon="2.04959">
        <ele>59</ele>
        <time>2022-04-05T08:11:30Z</time>
      </trkpt>
      <trkpt lat="48.92005" lon="2.04957">
        <ele>58.5</ele>
        <time>2022-04-05T08:11:34Z</time>
      </trkpt>
      <trkpt lat="48.92001" lon="2.04955">
        <ele>58.3</ele>
        <time>2022-04-05T08:11:37Z</time>
      </trkpt>
      <trkpt lat="48.91996" lon="2.04953">
        <ele>58.3</ele>
        <time>2022-04-05T08:11:42Z</time>
      </trkpt>
      <trkpt lat="48.91991" lon="2.0495">
        <ele>57.5</ele>
        <time>2022-04-05T08:11:45Z</time>
      </trkpt>
      <trkpt lat="48.91985" lon="2.04949">
        <ele>55.5</ele>
        <time>2022-04-05T08:11:49Z</time>
      </trkpt>
      <trkpt lat="48.9198" lon="2.04947">
        <ele>52.7</ele>
        <time>2022-04-05T08:11:54Z</time>
      </trkpt>
      <trkpt lat="48.91975" lon="2.04946">
        <ele>50.9</ele>
        <time>2022-04-05T08:11:59Z</time>
      </trkpt>
      <trkpt lat="48.9197" lon="2.04945">
        <ele>49.8</ele>
        <time>2022-04-05T08:12:02Z</time>
      </trkpt>
      <trkpt lat="48.91964" lon="2.04943">
        <ele>49.7</ele>
        <time>2022-04-05T08:12:06Z</time>
      </trkpt>
      <trkpt lat="48.91959" lon="2.04942">
        <ele>50</ele>
        <time>2022-04-05T08:12:10Z</time>
      </trkpt>
      <trkpt lat="48.91954" lon="2.04942">
        <ele>50.7</ele>
        <time>2022-04-05T08:12:14Z</time>
      </trkpt>
      <trkpt lat="48.91949" lon="2.04941">
        <ele>51.4</ele>
        <time>2022-04-05T08:12:17Z</time>
      </trkpt>
      <trkpt lat="48.91945" lon="2.04935">
        <ele>53.4</ele>
        <time>2022-04-05T08:12:21Z</time>
      </trkpt>
      <trkpt lat="48.9194" lon="2.04929">
        <ele>55.1</ele>
        <time>2022-04-05T08:12:26Z</time>
      </trkpt>
      <trkpt lat="48.91936" lon="2.04922">
        <ele>57.1</ele>
        <time>2022-04-05T08:12:30Z</time>
      </trkpt>
      <trkpt lat="48.91933" lon="2.04916">
        <ele>58</ele>
        <time>2022-04-05T08:12:33Z</time>
      </trkpt>
      <trkpt lat="48.91929" lon="2.04911">
        <ele>57.5</ele>
        <time>2022-04-05T08:12:37Z</time>
      </trkpt>
      <trkpt lat="48.91925" lon="2.04905">
        <ele>56.6</ele>
        <time>2022-04-05T08:12:41Z</time>
      </trkpt>
      <trkpt lat="48.91923" lon="2.04897">
        <ele>55.4</ele>
        <time>2022-04-05T08:12:45Z</time>
      </trkpt>
      <trkpt lat="48.91924" lon="2.04888">
        <ele>55.4</ele>
        <time>2022-04-05T08:12:50Z</time>
      </trkpt>
      <trkpt lat="48.91927" lon="2.04883">
        <ele>55.6</ele>
        <time>2022-04-05T08:12:53Z</time>
      </trkpt>
      <trkpt lat="48.91932" lon="2.04879">
        <ele>55.2</ele>
        <time>2022-04-05T08:12:57Z</time>
      </trkpt>
      <trkpt lat="48.91936" lon="2.04876">
        <ele>54.4</ele>
        <time>2022-04-05T08:13:01Z</time>
      </trkpt>
      <trkpt lat="48.91941" lon="2.04872">
        <ele>53.1</ele>
        <time>2022-04-05T08:13:05Z</time>
      </trkpt>
      <trkpt lat="48.91946" lon="2.04869">
        <ele>52.4</ele>
        <time>2022-04-05T08:13:09Z</time>
      </trkpt>
      <trkpt lat="48.9195" lon="2.04864">
        <ele>52.6</ele>
        <time>2022-04-05T08:13:12Z</time>
      </trkpt>
      <trkpt lat="48.91954" lon="2.04857">
        <ele>53</ele>
        <time>2022-04-05T08:13:16Z</time>
      </trkpt>
      <trkpt lat="48.91957" lon="2.0485">
        <ele>53</ele>
        <time>2022-04-05T08:13:20Z</time>
      </trkpt>
      <trkpt lat="48.91961" lon="2.04846">
        <ele>52.8</ele>
        <time>2022-04-05T08:13:24Z</time>
      </trkpt>
      <trkpt lat="48.91966" lon="2.04841">
        <ele>52.9</ele>
        <time>2022-04-05T08:13:28Z</time>
      </trkpt>
      <trkpt lat="48.91971" lon="2.04836">
        <ele>53.7</ele>
        <time>2022-04-05T08:13:31Z</time>
      </trkpt>
      <trkpt lat="48.91975" lon="2.0483">
        <ele>55</ele>
        <time>2022-04-05T08:13:35Z</time>
      </trkpt>
      <trkpt lat="48.91978" lon="2.04823">
        <ele>56.4</ele>
        <time>2022-04-05T08:13:40Z</time>
      </trkpt>
      <trkpt lat="48.91982" lon="2.04818">
        <ele>57.6</ele>
        <time>2022-04-05T08:13:44Z</time>
      </trkpt>
      <trkpt lat="48.91986" lon="2.04813">
        <ele>58</ele>
        <time>2022-04-05T08:13:48Z</time>
      </trkpt>
      <trkpt lat="48.91991" lon="2.04809">
        <ele>57.7</ele>
        <time>2022-04-05T08:13:52Z</time>
      </trkpt>
      <trkpt lat="48.91995" lon="2.04805">
        <ele>57.3</ele>
        <time>2022-04-05T08:13:55Z</time>
      </trkpt>
      <trkpt lat="48.91999" lon="2.04802">
        <ele>56.8</ele>
        <time>2022-04-05T08:13:59Z</time>
      </trkpt>
      <trkpt lat="48.92003" lon="2.04797">
        <ele>56.8</ele>
        <time>2022-04-05T08:14:03Z</time>
      </trkpt>
      <trkpt lat="48.92007" lon="2.04792">
        <ele>57.8</ele>
        <time>2022-04-05T08:14:07Z</time>
      </trkpt>
      <trkpt lat="48.92012" lon="2.04786">
        <ele>59.3</ele>
        <time>2022-04-05T08:14:13Z</time>
      </trkpt>
      <trkpt lat="48.92016" lon="2.0478">
        <ele>60.4</ele>
        <time>2022-04-05T08:14:17Z</time>
      </trkpt>
      <trkpt lat="48.92019" lon="2.04775">
        <ele>62.2</ele>
        <time>2022-04-05T08:14:20Z</time>
      </trkpt>
      <trkpt lat="48.92024" lon="2.04771">
        <ele>62.8</ele>
        <time>2022-04-05T08:14:24Z</time>
      </trkpt>
      <trkpt lat="48.92028" lon="2.04766">
        <ele>62.4</ele>
        <time>2022-04-05T08:14:28Z</time>
      </trkpt>
      <trkpt lat="48.92031" lon="2.0476">
        <ele>62.1</ele>
        <time>2022-04-05T08:14:32Z</time>
      </trkpt>
      <trkpt lat="48.92035" lon="2.04755">
        <ele>61.9</ele>
        <time>2022-04-05T08:14:36Z</time>
      </trkpt>
      <trkpt lat="48.92039" lon="2.04749">
        <ele>61.7</ele>
        <time>2022-04-05T08:14:40Z</time>
      </trkpt>
      <trkpt lat="48.92044" lon="2.04743">
        <ele>61.3</ele>
        <time>2022-04-05T08:14:43Z</time>
      </trkpt>
      <trkpt lat="48.92047" lon="2.04737">
        <ele>61.1</ele>
        <time>2022-04-05T08:14:47Z</time>
      </trkpt>
      <trkpt lat="48.92052" lon="2.04732">
        <ele>60.7</ele>
        <time>2022-04-05T08:14:51Z</time>
      </trkpt>
      <trkpt lat="48.92055" lon="2.04725">
        <ele>59.8</ele>
        <time>2022-04-05T08:14:55Z</time>
      </trkpt>
      <trkpt lat="48.92058" lon="2.04719">
        <ele>59</ele>
        <time>2022-04-05T08:14:59Z</time>
      </trkpt>
      <trkpt lat="48.92061" lon="2.04713">
        <ele>59.2</ele>
        <time>2022-04-05T08:15:03Z</time>
      </trkpt>
      <trkpt lat="48.92065" lon="2.04707">
        <ele>60.9</ele>
        <time>2022-04-05T08:15:08Z</time>
      </trkpt>
      <trkpt lat="48.92068" lon="2.047">
        <ele>62.4</ele>
        <time>2022-04-05T08:15:12Z</time>
      </trkpt>
      <trkpt lat="48.92072" lon="2.04694">
        <ele>62.7</ele>
        <time>2022-04-05T08:15:15Z</time>
      </trkpt>
      <trkpt lat="48.92075" lon="2.04688">
        <ele>62.7</ele>
        <time>2022-04-05T08:15:19Z</time>
      </trkpt>
      <trkpt lat="48.92078" lon="2.04682">
        <ele>62.8</ele>
        <time>2022-04-05T08:15:23Z</time>
      </trkpt>
      <trkpt lat="48.92082" lon="2.04677">
        <ele>63</ele>
        <time>2022-04-05T08:15:27Z</time>
      </trkpt>
      <trkpt lat="48.92086" lon="2.04671">
        <ele>63.3</ele>
        <time>2022-04-05T08:15:32Z</time>
      </trkpt>
      <trkpt lat="48.9209" lon="2.04664">
        <ele>63.1</ele>
        <time>2022-04-05T08:15:36Z</time>
      </trkpt>
      <trkpt lat="48.92094" lon="2.04658">
        <ele>62.8</ele>
        <time>2022-04-05T08:15:39Z</time>
      </trkpt>
      <trkpt lat="48.92098" lon="2.04653">
        <ele>63.5</ele>
        <time>2022-04-05T08:15:43Z</time>
      </trkpt>
      <trkpt lat="48.92102" lon="2.04647">
        <ele>64.2</ele>
        <time>2022-04-05T08:15:47Z</time>
      </trkpt>
      <trkpt lat="48.92105" lon="2.04642">
        <ele>64.7</ele>
        <time>2022-04-05T08:15:50Z</time>
      </trkpt>
      <trkpt lat="48.92109" lon="2.04635">
        <ele>64.8</ele>
        <time>2022-04-05T08:15:54Z</time>
      </trkpt>
      <trkpt lat="48.92113" lon="2.04629">
        <ele>64.9</ele>
        <time>2022-04-05T08:15:59Z</time>
      </trkpt>
      <trkpt lat="48.92117" lon="2.04624">
        <ele>65</ele>
        <time>2022-04-05T08:16:02Z</time>
      </trkpt>
      <trkpt lat="48.92121" lon="2.04619">
        <ele>65.2</ele>
        <time>2022-04-05T08:16:06Z</time>
      </trkpt>
      <trkpt lat="48.92124" lon="2.04613">
        <ele>66.1</ele>
        <time>2022-04-05T08:16:10Z</time>
      </trkpt>
      <trkpt lat="48.92125" lon="2.04604">
        <ele>65.9</ele>
        <time>2022-04-05T08:16:14Z</time>
      </trkpt>
      <trkpt lat="48.92115" lon="2.04597">
        <ele>64.7</ele>
        <time>2022-04-05T08:16:20Z</time>
      </trkpt>
      <trkpt lat="48.92111" lon="2.04597">
        <ele>65</ele>
        <time>2022-04-05T08:16:24Z</time>
      </trkpt>
      <trkpt lat="48.92107" lon="2.04592">
        <ele>65.6</ele>
        <time>2022-04-05T08:16:28Z</time>
      </trkpt>
      <trkpt lat="48.92104" lon="2.04586">
        <ele>65.4</ele>
        <time>2022-04-05T08:16:33Z</time>
      </trkpt>
      <trkpt lat="48.92102" lon="2.04578">
        <ele>66.1</ele>
        <time>2022-04-05T08:16:37Z</time>
      </trkpt>
      <trkpt lat="48.92099" lon="2.04572">
        <ele>66.9</ele>
        <time>2022-04-05T08:16:41Z</time>
      </trkpt>
      <trkpt lat="48.92097" lon="2.04564">
        <ele>67.2</ele>
        <time>2022-04-05T08:16:45Z</time>
      </trkpt>
      <trkpt lat="48.92094" lon="2.04557">
        <ele>67.7</ele>
        <time>2022-04-05T08:16:49Z</time>
      </trkpt>
      <trkpt lat="48.92091" lon="2.04551">
        <ele>68.3</ele>
        <time>2022-04-05T08:16:53Z</time>
      </trkpt>
      <trkpt lat="48.92088" lon="2.04545">
        <ele>68.3</ele>
        <time>2022-04-05T08:16:57Z</time>
      </trkpt>
      <trkpt lat="48.92086" lon="2.04538">
        <ele>67.5</ele>
        <time>2022-04-05T08:17:01Z</time>
      </trkpt>
      <trkpt lat="48.92083" lon="2.04531">
        <ele>67</ele>
        <time>2022-04-05T08:17:05Z</time>
      </trkpt>
      <trkpt lat="48.92078" lon="2.04525">
        <ele>66.9</ele>
        <time>2022-04-05T08:17:10Z</time>
      </trkpt>
      <trkpt lat="48.92075" lon="2.04519">
        <ele>67.2</ele>
        <time>2022-04-05T08:17:14Z</time>
      </trkpt>
      <trkpt lat="48.92072" lon="2.04514">
        <ele>67.6</ele>
        <time>2022-04-05T08:17:17Z</time>
      </trkpt>
      <trkpt lat="48.92068" lon="2.04508">
        <ele>67.8</ele>
        <time>2022-04-05T08:17:21Z</time>
      </trkpt>
      <trkpt lat="48.92065" lon="2.04502">
        <ele>67.2</ele>
        <time>2022-04-05T08:17:25Z</time>
      </trkpt>
      <trkpt lat="48.92061" lon="2.04496">
        <ele>67.7</ele>
        <time>2022-04-05T08:17:29Z</time>
      </trkpt>
      <trkpt lat="48.92058" lon="2.04489">
        <ele>68.6</ele>
        <time>2022-04-05T08:17:32Z</time>
      </trkpt>
      <trkpt lat="48.92056" lon="2.04481">
        <ele>69.1</ele>
        <time>2022-04-05T08:17:36Z</time>
      </trkpt>
      <trkpt lat="48.92054" lon="2.04474">
        <ele>67.9</ele>
        <time>2022-04-05T08:17:40Z</time>
      </trkpt>
      <trkpt lat="48.9205" lon="2.04466">
        <ele>66.6</ele>
        <time>2022-04-05T08:17:45Z</time>
      </trkpt>
      <trkpt lat="48.92046" lon="2.0446">
        <ele>66</ele>
        <time>2022-04-05T08:17:49Z</time>
      </trkpt>
      <trkpt lat="48.92042" lon="2.04455">
        <ele>65.4</ele>
        <time>2022-04-05T08:17:52Z</time>
      </trkpt>
      <trkpt lat="48.92039" lon="2.04449">
        <ele>65.2</ele>
        <time>2022-04-05T08:17:56Z</time>
      </trkpt>
      <trkpt lat="48.92036" lon="2.04443">
        <ele>65</ele>
        <time>2022-04-05T08:17:59Z</time>
      </trkpt>
      <trkpt lat="48.92033" lon="2.04436">
        <ele>65.1</ele>
        <time>2022-04-05T08:18:04Z</time>
      </trkpt>
      <trkpt lat="48.92029" lon="2.04429">
        <ele>65.6</ele>
        <time>2022-04-05T08:18:08Z</time>
      </trkpt>
      <trkpt lat="48.92026" lon="2.04423">
        <ele>66.2</ele>
        <time>2022-04-05T08:18:11Z</time>
      </trkpt>
      <trkpt lat="48.92023" lon="2.04416">
        <ele>66.6</ele>
        <time>2022-04-05T08:18:15Z</time>
      </trkpt>
      <trkpt lat="48.9202" lon="2.0441">
        <ele>67</ele>
        <time>2022-04-05T08:18:19Z</time>
      </trkpt>
      <trkpt lat="48.92017" lon="2.04405">
        <ele>67.4</ele>
        <time>2022-04-05T08:18:23Z</time>
      </trkpt>
      <trkpt lat="48.92014" lon="2.04399">
        <ele>67.7</ele>
        <time>2022-04-05T08:18:26Z</time>
      </trkpt>
      <trkpt lat="48.92012" lon="2.04394">
        <ele>68.1</ele>
        <time>2022-04-05T08:18:28Z</time>
      </trkpt>
      <trkpt lat="48.92009" lon="2.04388">
        <ele>68.6</ele>
        <time>2022-04-05T08:18:31Z</time>
      </trkpt>
      <trkpt lat="48.92006" lon="2.0438">
        <ele>68.6</ele>
        <time>2022-04-05T08:18:35Z</time>
      </trkpt>
      <trkpt lat="48.92002" lon="2.04373">
        <ele>67.6</ele>
        <time>2022-04-05T08:18:40Z</time>
      </trkpt>
      <trkpt lat="48.91999" lon="2.04367">
        <ele>66.4</ele>
        <time>2022-04-05T08:18:43Z</time>
      </trkpt>
      <trkpt lat="48.91995" lon="2.04362">
        <ele>66.2</ele>
        <time>2022-04-05T08:18:49Z</time>
      </trkpt>
      <trkpt lat="48.91992" lon="2.04356">
        <ele>66.3</ele>
        <time>2022-04-05T08:18:53Z</time>
      </trkpt>
      <trkpt lat="48.91988" lon="2.0435">
        <ele>66.4</ele>
        <time>2022-04-05T08:18:56Z</time>
      </trkpt>
      <trkpt lat="48.91985" lon="2.04344">
        <ele>65.8</ele>
        <time>2022-04-05T08:19:00Z</time>
      </trkpt>
      <trkpt lat="48.91982" lon="2.04337">
        <ele>64.3</ele>
        <time>2022-04-05T08:19:04Z</time>
      </trkpt>
      <trkpt lat="48.9198" lon="2.0433">
        <ele>63.4</ele>
        <time>2022-04-05T08:19:08Z</time>
      </trkpt>
      <trkpt lat="48.91976" lon="2.04324">
        <ele>63.6</ele>
        <time>2022-04-05T08:19:11Z</time>
      </trkpt>
      <trkpt lat="48.91973" lon="2.04317">
        <ele>64.2</ele>
        <time>2022-04-05T08:19:15Z</time>
      </trkpt>
      <trkpt lat="48.91971" lon="2.04311">
        <ele>65.2</ele>
        <time>2022-04-05T08:19:19Z</time>
      </trkpt>
      <trkpt lat="48.91968" lon="2.04306">
        <ele>65.7</ele>
        <time>2022-04-05T08:19:22Z</time>
      </trkpt>
      <trkpt lat="48.91965" lon="2.04301">
        <ele>66.1</ele>
        <time>2022-04-05T08:19:26Z</time>
      </trkpt>
      <trkpt lat="48.91961" lon="2.04294">
        <ele>65.9</ele>
        <time>2022-04-05T08:19:30Z</time>
      </trkpt>
      <trkpt lat="48.91958" lon="2.04287">
        <ele>66</ele>
        <time>2022-04-05T08:19:34Z</time>
      </trkpt>
      <trkpt lat="48.91955" lon="2.0428">
        <ele>66</ele>
        <time>2022-04-05T08:19:38Z</time>
      </trkpt>
      <trkpt lat="48.91952" lon="2.04275">
        <ele>66</ele>
        <time>2022-04-05T08:19:42Z</time>
      </trkpt>
      <trkpt lat="48.91949" lon="2.04268">
        <ele>65.5</ele>
        <time>2022-04-05T08:19:45Z</time>
      </trkpt>
      <trkpt lat="48.91947" lon="2.04262">
        <ele>65</ele>
        <time>2022-04-05T08:19:49Z</time>
      </trkpt>
      <trkpt lat="48.91944" lon="2.04257">
        <ele>65</ele>
        <time>2022-04-05T08:19:53Z</time>
      </trkpt>
      <trkpt lat="48.9194" lon="2.04254">
        <ele>65.4</ele>
        <time>2022-04-05T08:19:56Z</time>
      </trkpt>
      <trkpt lat="48.91935" lon="2.0425">
        <ele>65.6</ele>
        <time>2022-04-05T08:20:00Z</time>
      </trkpt>
      <trkpt lat="48.9193" lon="2.04254">
        <ele>64.9</ele>
        <time>2022-04-05T08:20:05Z</time>
      </trkpt>
      <trkpt lat="48.91934" lon="2.04259">
        <ele>63.6</ele>
        <time>2022-04-05T08:20:11Z</time>
      </trkpt>
      <trkpt lat="48.91939" lon="2.04258">
        <ele>63.9</ele>
        <time>2022-04-05T08:20:31Z</time>
      </trkpt>
      <trkpt lat="48.91933" lon="2.04262">
        <ele>64.9</ele>
        <time>2022-04-05T08:20:41Z</time>
      </trkpt>
      <trkpt lat="48.91929" lon="2.04265">
        <ele>65.7</ele>
        <time>2022-04-05T08:20:44Z</time>
      </trkpt>
      <trkpt lat="48.91924" lon="2.04269">
        <ele>66.4</ele>
        <time>2022-04-05T08:20:47Z</time>
      </trkpt>
      <trkpt lat="48.9192" lon="2.04273">
        <ele>66.7</ele>
        <time>2022-04-05T08:20:51Z</time>
      </trkpt>
      <trkpt lat="48.91915" lon="2.04277">
        <ele>66</ele>
        <time>2022-04-05T08:20:54Z</time>
      </trkpt>
      <trkpt lat="48.91912" lon="2.04283">
        <ele>64.9</ele>
        <time>2022-04-05T08:20:56Z</time>
      </trkpt>
      <trkpt lat="48.91908" lon="2.04289">
        <ele>64</ele>
        <time>2022-04-05T08:21:00Z</time>
      </trkpt>
      <trkpt lat="48.91904" lon="2.04294">
        <ele>63.8</ele>
        <time>2022-04-05T08:21:04Z</time>
      </trkpt>
      <trkpt lat="48.919" lon="2.043">
        <ele>63.5</ele>
        <time>2022-04-05T08:21:08Z</time>
      </trkpt>
      <trkpt lat="48.91897" lon="2.04305">
        <ele>62.6</ele>
        <time>2022-04-05T08:21:11Z</time>
      </trkpt>
      <trkpt lat="48.91893" lon="2.04309">
        <ele>61.8</ele>
        <time>2022-04-05T08:21:15Z</time>
      </trkpt>
      <trkpt lat="48.91889" lon="2.04314">
        <ele>61.5</ele>
        <time>2022-04-05T08:21:18Z</time>
      </trkpt>
      <trkpt lat="48.91886" lon="2.04319">
        <ele>61.3</ele>
        <time>2022-04-05T08:21:21Z</time>
      </trkpt>
      <trkpt lat="48.91883" lon="2.04325">
        <ele>61.7</ele>
        <time>2022-04-05T08:21:25Z</time>
      </trkpt>
      <trkpt lat="48.9188" lon="2.04331">
        <ele>62.9</ele>
        <time>2022-04-05T08:21:28Z</time>
      </trkpt>
      <trkpt lat="48.91876" lon="2.04336">
        <ele>63.2</ele>
        <time>2022-04-05T08:21:31Z</time>
      </trkpt>
      <trkpt lat="48.91873" lon="2.04343">
        <ele>63.2</ele>
        <time>2022-04-05T08:21:36Z</time>
      </trkpt>
      <trkpt lat="48.91869" lon="2.04349">
        <ele>63.2</ele>
        <time>2022-04-05T08:21:40Z</time>
      </trkpt>
      <trkpt lat="48.91865" lon="2.04353">
        <ele>63.7</ele>
        <time>2022-04-05T08:21:43Z</time>
      </trkpt>
      <trkpt lat="48.91861" lon="2.04358">
        <ele>63.6</ele>
        <time>2022-04-05T08:21:47Z</time>
      </trkpt>
      <trkpt lat="48.91857" lon="2.04359">
        <ele>63.5</ele>
        <time>2022-04-05T08:21:51Z</time>
      </trkpt>
      <trkpt lat="48.91854" lon="2.04352">
        <ele>63.3</ele>
        <time>2022-04-05T08:21:55Z</time>
      </trkpt>
      <trkpt lat="48.91851" lon="2.04346">
        <ele>63</ele>
        <time>2022-04-05T08:21:58Z</time>
      </trkpt>
      <trkpt lat="48.91848" lon="2.0434">
        <ele>61.8</ele>
        <time>2022-04-05T08:22:01Z</time>
      </trkpt>
      <trkpt lat="48.91844" lon="2.04335">
        <ele>61</ele>
        <time>2022-04-05T08:22:05Z</time>
      </trkpt>
      <trkpt lat="48.91841" lon="2.04328">
        <ele>60.4</ele>
        <time>2022-04-05T08:22:10Z</time>
      </trkpt>
      <trkpt lat="48.91838" lon="2.04323">
        <ele>60.3</ele>
        <time>2022-04-05T08:22:13Z</time>
      </trkpt>
      <trkpt lat="48.91836" lon="2.04316">
        <ele>60.7</ele>
        <time>2022-04-05T08:22:17Z</time>
      </trkpt>
      <trkpt lat="48.91833" lon="2.0431">
        <ele>60.5</ele>
        <time>2022-04-05T08:22:20Z</time>
      </trkpt>
      <trkpt lat="48.9183" lon="2.04305">
        <ele>59.9</ele>
        <time>2022-04-05T08:22:24Z</time>
      </trkpt>
      <trkpt lat="48.91827" lon="2.04299">
        <ele>58.8</ele>
        <time>2022-04-05T08:22:27Z</time>
      </trkpt>
      <trkpt lat="48.91824" lon="2.04292">
        <ele>58.9</ele>
        <time>2022-04-05T08:22:31Z</time>
      </trkpt>
      <trkpt lat="48.91822" lon="2.04285">
        <ele>60.2</ele>
        <time>2022-04-05T08:22:36Z</time>
      </trkpt>
      <trkpt lat="48.91819" lon="2.04278">
        <ele>61.1</ele>
        <time>2022-04-05T08:22:40Z</time>
      </trkpt>
      <trkpt lat="48.91816" lon="2.04272">
        <ele>61.1</ele>
        <time>2022-04-05T08:22:44Z</time>
      </trkpt>
      <trkpt lat="48.91814" lon="2.04264">
        <ele>61.4</ele>
        <time>2022-04-05T08:22:49Z</time>
      </trkpt>
      <trkpt lat="48.9181" lon="2.04257">
        <ele>61.8</ele>
        <time>2022-04-05T08:22:53Z</time>
      </trkpt>
      <trkpt lat="48.91807" lon="2.04252">
        <ele>61.6</ele>
        <time>2022-04-05T08:22:57Z</time>
      </trkpt>
      <trkpt lat="48.91804" lon="2.04246">
        <ele>62.1</ele>
        <time>2022-04-05T08:23:01Z</time>
      </trkpt>
      <trkpt lat="48.91801" lon="2.04241">
        <ele>63</ele>
        <time>2022-04-05T08:23:04Z</time>
      </trkpt>
      <trkpt lat="48.91798" lon="2.04235">
        <ele>63</ele>
        <time>2022-04-05T08:23:07Z</time>
      </trkpt>
      <trkpt lat="48.91795" lon="2.04228">
        <ele>62.7</ele>
        <time>2022-04-05T08:23:11Z</time>
      </trkpt>
      <trkpt lat="48.91792" lon="2.04221">
        <ele>62.2</ele>
        <time>2022-04-05T08:23:15Z</time>
      </trkpt>
      <trkpt lat="48.91789" lon="2.04214">
        <ele>62.1</ele>
        <time>2022-04-05T08:23:19Z</time>
      </trkpt>
      <trkpt lat="48.91786" lon="2.04206">
        <ele>61</ele>
        <time>2022-04-05T08:23:23Z</time>
      </trkpt>
      <trkpt lat="48.91784" lon="2.04199">
        <ele>60.4</ele>
        <time>2022-04-05T08:23:27Z</time>
      </trkpt>
      <trkpt lat="48.9178" lon="2.04193">
        <ele>60</ele>
        <time>2022-04-05T08:23:30Z</time>
      </trkpt>
      <trkpt lat="48.91778" lon="2.04187">
        <ele>60.2</ele>
        <time>2022-04-05T08:23:33Z</time>
      </trkpt>
      <trkpt lat="48.91775" lon="2.04181">
        <ele>61.6</ele>
        <time>2022-04-05T08:23:37Z</time>
      </trkpt>
      <trkpt lat="48.91772" lon="2.04175">
        <ele>62.5</ele>
        <time>2022-04-05T08:23:40Z</time>
      </trkpt>
      <trkpt lat="48.91769" lon="2.04169">
        <ele>63.3</ele>
        <time>2022-04-05T08:23:44Z</time>
      </trkpt>
      <trkpt lat="48.91766" lon="2.04161">
        <ele>63.8</ele>
        <time>2022-04-05T08:23:47Z</time>
      </trkpt>
      <trkpt lat="48.91763" lon="2.04155">
        <ele>64.1</ele>
        <time>2022-04-05T08:23:51Z</time>
      </trkpt>
      <trkpt lat="48.91761" lon="2.0415">
        <ele>63.9</ele>
        <time>2022-04-05T08:23:55Z</time>
      </trkpt>
      <trkpt lat="48.91758" lon="2.04143">
        <ele>63.7</ele>
        <time>2022-04-05T08:23:58Z</time>
      </trkpt>
      <trkpt lat="48.91755" lon="2.04136">
        <ele>63.4</ele>
        <time>2022-04-05T08:24:02Z</time>
      </trkpt>
      <trkpt lat="48.91752" lon="2.04129">
        <ele>62.8</ele>
        <time>2022-04-05T08:24:06Z</time>
      </trkpt>
      <trkpt lat="48.91749" lon="2.04124">
        <ele>62</ele>
        <time>2022-04-05T08:24:10Z</time>
      </trkpt>
      <trkpt lat="48.91746" lon="2.04117">
        <ele>60.5</ele>
        <time>2022-04-05T08:24:13Z</time>
      </trkpt>
      <trkpt lat="48.91742" lon="2.04111">
        <ele>59.1</ele>
        <time>2022-04-05T08:24:17Z</time>
      </trkpt>
      <trkpt lat="48.91739" lon="2.04105">
        <ele>58.2</ele>
        <time>2022-04-05T08:24:21Z</time>
      </trkpt>
      <trkpt lat="48.91736" lon="2.04098">
        <ele>57.8</ele>
        <time>2022-04-05T08:24:24Z</time>
      </trkpt>
      <trkpt lat="48.91734" lon="2.04091">
        <ele>58.6</ele>
        <time>2022-04-05T08:24:28Z</time>
      </trkpt>
      <trkpt lat="48.91732" lon="2.04084">
        <ele>59.8</ele>
        <time>2022-04-05T08:24:32Z</time>
      </trkpt>
      <trkpt lat="48.91728" lon="2.04078">
        <ele>60.1</ele>
        <time>2022-04-05T08:24:36Z</time>
      </trkpt>
      <trkpt lat="48.91723" lon="2.04076">
        <ele>60.3</ele>
        <time>2022-04-05T08:24:40Z</time>
      </trkpt>
      <trkpt lat="48.91718" lon="2.04077">
        <ele>60.7</ele>
        <time>2022-04-05T08:24:43Z</time>
      </trkpt>
      <trkpt lat="48.91712" lon="2.04079">
        <ele>61.7</ele>
        <time>2022-04-05T08:24:48Z</time>
      </trkpt>
      <trkpt lat="48.91707" lon="2.04077">
        <ele>61.6</ele>
        <time>2022-04-05T08:24:51Z</time>
      </trkpt>
      <trkpt lat="48.91701" lon="2.04075">
        <ele>60.6</ele>
        <time>2022-04-05T08:24:55Z</time>
      </trkpt>
      <trkpt lat="48.91697" lon="2.04077">
        <ele>60</ele>
        <time>2022-04-05T08:24:59Z</time>
      </trkpt>
      <trkpt lat="48.91693" lon="2.04082">
        <ele>60.6</ele>
        <time>2022-04-05T08:25:03Z</time>
      </trkpt>
      <trkpt lat="48.91691" lon="2.04089">
        <ele>61.3</ele>
        <time>2022-04-05T08:25:05Z</time>
      </trkpt>
      <trkpt lat="48.9169" lon="2.04098">
        <ele>61.1</ele>
        <time>2022-04-05T08:25:09Z</time>
      </trkpt>
      <trkpt lat="48.91687" lon="2.04106">
        <ele>60.3</ele>
        <time>2022-04-05T08:25:13Z</time>
      </trkpt>
      <trkpt lat="48.91685" lon="2.04113">
        <ele>60.2</ele>
        <time>2022-04-05T08:25:16Z</time>
      </trkpt>
      <trkpt lat="48.91683" lon="2.0412">
        <ele>60.2</ele>
        <time>2022-04-05T08:25:20Z</time>
      </trkpt>
      <trkpt lat="48.91681" lon="2.04127">
        <ele>60.5</ele>
        <time>2022-04-05T08:25:23Z</time>
      </trkpt>
      <trkpt lat="48.91678" lon="2.04134">
        <ele>61.1</ele>
        <time>2022-04-05T08:25:27Z</time>
      </trkpt>
      <trkpt lat="48.91676" lon="2.04141">
        <ele>61.2</ele>
        <time>2022-04-05T08:25:31Z</time>
      </trkpt>
      <trkpt lat="48.91674" lon="2.04147">
        <ele>61</ele>
        <time>2022-04-05T08:25:34Z</time>
      </trkpt>
      <trkpt lat="48.91676" lon="2.04153">
        <ele>60.5</ele>
        <time>2022-04-05T08:25:37Z</time>
      </trkpt>
      <trkpt lat="48.91675" lon="2.04161">
        <ele>59.9</ele>
        <time>2022-04-05T08:25:41Z</time>
      </trkpt>
      <trkpt lat="48.91672" lon="2.04167">
        <ele>59</ele>
        <time>2022-04-05T08:25:44Z</time>
      </trkpt>
      <trkpt lat="48.91669" lon="2.04173">
        <ele>57.7</ele>
        <time>2022-04-05T08:25:48Z</time>
      </trkpt>
      <trkpt lat="48.91666" lon="2.04179">
        <ele>57</ele>
        <time>2022-04-05T08:25:51Z</time>
      </trkpt>
      <trkpt lat="48.91663" lon="2.04185">
        <ele>57.1</ele>
        <time>2022-04-05T08:25:54Z</time>
      </trkpt>
      <trkpt lat="48.91661" lon="2.04193">
        <ele>58</ele>
        <time>2022-04-05T08:25:58Z</time>
      </trkpt>
      <trkpt lat="48.91657" lon="2.04199">
        <ele>58.2</ele>
        <time>2022-04-05T08:26:03Z</time>
      </trkpt>
      <trkpt lat="48.91654" lon="2.04207">
        <ele>58.1</ele>
        <time>2022-04-05T08:26:06Z</time>
      </trkpt>
      <trkpt lat="48.91652" lon="2.04214">
        <ele>58.2</ele>
        <time>2022-04-05T08:26:10Z</time>
      </trkpt>
      <trkpt lat="48.9165" lon="2.04221">
        <ele>59.4</ele>
        <time>2022-04-05T08:26:14Z</time>
      </trkpt>
      <trkpt lat="48.91647" lon="2.04227">
        <ele>61.1</ele>
        <time>2022-04-05T08:26:17Z</time>
      </trkpt>
      <trkpt lat="48.91644" lon="2.04234">
        <ele>62.6</ele>
        <time>2022-04-05T08:26:21Z</time>
      </trkpt>
      <trkpt lat="48.91642" lon="2.04241">
        <ele>62.6</ele>
        <time>2022-04-05T08:26:25Z</time>
      </trkpt>
      <trkpt lat="48.9164" lon="2.0425">
        <ele>61.7</ele>
        <time>2022-04-05T08:26:28Z</time>
      </trkpt>
      <trkpt lat="48.91639" lon="2.04258">
        <ele>60.2</ele>
        <time>2022-04-05T08:26:32Z</time>
      </trkpt>
      <trkpt lat="48.91637" lon="2.04264">
        <ele>59</ele>
        <time>2022-04-05T08:26:34Z</time>
      </trkpt>
      <trkpt lat="48.91637" lon="2.04271">
        <ele>58.5</ele>
        <time>2022-04-05T08:26:38Z</time>
      </trkpt>
      <trkpt lat="48.91635" lon="2.04279">
        <ele>58</ele>
        <time>2022-04-05T08:26:42Z</time>
      </trkpt>
      <trkpt lat="48.91634" lon="2.04287">
        <ele>56.8</ele>
        <time>2022-04-05T08:26:47Z</time>
      </trkpt>
      <trkpt lat="48.91633" lon="2.04295">
        <ele>57.1</ele>
        <time>2022-04-05T08:26:50Z</time>
      </trkpt>
      <trkpt lat="48.9163" lon="2.04301">
        <ele>58.1</ele>
        <time>2022-04-05T08:26:54Z</time>
      </trkpt>
      <trkpt lat="48.91626" lon="2.04307">
        <ele>58.3</ele>
        <time>2022-04-05T08:26:58Z</time>
      </trkpt>
      <trkpt lat="48.91624" lon="2.04314">
        <ele>57.9</ele>
        <time>2022-04-05T08:27:02Z</time>
      </trkpt>
      <trkpt lat="48.91622" lon="2.04322">
        <ele>56.9</ele>
        <time>2022-04-05T08:27:05Z</time>
      </trkpt>
      <trkpt lat="48.91619" lon="2.0433">
        <ele>56.2</ele>
        <time>2022-04-05T08:27:09Z</time>
      </trkpt>
      <trkpt lat="48.91617" lon="2.04338">
        <ele>55.4</ele>
        <time>2022-04-05T08:27:13Z</time>
      </trkpt>
      <trkpt lat="48.91614" lon="2.04345">
        <ele>54.9</ele>
        <time>2022-04-05T08:27:18Z</time>
      </trkpt>
      <trkpt lat="48.91612" lon="2.04352">
        <ele>55</ele>
        <time>2022-04-05T08:27:21Z</time>
      </trkpt>
      <trkpt lat="48.91609" lon="2.04359">
        <ele>55</ele>
        <time>2022-04-05T08:27:25Z</time>
      </trkpt>
      <trkpt lat="48.91607" lon="2.04366">
        <ele>54.8</ele>
        <time>2022-04-05T08:27:29Z</time>
      </trkpt>
      <trkpt lat="48.91605" lon="2.04372">
        <ele>54.4</ele>
        <time>2022-04-05T08:27:32Z</time>
      </trkpt>
      <trkpt lat="48.91602" lon="2.04379">
        <ele>53.8</ele>
        <time>2022-04-05T08:27:36Z</time>
      </trkpt>
      <trkpt lat="48.916" lon="2.04386">
        <ele>54.1</ele>
        <time>2022-04-05T08:27:40Z</time>
      </trkpt>
      <trkpt lat="48.91598" lon="2.04395">
        <ele>54.2</ele>
        <time>2022-04-05T08:27:45Z</time>
      </trkpt>
      <trkpt lat="48.91596" lon="2.04402">
        <ele>54</ele>
        <time>2022-04-05T08:27:48Z</time>
      </trkpt>
      <trkpt lat="48.91594" lon="2.04409">
        <ele>53.7</ele>
        <time>2022-04-05T08:27:52Z</time>
      </trkpt>
      <trkpt lat="48.91592" lon="2.04415">
        <ele>54.2</ele>
        <time>2022-04-05T08:27:55Z</time>
      </trkpt>
      <trkpt lat="48.9159" lon="2.04422">
        <ele>54.4</ele>
        <time>2022-04-05T08:27:59Z</time>
      </trkpt>
      <trkpt lat="48.91589" lon="2.0443">
        <ele>54.3</ele>
        <time>2022-04-05T08:28:02Z</time>
      </trkpt>
      <trkpt lat="48.91587" lon="2.04437">
        <ele>53.8</ele>
        <time>2022-04-05T08:28:06Z</time>
      </trkpt>
      <trkpt lat="48.91585" lon="2.04445">
        <ele>53.3</ele>
        <time>2022-04-05T08:28:10Z</time>
      </trkpt>
      <trkpt lat="48.91584" lon="2.04453">
        <ele>52.8</ele>
        <time>2022-04-05T08:28:14Z</time>
      </trkpt>
      <trkpt lat="48.91582" lon="2.04459">
        <ele>52</ele>
        <time>2022-04-05T08:28:18Z</time>
      </trkpt>
      <trkpt lat="48.9158" lon="2.04466">
        <ele>50.7</ele>
        <time>2022-04-05T08:28:22Z</time>
      </trkpt>
      <trkpt lat="48.91578" lon="2.04474">
        <ele>49.5</ele>
        <time>2022-04-05T08:28:26Z</time>
      </trkpt>
      <trkpt lat="48.91576" lon="2.04481">
        <ele>48.2</ele>
        <time>2022-04-05T08:28:30Z</time>
      </trkpt>
      <trkpt lat="48.91573" lon="2.04488">
        <ele>47.3</ele>
        <time>2022-04-05T08:28:34Z</time>
      </trkpt>
      <trkpt lat="48.91571" lon="2.04495">
        <ele>47.8</ele>
        <time>2022-04-05T08:28:38Z</time>
      </trkpt>
      <trkpt lat="48.91569" lon="2.04502">
        <ele>47.9</ele>
        <time>2022-04-05T08:28:41Z</time>
      </trkpt>
      <trkpt lat="48.91567" lon="2.0451">
        <ele>47.2</ele>
        <time>2022-04-05T08:28:46Z</time>
      </trkpt>
      <trkpt lat="48.91564" lon="2.04516">
        <ele>46.7</ele>
        <time>2022-04-05T08:28:50Z</time>
      </trkpt>
      <trkpt lat="48.91562" lon="2.04522">
        <ele>46.3</ele>
        <time>2022-04-05T08:28:52Z</time>
      </trkpt>
      <trkpt lat="48.9156" lon="2.04529">
        <ele>46.1</ele>
        <time>2022-04-05T08:28:56Z</time>
      </trkpt>
      <trkpt lat="48.91559" lon="2.04537">
        <ele>46.7</ele>
        <time>2022-04-05T08:29:00Z</time>
      </trkpt>
      <trkpt lat="48.91557" lon="2.04545">
        <ele>47.8</ele>
        <time>2022-04-05T08:29:03Z</time>
      </trkpt>
      <trkpt lat="48.91555" lon="2.04551">
        <ele>48.8</ele>
        <time>2022-04-05T08:29:06Z</time>
      </trkpt>
      <trkpt lat="48.91553" lon="2.04558">
        <ele>49.2</ele>
        <time>2022-04-05T08:29:10Z</time>
      </trkpt>
      <trkpt lat="48.91551" lon="2.04565">
        <ele>48.2</ele>
        <time>2022-04-05T08:29:14Z</time>
      </trkpt>
      <trkpt lat="48.91548" lon="2.04574">
        <ele>46.4</ele>
        <time>2022-04-05T08:29:18Z</time>
      </trkpt>
      <trkpt lat="48.91546" lon="2.04581">
        <ele>45.3</ele>
        <time>2022-04-05T08:29:22Z</time>
      </trkpt>
      <trkpt lat="48.91544" lon="2.04589">
        <ele>44.7</ele>
        <time>2022-04-05T08:29:25Z</time>
      </trkpt>
      <trkpt lat="48.91542" lon="2.04595">
        <ele>44.9</ele>
        <time>2022-04-05T08:29:28Z</time>
      </trkpt>
      <trkpt lat="48.91539" lon="2.04604">
        <ele>45</ele>
        <time>2022-04-05T08:29:32Z</time>
      </trkpt>
      <trkpt lat="48.91538" lon="2.0461">
        <ele>45</ele>
        <time>2022-04-05T08:29:36Z</time>
      </trkpt>
      <trkpt lat="48.91536" lon="2.04617">
        <ele>44.7</ele>
        <time>2022-04-05T08:29:39Z</time>
      </trkpt>
      <trkpt lat="48.91533" lon="2.04625">
        <ele>44.3</ele>
        <time>2022-04-05T08:29:43Z</time>
      </trkpt>
      <trkpt lat="48.91531" lon="2.04631">
        <ele>43.4</ele>
        <time>2022-04-05T08:29:47Z</time>
      </trkpt>
      <trkpt lat="48.91529" lon="2.04639">
        <ele>42.5</ele>
        <time>2022-04-05T08:29:51Z</time>
      </trkpt>
      <trkpt lat="48.91526" lon="2.04649">
        <ele>41.8</ele>
        <time>2022-04-05T08:29:56Z</time>
      </trkpt>
      <trkpt lat="48.91524" lon="2.04656">
        <ele>41</ele>
        <time>2022-04-05T08:29:59Z</time>
      </trkpt>
      <trkpt lat="48.91522" lon="2.04664">
        <ele>40.2</ele>
        <time>2022-04-05T08:30:03Z</time>
      </trkpt>
      <trkpt lat="48.9152" lon="2.04671">
        <ele>40.1</ele>
        <time>2022-04-05T08:30:07Z</time>
      </trkpt>
      <trkpt lat="48.91518" lon="2.04678">
        <ele>40.8</ele>
        <time>2022-04-05T08:30:11Z</time>
      </trkpt>
      <trkpt lat="48.91514" lon="2.04686">
        <ele>42.5</ele>
        <time>2022-04-05T08:30:14Z</time>
      </trkpt>
      <trkpt lat="48.91512" lon="2.04694">
        <ele>43.2</ele>
        <time>2022-04-05T08:30:18Z</time>
      </trkpt>
      <trkpt lat="48.9151" lon="2.04702">
        <ele>42.7</ele>
        <time>2022-04-05T08:30:22Z</time>
      </trkpt>
      <trkpt lat="48.91508" lon="2.04709">
        <ele>42.6</ele>
        <time>2022-04-05T08:30:26Z</time>
      </trkpt>
      <trkpt lat="48.91506" lon="2.04717">
        <ele>42.8</ele>
        <time>2022-04-05T08:30:29Z</time>
      </trkpt>
      <trkpt lat="48.91503" lon="2.04725">
        <ele>42.5</ele>
        <time>2022-04-05T08:30:33Z</time>
      </trkpt>
      <trkpt lat="48.91501" lon="2.04732">
        <ele>42.1</ele>
        <time>2022-04-05T08:30:37Z</time>
      </trkpt>
      <trkpt lat="48.91498" lon="2.04738">
        <ele>43</ele>
        <time>2022-04-05T08:30:40Z</time>
      </trkpt>
      <trkpt lat="48.91495" lon="2.04746">
        <ele>44.9</ele>
        <time>2022-04-05T08:30:44Z</time>
      </trkpt>
      <trkpt lat="48.91493" lon="2.04754">
        <ele>46.9</ele>
        <time>2022-04-05T08:30:47Z</time>
      </trkpt>
      <trkpt lat="48.9149" lon="2.04761">
        <ele>48.1</ele>
        <time>2022-04-05T08:30:50Z</time>
      </trkpt>
      <trkpt lat="48.91486" lon="2.04768">
        <ele>49.2</ele>
        <time>2022-04-05T08:30:54Z</time>
      </trkpt>
      <trkpt lat="48.9148" lon="2.04768">
        <ele>50.7</ele>
        <time>2022-04-05T08:30:59Z</time>
      </trkpt>
      <trkpt lat="48.91483" lon="2.04773">
        <ele>54.9</ele>
        <time>2022-04-05T08:31:10Z</time>
      </trkpt>
      <trkpt lat="48.91478" lon="2.04769">
        <ele>54.3</ele>
        <time>2022-04-05T08:33:45Z</time>
      </trkpt>
      <trkpt lat="48.91474" lon="2.04766">
        <ele>53.4</ele>
        <time>2022-04-05T08:34:32Z</time>
      </trkpt>
      <trkpt lat="48.91469" lon="2.04769">
        <ele>53.7</ele>
        <time>2022-04-05T08:34:35Z</time>
      </trkpt>
      <trkpt lat="48.91472" lon="2.04761">
        <ele>54.5</ele>
        <time>2022-04-05T08:34:38Z</time>
      </trkpt>
      <trkpt lat="48.91474" lon="2.04754">
        <ele>54.9</ele>
        <time>2022-04-05T08:34:43Z</time>
      </trkpt>
      <trkpt lat="48.91477" lon="2.04748">
        <ele>54.6</ele>
        <time>2022-04-05T08:34:47Z</time>
      </trkpt>
      <trkpt lat="48.91475" lon="2.0474">
        <ele>53.8</ele>
        <time>2022-04-05T08:34:51Z</time>
      </trkpt>
      <trkpt lat="48.91472" lon="2.04735">
        <ele>53.8</ele>
        <time>2022-04-05T08:34:53Z</time>
      </trkpt>
      <trkpt lat="48.91468" lon="2.04729">
        <ele>53.7</ele>
        <time>2022-04-05T08:34:56Z</time>
      </trkpt>
      <trkpt lat="48.91463" lon="2.04724">
        <ele>53.5</ele>
        <time>2022-04-05T08:35:01Z</time>
      </trkpt>
      <trkpt lat="48.9146" lon="2.04719">
        <ele>53.4</ele>
        <time>2022-04-05T08:35:04Z</time>
      </trkpt>
      <trkpt lat="48.91457" lon="2.04712">
        <ele>53.5</ele>
        <time>2022-04-05T08:35:07Z</time>
      </trkpt>
      <trkpt lat="48.91454" lon="2.04705">
        <ele>53.8</ele>
        <time>2022-04-05T08:35:11Z</time>
      </trkpt>
      <trkpt lat="48.91451" lon="2.04698">
        <ele>54</ele>
        <time>2022-04-05T08:35:16Z</time>
      </trkpt>
      <trkpt lat="48.91448" lon="2.04691">
        <ele>54.5</ele>
        <time>2022-04-05T08:35:19Z</time>
      </trkpt>
      <trkpt lat="48.91445" lon="2.04681">
        <ele>54.9</ele>
        <time>2022-04-05T08:35:24Z</time>
      </trkpt>
      <trkpt lat="48.91442" lon="2.04674">
        <ele>54.9</ele>
        <time>2022-04-05T08:35:28Z</time>
      </trkpt>
      <trkpt lat="48.91439" lon="2.04666">
        <ele>54.8</ele>
        <time>2022-04-05T08:35:32Z</time>
      </trkpt>
      <trkpt lat="48.91436" lon="2.0466">
        <ele>54.7</ele>
        <time>2022-04-05T08:35:36Z</time>
      </trkpt>
      <trkpt lat="48.91433" lon="2.04652">
        <ele>55.3</ele>
        <time>2022-04-05T08:35:41Z</time>
      </trkpt>
      <trkpt lat="48.9143" lon="2.04645">
        <ele>55.8</ele>
        <time>2022-04-05T08:35:44Z</time>
      </trkpt>
      <trkpt lat="48.91428" lon="2.04639">
        <ele>55.9</ele>
        <time>2022-04-05T08:35:48Z</time>
      </trkpt>
      <trkpt lat="48.91425" lon="2.04633">
        <ele>56.1</ele>
        <time>2022-04-05T08:35:53Z</time>
      </trkpt>
      <trkpt lat="48.91423" lon="2.04626">
        <ele>56.2</ele>
        <time>2022-04-05T08:35:56Z</time>
      </trkpt>
      <trkpt lat="48.9142" lon="2.0462">
        <ele>56</ele>
        <time>2022-04-05T08:36:00Z</time>
      </trkpt>
      <trkpt lat="48.91417" lon="2.04612">
        <ele>56.3</ele>
        <time>2022-04-05T08:36:04Z</time>
      </trkpt>
      <trkpt lat="48.91413" lon="2.04605">
        <ele>56.6</ele>
        <time>2022-04-05T08:36:09Z</time>
      </trkpt>
      <trkpt lat="48.9141" lon="2.04599">
        <ele>57</ele>
        <time>2022-04-05T08:36:12Z</time>
      </trkpt>
      <trkpt lat="48.91407" lon="2.04592">
        <ele>57.2</ele>
        <time>2022-04-05T08:36:16Z</time>
      </trkpt>
      <trkpt lat="48.91405" lon="2.04586">
        <ele>57.2</ele>
        <time>2022-04-05T08:36:20Z</time>
      </trkpt>
      <trkpt lat="48.91402" lon="2.04581">
        <ele>56.9</ele>
        <time>2022-04-05T08:36:22Z</time>
      </trkpt>
      <trkpt lat="48.91398" lon="2.04575">
        <ele>56.3</ele>
        <time>2022-04-05T08:36:26Z</time>
      </trkpt>
      <trkpt lat="48.91395" lon="2.04571">
        <ele>55.7</ele>
        <time>2022-04-05T08:36:29Z</time>
      </trkpt>
      <trkpt lat="48.91391" lon="2.04567">
        <ele>55.1</ele>
        <time>2022-04-05T08:36:32Z</time>
      </trkpt>
      <trkpt lat="48.91386" lon="2.04563">
        <ele>54.9</ele>
        <time>2022-04-05T08:36:35Z</time>
      </trkpt>
      <trkpt lat="48.91382" lon="2.04559">
        <ele>55.2</ele>
        <time>2022-04-05T08:36:39Z</time>
      </trkpt>
      <trkpt lat="48.91378" lon="2.04554">
        <ele>55.9</ele>
        <time>2022-04-05T08:36:42Z</time>
      </trkpt>
      <trkpt lat="48.91373" lon="2.0455">
        <ele>56</ele>
        <time>2022-04-05T08:36:46Z</time>
      </trkpt>
      <trkpt lat="48.91369" lon="2.04545">
        <ele>56</ele>
        <time>2022-04-05T08:36:50Z</time>
      </trkpt>
      <trkpt lat="48.91365" lon="2.04542">
        <ele>56.2</ele>
        <time>2022-04-05T08:36:54Z</time>
      </trkpt>
      <trkpt lat="48.9136" lon="2.04537">
        <ele>56.8</ele>
        <time>2022-04-05T08:36:58Z</time>
      </trkpt>
      <trkpt lat="48.91356" lon="2.04532">
        <ele>56.8</ele>
        <time>2022-04-05T08:37:01Z</time>
      </trkpt>
      <trkpt lat="48.91353" lon="2.04527">
        <ele>56.5</ele>
        <time>2022-04-05T08:37:05Z</time>
      </trkpt>
      <trkpt lat="48.91348" lon="2.04523">
        <ele>57.1</ele>
        <time>2022-04-05T08:37:09Z</time>
      </trkpt>
      <trkpt lat="48.91344" lon="2.0452">
        <ele>58</ele>
        <time>2022-04-05T08:37:13Z</time>
      </trkpt>
      <trkpt lat="48.91339" lon="2.04516">
        <ele>58.5</ele>
        <time>2022-04-05T08:37:18Z</time>
      </trkpt>
      <trkpt lat="48.91334" lon="2.04515">
        <ele>59.4</ele>
        <time>2022-04-05T08:37:22Z</time>
      </trkpt>
      <trkpt lat="48.91329" lon="2.0452">
        <ele>60.2</ele>
        <time>2022-04-05T08:37:25Z</time>
      </trkpt>
      <trkpt lat="48.91325" lon="2.04526">
        <ele>60.9</ele>
        <time>2022-04-05T08:37:29Z</time>
      </trkpt>
      <trkpt lat="48.91321" lon="2.0453">
        <ele>61.1</ele>
        <time>2022-04-05T08:37:33Z</time>
      </trkpt>
      <trkpt lat="48.91317" lon="2.04536">
        <ele>60.8</ele>
        <time>2022-04-05T08:37:37Z</time>
      </trkpt>
      <trkpt lat="48.91314" lon="2.04542">
        <ele>60.6</ele>
        <time>2022-04-05T08:37:41Z</time>
      </trkpt>
      <trkpt lat="48.9131" lon="2.04547">
        <ele>60.8</ele>
        <time>2022-04-05T08:37:45Z</time>
      </trkpt>
      <trkpt lat="48.91309" lon="2.04554">
        <ele>60.7</ele>
        <time>2022-04-05T08:37:49Z</time>
      </trkpt>
      <trkpt lat="48.91306" lon="2.04562">
        <ele>58.8</ele>
        <time>2022-04-05T08:37:53Z</time>
      </trkpt>
      <trkpt lat="48.91302" lon="2.04568">
        <ele>57.2</ele>
        <time>2022-04-05T08:37:57Z</time>
      </trkpt>
      <trkpt lat="48.91299" lon="2.04573">
        <ele>56.6</ele>
        <time>2022-04-05T08:37:59Z</time>
      </trkpt>
      <trkpt lat="48.91294" lon="2.04577">
        <ele>57.2</ele>
        <time>2022-04-05T08:38:03Z</time>
      </trkpt>
      <trkpt lat="48.9129" lon="2.04581">
        <ele>58.5</ele>
        <time>2022-04-05T08:38:06Z</time>
      </trkpt>
      <trkpt lat="48.91287" lon="2.04586">
        <ele>59.8</ele>
        <time>2022-04-05T08:38:09Z</time>
      </trkpt>
      <trkpt lat="48.91284" lon="2.04592">
        <ele>60.5</ele>
        <time>2022-04-05T08:38:13Z</time>
      </trkpt>
      <trkpt lat="48.9128" lon="2.04599">
        <ele>61.2</ele>
        <time>2022-04-05T08:38:16Z</time>
      </trkpt>
      <trkpt lat="48.91279" lon="2.04606">
        <ele>61.3</ele>
        <time>2022-04-05T08:38:20Z</time>
      </trkpt>
      <trkpt lat="48.91278" lon="2.04615">
        <ele>60.2</ele>
        <time>2022-04-05T08:38:24Z</time>
      </trkpt>
      <trkpt lat="48.91276" lon="2.04621">
        <ele>59.1</ele>
        <time>2022-04-05T08:38:28Z</time>
      </trkpt>
      <trkpt lat="48.91275" lon="2.0463">
        <ele>58.5</ele>
        <time>2022-04-05T08:38:32Z</time>
      </trkpt>
      <trkpt lat="48.91277" lon="2.04636">
        <ele>58.5</ele>
        <time>2022-04-05T08:38:34Z</time>
      </trkpt>
      <trkpt lat="48.91278" lon="2.04645">
        <ele>58.6</ele>
        <time>2022-04-05T08:38:38Z</time>
      </trkpt>
      <trkpt lat="48.91275" lon="2.0465">
        <ele>58.5</ele>
        <time>2022-04-05T08:38:41Z</time>
      </trkpt>
      <trkpt lat="48.9127" lon="2.04654">
        <ele>58</ele>
        <time>2022-04-05T08:38:45Z</time>
      </trkpt>
      <trkpt lat="48.91265" lon="2.04655">
        <ele>58.2</ele>
        <time>2022-04-05T08:38:49Z</time>
      </trkpt>
      <trkpt lat="48.9126" lon="2.04655">
        <ele>58.8</ele>
        <time>2022-04-05T08:38:52Z</time>
      </trkpt>
      <trkpt lat="48.91255" lon="2.04656">
        <ele>60</ele>
        <time>2022-04-05T08:38:55Z</time>
      </trkpt>
      <trkpt lat="48.91251" lon="2.04661">
        <ele>61.4</ele>
        <time>2022-04-05T08:38:59Z</time>
      </trkpt>
      <trkpt lat="48.91246" lon="2.04663">
        <ele>61.9</ele>
        <time>2022-04-05T08:39:03Z</time>
      </trkpt>
      <trkpt lat="48.9124" lon="2.04663">
        <ele>61.4</ele>
        <time>2022-04-05T08:39:08Z</time>
      </trkpt>
      <trkpt lat="48.91236" lon="2.04668">
        <ele>61.1</ele>
        <time>2022-04-05T08:39:12Z</time>
      </trkpt>
      <trkpt lat="48.91233" lon="2.04675">
        <ele>62.4</ele>
        <time>2022-04-05T08:39:15Z</time>
      </trkpt>
      <trkpt lat="48.91229" lon="2.04681">
        <ele>63.5</ele>
        <time>2022-04-05T08:39:19Z</time>
      </trkpt>
      <trkpt lat="48.91224" lon="2.04685">
        <ele>63.6</ele>
        <time>2022-04-05T08:39:23Z</time>
      </trkpt>
      <trkpt lat="48.9122" lon="2.04688">
        <ele>63</ele>
        <time>2022-04-05T08:39:27Z</time>
      </trkpt>
      <trkpt lat="48.91216" lon="2.04694">
        <ele>61.8</ele>
        <time>2022-04-05T08:39:31Z</time>
      </trkpt>
      <trkpt lat="48.91213" lon="2.04701">
        <ele>61.1</ele>
        <time>2022-04-05T08:39:34Z</time>
      </trkpt>
      <trkpt lat="48.91209" lon="2.04707">
        <ele>60.9</ele>
        <time>2022-04-05T08:39:38Z</time>
      </trkpt>
      <trkpt lat="48.91208" lon="2.04715">
        <ele>61.3</ele>
        <time>2022-04-05T08:39:42Z</time>
      </trkpt>
      <trkpt lat="48.91202" lon="2.04718">
        <ele>61.1</ele>
        <time>2022-04-05T08:39:47Z</time>
      </trkpt>
      <trkpt lat="48.91196" lon="2.04717">
        <ele>60.5</ele>
        <time>2022-04-05T08:39:50Z</time>
      </trkpt>
      <trkpt lat="48.91192" lon="2.04722">
        <ele>60.6</ele>
        <time>2022-04-05T08:39:54Z</time>
      </trkpt>
      <trkpt lat="48.9119" lon="2.04729">
        <ele>61.2</ele>
        <time>2022-04-05T08:39:57Z</time>
      </trkpt>
      <trkpt lat="48.91188" lon="2.04737">
        <ele>61.5</ele>
        <time>2022-04-05T08:40:01Z</time>
      </trkpt>
      <trkpt lat="48.91185" lon="2.04744">
        <ele>61.2</ele>
        <time>2022-04-05T08:40:04Z</time>
      </trkpt>
      <trkpt lat="48.91183" lon="2.0475">
        <ele>59.9</ele>
        <time>2022-04-05T08:40:08Z</time>
      </trkpt>
      <trkpt lat="48.91179" lon="2.04756">
        <ele>59.4</ele>
        <time>2022-04-05T08:40:13Z</time>
      </trkpt>
      <trkpt lat="48.91176" lon="2.04763">
        <ele>59.5</ele>
        <time>2022-04-05T08:40:17Z</time>
      </trkpt>
      <trkpt lat="48.91173" lon="2.0477">
        <ele>59.5</ele>
        <time>2022-04-05T08:40:20Z</time>
      </trkpt>
      <trkpt lat="48.91171" lon="2.04777">
        <ele>59.5</ele>
        <time>2022-04-05T08:40:24Z</time>
      </trkpt>
      <trkpt lat="48.91169" lon="2.04783">
        <ele>59.6</ele>
        <time>2022-04-05T08:40:28Z</time>
      </trkpt>
      <trkpt lat="48.91166" lon="2.04791">
        <ele>59.4</ele>
        <time>2022-04-05T08:40:33Z</time>
      </trkpt>
      <trkpt lat="48.91163" lon="2.04796">
        <ele>59.1</ele>
        <time>2022-04-05T08:40:37Z</time>
      </trkpt>
      <trkpt lat="48.9116" lon="2.04804">
        <ele>59.5</ele>
        <time>2022-04-05T08:40:41Z</time>
      </trkpt>
      <trkpt lat="48.91157" lon="2.04808">
        <ele>60.2</ele>
        <time>2022-04-05T08:40:45Z</time>
      </trkpt>
      <trkpt lat="48.91162" lon="2.04811">
        <ele>61</ele>
        <time>2022-04-05T08:40:52Z</time>
      </trkpt>
      <trkpt lat="48.91166" lon="2.0481">
        <ele>60.6</ele>
        <time>2022-04-05T08:40:54Z</time>
      </trkpt>
      <trkpt lat="48.91171" lon="2.04816">
        <ele>58.8</ele>
        <time>2022-04-05T08:40:59Z</time>
      </trkpt>
      <trkpt lat="48.91174" lon="2.04822">
        <ele>58</ele>
        <time>2022-04-05T08:41:02Z</time>
      </trkpt>
      <trkpt lat="48.91177" lon="2.04828">
        <ele>57.8</ele>
        <time>2022-04-05T08:41:05Z</time>
      </trkpt>
      <trkpt lat="48.9118" lon="2.04834">
        <ele>57.4</ele>
        <time>2022-04-05T08:41:09Z</time>
      </trkpt>
      <trkpt lat="48.91184" lon="2.04838">
        <ele>57.1</ele>
        <time>2022-04-05T08:41:12Z</time>
      </trkpt>
      <trkpt lat="48.91187" lon="2.04843">
        <ele>56.3</ele>
        <time>2022-04-05T08:41:16Z</time>
      </trkpt>
      <trkpt lat="48.9119" lon="2.04849">
        <ele>55.9</ele>
        <time>2022-04-05T08:41:19Z</time>
      </trkpt>
      <trkpt lat="48.91194" lon="2.04855">
        <ele>55.8</ele>
        <time>2022-04-05T08:41:23Z</time>
      </trkpt>
      <trkpt lat="48.91197" lon="2.04861">
        <ele>56.3</ele>
        <time>2022-04-05T08:41:27Z</time>
      </trkpt>
      <trkpt lat="48.912" lon="2.04867">
        <ele>56.9</ele>
        <time>2022-04-05T08:41:31Z</time>
      </trkpt>
      <trkpt lat="48.91202" lon="2.04874">
        <ele>57.8</ele>
        <time>2022-04-05T08:41:34Z</time>
      </trkpt>
      <trkpt lat="48.91204" lon="2.04881">
        <ele>58.7</ele>
        <time>2022-04-05T08:41:39Z</time>
      </trkpt>
      <trkpt lat="48.91205" lon="2.04888">
        <ele>58.9</ele>
        <time>2022-04-05T08:41:41Z</time>
      </trkpt>
      <trkpt lat="48.91206" lon="2.04896">
        <ele>58.8</ele>
        <time>2022-04-05T08:41:45Z</time>
      </trkpt>
      <trkpt lat="48.91208" lon="2.04903">
        <ele>59.4</ele>
        <time>2022-04-05T08:41:48Z</time>
      </trkpt>
      <trkpt lat="48.9121" lon="2.0491">
        <ele>60.3</ele>
        <time>2022-04-05T08:41:51Z</time>
      </trkpt>
      <trkpt lat="48.91213" lon="2.04917">
        <ele>61.3</ele>
        <time>2022-04-05T08:41:55Z</time>
      </trkpt>
      <trkpt lat="48.91215" lon="2.04923">
        <ele>61.8</ele>
        <time>2022-04-05T08:41:58Z</time>
      </trkpt>
      <trkpt lat="48.91216" lon="2.0493">
        <ele>61.6</ele>
        <time>2022-04-05T08:42:01Z</time>
      </trkpt>
      <trkpt lat="48.91217" lon="2.04938">
        <ele>60.5</ele>
        <time>2022-04-05T08:42:05Z</time>
      </trkpt>
      <trkpt lat="48.91219" lon="2.04945">
        <ele>60</ele>
        <time>2022-04-05T08:42:09Z</time>
      </trkpt>
      <trkpt lat="48.91224" lon="2.04949">
        <ele>60</ele>
        <time>2022-04-05T08:42:12Z</time>
      </trkpt>
      <trkpt lat="48.91227" lon="2.04954">
        <ele>60</ele>
        <time>2022-04-05T08:42:16Z</time>
      </trkpt>
      <trkpt lat="48.91232" lon="2.04959">
        <ele>58.6</ele>
        <time>2022-04-05T08:42:19Z</time>
      </trkpt>
      <trkpt lat="48.91235" lon="2.04965">
        <ele>57.5</ele>
        <time>2022-04-05T08:42:23Z</time>
      </trkpt>
      <trkpt lat="48.91239" lon="2.04971">
        <ele>56.9</ele>
        <time>2022-04-05T08:42:27Z</time>
      </trkpt>
      <trkpt lat="48.91242" lon="2.04979">
        <ele>57.1</ele>
        <time>2022-04-05T08:42:31Z</time>
      </trkpt>
      <trkpt lat="48.91245" lon="2.04985">
        <ele>57.4</ele>
        <time>2022-04-05T08:42:35Z</time>
      </trkpt>
      <trkpt lat="48.91247" lon="2.04992">
        <ele>57.8</ele>
        <time>2022-04-05T08:42:38Z</time>
      </trkpt>
      <trkpt lat="48.91249" lon="2.04999">
        <ele>58.4</ele>
        <time>2022-04-05T08:42:42Z</time>
      </trkpt>
      <trkpt lat="48.91252" lon="2.05006">
        <ele>58.7</ele>
        <time>2022-04-05T08:42:46Z</time>
      </trkpt>
      <trkpt lat="48.91254" lon="2.05013">
        <ele>59.7</ele>
        <time>2022-04-05T08:42:50Z</time>
      </trkpt>
      <trkpt lat="48.91256" lon="2.05021">
        <ele>61</ele>
        <time>2022-04-05T08:42:53Z</time>
      </trkpt>
      <trkpt lat="48.91259" lon="2.05028">
        <ele>61.6</ele>
        <time>2022-04-05T08:42:57Z</time>
      </trkpt>
      <trkpt lat="48.91261" lon="2.05034">
        <ele>61.2</ele>
        <time>2022-04-05T08:43:03Z</time>
      </trkpt>
      <trkpt lat="48.91265" lon="2.0504">
        <ele>60.7</ele>
        <time>2022-04-05T08:43:07Z</time>
      </trkpt>
      <trkpt lat="48.91267" lon="2.05048">
        <ele>60.8</ele>
        <time>2022-04-05T08:43:10Z</time>
      </trkpt>
      <trkpt lat="48.91269" lon="2.05055">
        <ele>61.3</ele>
        <time>2022-04-05T08:43:14Z</time>
      </trkpt>
      <trkpt lat="48.91272" lon="2.05061">
        <ele>62.2</ele>
        <time>2022-04-05T08:43:18Z</time>
      </trkpt>
      <trkpt lat="48.91275" lon="2.05068">
        <ele>63.4</ele>
        <time>2022-04-05T08:43:21Z</time>
      </trkpt>
      <trkpt lat="48.91278" lon="2.05076">
        <ele>65.2</ele>
        <time>2022-04-05T08:43:25Z</time>
      </trkpt>
      <trkpt lat="48.91281" lon="2.05084">
        <ele>65.5</ele>
        <time>2022-04-05T08:43:30Z</time>
      </trkpt>
      <trkpt lat="48.91283" lon="2.0509">
        <ele>65.4</ele>
        <time>2022-04-05T08:43:34Z</time>
      </trkpt>
      <trkpt lat="48.91287" lon="2.05095">
        <ele>65.8</ele>
        <time>2022-04-05T08:43:37Z</time>
      </trkpt>
      <trkpt lat="48.91292" lon="2.05101">
        <ele>67.2</ele>
        <time>2022-04-05T08:43:41Z</time>
      </trkpt>
      <trkpt lat="48.91294" lon="2.05107">
        <ele>67.1</ele>
        <time>2022-04-05T08:43:45Z</time>
      </trkpt>
      <trkpt lat="48.91297" lon="2.05114">
        <ele>66.2</ele>
        <time>2022-04-05T08:43:48Z</time>
      </trkpt>
      <trkpt lat="48.913" lon="2.0512">
        <ele>66.2</ele>
        <time>2022-04-05T08:43:52Z</time>
      </trkpt>
      <trkpt lat="48.91305" lon="2.05127">
        <ele>67.9</ele>
        <time>2022-04-05T08:43:57Z</time>
      </trkpt>
      <trkpt lat="48.91307" lon="2.05134">
        <ele>68.4</ele>
        <time>2022-04-05T08:44:01Z</time>
      </trkpt>
      <trkpt lat="48.91308" lon="2.05143">
        <ele>68.1</ele>
        <time>2022-04-05T08:44:04Z</time>
      </trkpt>
      <trkpt lat="48.9131" lon="2.0515">
        <ele>68.5</ele>
        <time>2022-04-05T08:44:08Z</time>
      </trkpt>
      <trkpt lat="48.91312" lon="2.05158">
        <ele>68.6</ele>
        <time>2022-04-05T08:44:12Z</time>
      </trkpt>
      <trkpt lat="48.91316" lon="2.05165">
        <ele>67.8</ele>
        <time>2022-04-05T08:44:17Z</time>
      </trkpt>
      <trkpt lat="48.91319" lon="2.05171">
        <ele>67.2</ele>
        <time>2022-04-05T08:44:20Z</time>
      </trkpt>
      <trkpt lat="48.91321" lon="2.05177">
        <ele>66.7</ele>
        <time>2022-04-05T08:44:24Z</time>
      </trkpt>
      <trkpt lat="48.91324" lon="2.05185">
        <ele>65.9</ele>
        <time>2022-04-05T08:44:29Z</time>
      </trkpt>
      <trkpt lat="48.91327" lon="2.05192">
        <ele>66.4</ele>
        <time>2022-04-05T08:44:33Z</time>
      </trkpt>
      <trkpt lat="48.9133" lon="2.05197">
        <ele>67.2</ele>
        <time>2022-04-05T08:44:36Z</time>
      </trkpt>
      <trkpt lat="48.91334" lon="2.05204">
        <ele>67.6</ele>
        <time>2022-04-05T08:44:39Z</time>
      </trkpt>
      <trkpt lat="48.91337" lon="2.05211">
        <ele>67.6</ele>
        <time>2022-04-05T08:44:43Z</time>
      </trkpt>
      <trkpt lat="48.91338" lon="2.05218">
        <ele>67.2</ele>
        <time>2022-04-05T08:44:46Z</time>
      </trkpt>
      <trkpt lat="48.91341" lon="2.05225">
        <ele>66.1</ele>
        <time>2022-04-05T08:44:50Z</time>
      </trkpt>
      <trkpt lat="48.91343" lon="2.05231">
        <ele>64.4</ele>
        <time>2022-04-05T08:44:54Z</time>
      </trkpt>
      <trkpt lat="48.91346" lon="2.05237">
        <ele>64</ele>
        <time>2022-04-05T08:44:58Z</time>
      </trkpt>
      <trkpt lat="48.91348" lon="2.05244">
        <ele>63</ele>
        <time>2022-04-05T08:45:02Z</time>
      </trkpt>
      <trkpt lat="48.9135" lon="2.05251">
        <ele>62.8</ele>
        <time>2022-04-05T08:45:06Z</time>
      </trkpt>
      <trkpt lat="48.91353" lon="2.05258">
        <ele>63.3</ele>
        <time>2022-04-05T08:45:10Z</time>
      </trkpt>
      <trkpt lat="48.91356" lon="2.05264">
        <ele>64.6</ele>
        <time>2022-04-05T08:45:14Z</time>
      </trkpt>
      <trkpt lat="48.9136" lon="2.0527">
        <ele>65.7</ele>
        <time>2022-04-05T08:45:19Z</time>
      </trkpt>
      <trkpt lat="48.91363" lon="2.05277">
        <ele>66.3</ele>
        <time>2022-04-05T08:45:24Z</time>
      </trkpt>
      <trkpt lat="48.91365" lon="2.05285">
        <ele>66</ele>
        <time>2022-04-05T08:45:29Z</time>
      </trkpt>
      <trkpt lat="48.91368" lon="2.05291">
        <ele>65.4</ele>
        <time>2022-04-05T08:45:32Z</time>
      </trkpt>
      <trkpt lat="48.91371" lon="2.05298">
        <ele>65.5</ele>
        <time>2022-04-05T08:45:36Z</time>
      </trkpt>
      <trkpt lat="48.91374" lon="2.05305">
        <ele>65.8</ele>
        <time>2022-04-05T08:45:40Z</time>
      </trkpt>
      <trkpt lat="48.91377" lon="2.05311">
        <ele>65.2</ele>
        <time>2022-04-05T08:45:44Z</time>
      </trkpt>
      <trkpt lat="48.9138" lon="2.05317">
        <ele>64.6</ele>
        <time>2022-04-05T08:45:48Z</time>
      </trkpt>
      <trkpt lat="48.91382" lon="2.05324">
        <ele>64.5</ele>
        <time>2022-04-05T08:45:51Z</time>
      </trkpt>
      <trkpt lat="48.91385" lon="2.0533">
        <ele>64.9</ele>
        <time>2022-04-05T08:45:55Z</time>
      </trkpt>
      <trkpt lat="48.91388" lon="2.05337">
        <ele>65</ele>
        <time>2022-04-05T08:45:59Z</time>
      </trkpt>
      <trkpt lat="48.91391" lon="2.05342">
        <ele>65.5</ele>
        <time>2022-04-05T08:46:03Z</time>
      </trkpt>
      <trkpt lat="48.91394" lon="2.0535">
        <ele>65.3</ele>
        <time>2022-04-05T08:46:08Z</time>
      </trkpt>
      <trkpt lat="48.91397" lon="2.05357">
        <ele>64.2</ele>
        <time>2022-04-05T08:46:11Z</time>
      </trkpt>
      <trkpt lat="48.91399" lon="2.05364">
        <ele>63.6</ele>
        <time>2022-04-05T08:46:15Z</time>
      </trkpt>
      <trkpt lat="48.91401" lon="2.05371">
        <ele>64.5</ele>
        <time>2022-04-05T08:46:19Z</time>
      </trkpt>
      <trkpt lat="48.91403" lon="2.05378">
        <ele>65.6</ele>
        <time>2022-04-05T08:46:23Z</time>
      </trkpt>
      <trkpt lat="48.91403" lon="2.05386">
        <ele>65.7</ele>
        <time>2022-04-05T08:46:27Z</time>
      </trkpt>
      <trkpt lat="48.91403" lon="2.05395">
        <ele>65</ele>
        <time>2022-04-05T08:46:31Z</time>
      </trkpt>
      <trkpt lat="48.91404" lon="2.05402">
        <ele>63.9</ele>
        <time>2022-04-05T08:46:34Z</time>
      </trkpt>
      <trkpt lat="48.91407" lon="2.0541">
        <ele>63.4</ele>
        <time>2022-04-05T08:46:38Z</time>
      </trkpt>
      <trkpt lat="48.91411" lon="2.05415">
        <ele>63.5</ele>
        <time>2022-04-05T08:46:42Z</time>
      </trkpt>
      <trkpt lat="48.91414" lon="2.05421">
        <ele>64.6</ele>
        <time>2022-04-05T08:46:46Z</time>
      </trkpt>
      <trkpt lat="48.91417" lon="2.05427">
        <ele>65.9</ele>
        <time>2022-04-05T08:46:49Z</time>
      </trkpt>
      <trkpt lat="48.91419" lon="2.05433">
        <ele>66.9</ele>
        <time>2022-04-05T08:46:52Z</time>
      </trkpt>
      <trkpt lat="48.91422" lon="2.05441">
        <ele>67</ele>
        <time>2022-04-05T08:46:56Z</time>
      </trkpt>
      <trkpt lat="48.91426" lon="2.05447">
        <ele>66.9</ele>
        <time>2022-04-05T08:47:00Z</time>
      </trkpt>
      <trkpt lat="48.91428" lon="2.05452">
        <ele>66.7</ele>
        <time>2022-04-05T08:47:03Z</time>
      </trkpt>
      <trkpt lat="48.91431" lon="2.05459">
        <ele>67.1</ele>
        <time>2022-04-05T08:47:07Z</time>
      </trkpt>
      <trkpt lat="48.91433" lon="2.05466">
        <ele>67.9</ele>
        <time>2022-04-05T08:47:10Z</time>
      </trkpt>
      <trkpt lat="48.91436" lon="2.05472">
        <ele>68.5</ele>
        <time>2022-04-05T08:47:14Z</time>
      </trkpt>
      <trkpt lat="48.91439" lon="2.05478">
        <ele>68.9</ele>
        <time>2022-04-05T08:47:18Z</time>
      </trkpt>
      <trkpt lat="48.91443" lon="2.05483">
        <ele>69.5</ele>
        <time>2022-04-05T08:47:22Z</time>
      </trkpt>
      <trkpt lat="48.91447" lon="2.05489">
        <ele>71.2</ele>
        <time>2022-04-05T08:47:26Z</time>
      </trkpt>
      <trkpt lat="48.9145" lon="2.05495">
        <ele>72.2</ele>
        <time>2022-04-05T08:47:29Z</time>
      </trkpt>
      <trkpt lat="48.91454" lon="2.05501">
        <ele>72.1</ele>
        <time>2022-04-05T08:47:33Z</time>
      </trkpt>
      <trkpt lat="48.91456" lon="2.05507">
        <ele>71.6</ele>
        <time>2022-04-05T08:47:37Z</time>
      </trkpt>
      <trkpt lat="48.91458" lon="2.05515">
        <ele>70.3</ele>
        <time>2022-04-05T08:47:41Z</time>
      </trkpt>
      <trkpt lat="48.9146" lon="2.05523">
        <ele>68.6</ele>
        <time>2022-04-05T08:47:44Z</time>
      </trkpt>
      <trkpt lat="48.91462" lon="2.0553">
        <ele>68</ele>
        <time>2022-04-05T08:47:48Z</time>
      </trkpt>
      <trkpt lat="48.91465" lon="2.05536">
        <ele>67.6</ele>
        <time>2022-04-05T08:47:52Z</time>
      </trkpt>
      <trkpt lat="48.91468" lon="2.05542">
        <ele>66.8</ele>
        <time>2022-04-05T08:47:55Z</time>
      </trkpt>
      <trkpt lat="48.9147" lon="2.05549">
        <ele>65.7</ele>
        <time>2022-04-05T08:47:58Z</time>
      </trkpt>
      <trkpt lat="48.91472" lon="2.05556">
        <ele>64.9</ele>
        <time>2022-04-05T08:48:02Z</time>
      </trkpt>
      <trkpt lat="48.91475" lon="2.05562">
        <ele>64.2</ele>
        <time>2022-04-05T08:48:06Z</time>
      </trkpt>
      <trkpt lat="48.91478" lon="2.05569">
        <ele>64.6</ele>
        <time>2022-04-05T08:48:09Z</time>
      </trkpt>
      <trkpt lat="48.91481" lon="2.05575">
        <ele>64.5</ele>
        <time>2022-04-05T08:48:13Z</time>
      </trkpt>
      <trkpt lat="48.91484" lon="2.05581">
        <ele>64.8</ele>
        <time>2022-04-05T08:48:17Z</time>
      </trkpt>
      <trkpt lat="48.91487" lon="2.05586">
        <ele>63.2</ele>
        <time>2022-04-05T08:48:21Z</time>
      </trkpt>
      <trkpt lat="48.9149" lon="2.05593">
        <ele>62.2</ele>
        <time>2022-04-05T08:48:25Z</time>
      </trkpt>
      <trkpt lat="48.91493" lon="2.05599">
        <ele>62.3</ele>
        <time>2022-04-05T08:48:29Z</time>
      </trkpt>
      <trkpt lat="48.91493" lon="2.05607">
        <ele>62.4</ele>
        <time>2022-04-05T08:48:35Z</time>
      </trkpt>
      <trkpt lat="48.91488" lon="2.05605">
        <ele>60.8</ele>
        <time>2022-04-05T08:49:07Z</time>
      </trkpt>
      <trkpt lat="48.91484" lon="2.05606">
        <ele>61.6</ele>
        <time>2022-04-05T08:49:24Z</time>
      </trkpt>
      <trkpt lat="48.91478" lon="2.05609">
        <ele>62</ele>
        <time>2022-04-05T08:49:28Z</time>
      </trkpt>
      <trkpt lat="48.91475" lon="2.05614">
        <ele>62.5</ele>
        <time>2022-04-05T08:49:32Z</time>
      </trkpt>
      <trkpt lat="48.91471" lon="2.0562">
        <ele>63.2</ele>
        <time>2022-04-05T08:49:36Z</time>
      </trkpt>
      <trkpt lat="48.91468" lon="2.05625">
        <ele>63.5</ele>
        <time>2022-04-05T08:49:40Z</time>
      </trkpt>
      <trkpt lat="48.91465" lon="2.05631">
        <ele>63.4</ele>
        <time>2022-04-05T08:49:44Z</time>
      </trkpt>
      <trkpt lat="48.91462" lon="2.05637">
        <ele>63.2</ele>
        <time>2022-04-05T08:49:48Z</time>
      </trkpt>
      <trkpt lat="48.91458" lon="2.05642">
        <ele>62.5</ele>
        <time>2022-04-05T08:49:52Z</time>
      </trkpt>
      <trkpt lat="48.91455" lon="2.05648">
        <ele>61</ele>
        <time>2022-04-05T08:49:57Z</time>
      </trkpt>
      <trkpt lat="48.91451" lon="2.05655">
        <ele>58.9</ele>
        <time>2022-04-05T08:50:01Z</time>
      </trkpt>
      <trkpt lat="48.91448" lon="2.0566">
        <ele>57.6</ele>
        <time>2022-04-05T08:50:05Z</time>
      </trkpt>
      <trkpt lat="48.91444" lon="2.05665">
        <ele>57.2</ele>
        <time>2022-04-05T08:50:08Z</time>
      </trkpt>
      <trkpt lat="48.9144" lon="2.0567">
        <ele>57.6</ele>
        <time>2022-04-05T08:50:12Z</time>
      </trkpt>
      <trkpt lat="48.91437" lon="2.05675">
        <ele>57.7</ele>
        <time>2022-04-05T08:50:16Z</time>
      </trkpt>
      <trkpt lat="48.91433" lon="2.0568">
        <ele>58</ele>
        <time>2022-04-05T08:50:19Z</time>
      </trkpt>
      <trkpt lat="48.91429" lon="2.05686">
        <ele>58.9</ele>
        <time>2022-04-05T08:50:24Z</time>
      </trkpt>
      <trkpt lat="48.91426" lon="2.0569">
        <ele>59.9</ele>
        <time>2022-04-05T08:50:27Z</time>
      </trkpt>
      <trkpt lat="48.91422" lon="2.05697">
        <ele>60.5</ele>
        <time>2022-04-05T08:50:31Z</time>
      </trkpt>
      <trkpt lat="48.91419" lon="2.05703">
        <ele>60.6</ele>
        <time>2022-04-05T08:50:35Z</time>
      </trkpt>
      <trkpt lat="48.91415" lon="2.0571">
        <ele>61.7</ele>
        <time>2022-04-05T08:50:40Z</time>
      </trkpt>
      <trkpt lat="48.91411" lon="2.05716">
        <ele>63.1</ele>
        <time>2022-04-05T08:50:43Z</time>
      </trkpt>
      <trkpt lat="48.91408" lon="2.05721">
        <ele>64.2</ele>
        <time>2022-04-05T08:50:47Z</time>
      </trkpt>
      <trkpt lat="48.91405" lon="2.05727">
        <ele>64.7</ele>
        <time>2022-04-05T08:50:50Z</time>
      </trkpt>
      <trkpt lat="48.91403" lon="2.05733">
        <ele>65.3</ele>
        <time>2022-04-05T08:50:54Z</time>
      </trkpt>
      <trkpt lat="48.91399" lon="2.05739">
        <ele>65.7</ele>
        <time>2022-04-05T08:50:58Z</time>
      </trkpt>
      <trkpt lat="48.91397" lon="2.05745">
        <ele>65.7</ele>
        <time>2022-04-05T08:51:01Z</time>
      </trkpt>
      <trkpt lat="48.91394" lon="2.0575">
        <ele>65.7</ele>
        <time>2022-04-05T08:51:05Z</time>
      </trkpt>
      <trkpt lat="48.9139" lon="2.05755">
        <ele>65.4</ele>
        <time>2022-04-05T08:51:09Z</time>
      </trkpt>
      <trkpt lat="48.91387" lon="2.0576">
        <ele>64.8</ele>
        <time>2022-04-05T08:51:12Z</time>
      </trkpt>
      <trkpt lat="48.91382" lon="2.05764">
        <ele>63.9</ele>
        <time>2022-04-05T08:51:16Z</time>
      </trkpt>
      <trkpt lat="48.91379" lon="2.0577">
        <ele>63.5</ele>
        <time>2022-04-05T08:51:20Z</time>
      </trkpt>
      <trkpt lat="48.91375" lon="2.05777">
        <ele>64.6</ele>
        <time>2022-04-05T08:51:25Z</time>
      </trkpt>
      <trkpt lat="48.91371" lon="2.05784">
        <ele>65.1</ele>
        <time>2022-04-05T08:51:30Z</time>
      </trkpt>
      <trkpt lat="48.91367" lon="2.0579">
        <ele>64.9</ele>
        <time>2022-04-05T08:51:33Z</time>
      </trkpt>
      <trkpt lat="48.91364" lon="2.05796">
        <ele>63.9</ele>
        <time>2022-04-05T08:51:37Z</time>
      </trkpt>
      <trkpt lat="48.91362" lon="2.05802">
        <ele>63.6</ele>
        <time>2022-04-05T08:51:41Z</time>
      </trkpt>
      <trkpt lat="48.91359" lon="2.05809">
        <ele>64.8</ele>
        <time>2022-04-05T08:51:45Z</time>
      </trkpt>
      <trkpt lat="48.91356" lon="2.05813">
        <ele>65.8</ele>
        <time>2022-04-05T08:51:49Z</time>
      </trkpt>
      <trkpt lat="48.91352" lon="2.05818">
        <ele>67.1</ele>
        <time>2022-04-05T08:51:52Z</time>
      </trkpt>
      <trkpt lat="48.91348" lon="2.05822">
        <ele>68.4</ele>
        <time>2022-04-05T08:51:56Z</time>
      </trkpt>
      <trkpt lat="48.91344" lon="2.05829">
        <ele>69.5</ele>
        <time>2022-04-05T08:51:59Z</time>
      </trkpt>
      <trkpt lat="48.91341" lon="2.05835">
        <ele>69.2</ele>
        <time>2022-04-05T08:52:03Z</time>
      </trkpt>
      <trkpt lat="48.91336" lon="2.0584">
        <ele>68.6</ele>
        <time>2022-04-05T08:52:07Z</time>
      </trkpt>
      <trkpt lat="48.91332" lon="2.05845">
        <ele>67.4</ele>
        <time>2022-04-05T08:52:11Z</time>
      </trkpt>
      <trkpt lat="48.91328" lon="2.05851">
        <ele>66.2</ele>
        <time>2022-04-05T08:52:16Z</time>
      </trkpt>
      <trkpt lat="48.91325" lon="2.05859">
        <ele>66.1</ele>
        <time>2022-04-05T08:52:21Z</time>
      </trkpt>
      <trkpt lat="48.91322" lon="2.05866">
        <ele>67.6</ele>
        <time>2022-04-05T08:52:24Z</time>
      </trkpt>
      <trkpt lat="48.91319" lon="2.05873">
        <ele>69.5</ele>
        <time>2022-04-05T08:52:28Z</time>
      </trkpt>
      <trkpt lat="48.91316" lon="2.05879">
        <ele>70.9</ele>
        <time>2022-04-05T08:52:32Z</time>
      </trkpt>
      <trkpt lat="48.91312" lon="2.05885">
        <ele>71.9</ele>
        <time>2022-04-05T08:52:36Z</time>
      </trkpt>
      <trkpt lat="48.91308" lon="2.0589">
        <ele>72.1</ele>
        <time>2022-04-05T08:52:40Z</time>
      </trkpt>
      <trkpt lat="48.91303" lon="2.05895">
        <ele>71.6</ele>
        <time>2022-04-05T08:52:45Z</time>
      </trkpt>
      <trkpt lat="48.913" lon="2.05903">
        <ele>70.5</ele>
        <time>2022-04-05T08:52:50Z</time>
      </trkpt>
      <trkpt lat="48.913" lon="2.05911">
        <ele>68.6</ele>
        <time>2022-04-05T08:52:54Z</time>
      </trkpt>
      <trkpt lat="48.91303" lon="2.05918">
        <ele>66.9</ele>
        <time>2022-04-05T08:52:57Z</time>
      </trkpt>
      <trkpt lat="48.91306" lon="2.05925">
        <ele>65.7</ele>
        <time>2022-04-05T08:53:01Z</time>
      </trkpt>
      <trkpt lat="48.91308" lon="2.05931">
        <ele>64.5</ele>
        <time>2022-04-05T08:53:04Z</time>
      </trkpt>
      <trkpt lat="48.91311" lon="2.05938">
        <ele>63.7</ele>
        <time>2022-04-05T08:53:07Z</time>
      </trkpt>
      <trkpt lat="48.91315" lon="2.05944">
        <ele>63.3</ele>
        <time>2022-04-05T08:53:11Z</time>
      </trkpt>
      <trkpt lat="48.91319" lon="2.0595">
        <ele>63.8</ele>
        <time>2022-04-05T08:53:14Z</time>
      </trkpt>
      <trkpt lat="48.91322" lon="2.05958">
        <ele>63.7</ele>
        <time>2022-04-05T08:53:18Z</time>
      </trkpt>
      <trkpt lat="48.91324" lon="2.05966">
        <ele>63.5</ele>
        <time>2022-04-05T08:53:22Z</time>
      </trkpt>
      <trkpt lat="48.91326" lon="2.05974">
        <ele>63.4</ele>
        <time>2022-04-05T08:53:26Z</time>
      </trkpt>
      <trkpt lat="48.91329" lon="2.05983">
        <ele>64.1</ele>
        <time>2022-04-05T08:53:30Z</time>
      </trkpt>
      <trkpt lat="48.91332" lon="2.05991">
        <ele>64.5</ele>
        <time>2022-04-05T08:53:35Z</time>
      </trkpt>
      <trkpt lat="48.91334" lon="2.05998">
        <ele>64.4</ele>
        <time>2022-04-05T08:53:38Z</time>
      </trkpt>
      <trkpt lat="48.91336" lon="2.06006">
        <ele>63.8</ele>
        <time>2022-04-05T08:53:42Z</time>
      </trkpt>
      <trkpt lat="48.91338" lon="2.06012">
        <ele>63.7</ele>
        <time>2022-04-05T08:53:46Z</time>
      </trkpt>
      <trkpt lat="48.91341" lon="2.06018">
        <ele>63.9</ele>
        <time>2022-04-05T08:53:50Z</time>
      </trkpt>
      <trkpt lat="48.91346" lon="2.06022">
        <ele>64.7</ele>
        <time>2022-04-05T08:53:54Z</time>
      </trkpt>
      <trkpt lat="48.9135" lon="2.0602">
        <ele>66.4</ele>
        <time>2022-04-05T08:53:58Z</time>
      </trkpt>
      <trkpt lat="48.91353" lon="2.06026">
        <ele>69</ele>
        <time>2022-04-05T08:54:02Z</time>
      </trkpt>
      <trkpt lat="48.91354" lon="2.06033">
        <ele>69.4</ele>
        <time>2022-04-05T08:54:04Z</time>
      </trkpt>
      <trkpt lat="48.91356" lon="2.06041">
        <ele>69.7</ele>
        <time>2022-04-05T08:54:08Z</time>
      </trkpt>
      <trkpt lat="48.91358" lon="2.06048">
        <ele>69.4</ele>
        <time>2022-04-05T08:54:12Z</time>
      </trkpt>
      <trkpt lat="48.9136" lon="2.06056">
        <ele>70</ele>
        <time>2022-04-05T08:54:16Z</time>
      </trkpt>
      <trkpt lat="48.91364" lon="2.06062">
        <ele>69.8</ele>
        <time>2022-04-05T08:54:20Z</time>
      </trkpt>
      <trkpt lat="48.91368" lon="2.06068">
        <ele>68.5</ele>
        <time>2022-04-05T08:54:24Z</time>
      </trkpt>
      <trkpt lat="48.91369" lon="2.06074">
        <ele>67.7</ele>
        <time>2022-04-05T08:54:28Z</time>
      </trkpt>
      <trkpt lat="48.9137" lon="2.06081">
        <ele>67.7</ele>
        <time>2022-04-05T08:54:31Z</time>
      </trkpt>
      <trkpt lat="48.91373" lon="2.06088">
        <ele>67.8</ele>
        <time>2022-04-05T08:54:36Z</time>
      </trkpt>
      <trkpt lat="48.91375" lon="2.06095">
        <ele>67.2</ele>
        <time>2022-04-05T08:54:40Z</time>
      </trkpt>
      <trkpt lat="48.91378" lon="2.06102">
        <ele>66.5</ele>
        <time>2022-04-05T08:54:44Z</time>
      </trkpt>
      <trkpt lat="48.91381" lon="2.06107">
        <ele>65.7</ele>
        <time>2022-04-05T08:54:48Z</time>
      </trkpt>
      <trkpt lat="48.91383" lon="2.06115">
        <ele>64.5</ele>
        <time>2022-04-05T08:54:53Z</time>
      </trkpt>
      <trkpt lat="48.91381" lon="2.06122">
        <ele>64.8</ele>
        <time>2022-04-05T08:54:57Z</time>
      </trkpt>
      <trkpt lat="48.91379" lon="2.06129">
        <ele>65.3</ele>
        <time>2022-04-05T08:55:02Z</time>
      </trkpt>
      <trkpt lat="48.91377" lon="2.06137">
        <ele>64.9</ele>
        <time>2022-04-05T08:55:06Z</time>
      </trkpt>
      <trkpt lat="48.91371" lon="2.06138">
        <ele>64.1</ele>
        <time>2022-04-05T08:55:10Z</time>
      </trkpt>
      <trkpt lat="48.91369" lon="2.06132">
        <ele>61.3</ele>
        <time>2022-04-05T08:55:15Z</time>
      </trkpt>
      <trkpt lat="48.91364" lon="2.06131">
        <ele>58.1</ele>
        <time>2022-04-05T08:55:31Z</time>
      </trkpt>
      <trkpt lat="48.91359" lon="2.06127">
        <ele>55.8</ele>
        <time>2022-04-05T08:55:45Z</time>
      </trkpt>
      <trkpt lat="48.91355" lon="2.06129">
        <ele>56.1</ele>
        <time>2022-04-05T08:55:49Z</time>
      </trkpt>
      <trkpt lat="48.91349" lon="2.06132">
        <ele>67.5</ele>
        <time>2022-04-05T08:56:10Z</time>
      </trkpt>
      <trkpt lat="48.91344" lon="2.06135">
        <ele>68.1</ele>
        <time>2022-04-05T08:56:13Z</time>
      </trkpt>
      <trkpt lat="48.91339" lon="2.06138">
        <ele>68.6</ele>
        <time>2022-04-05T08:56:16Z</time>
      </trkpt>
      <trkpt lat="48.91333" lon="2.06142">
        <ele>69.1</ele>
        <time>2022-04-05T08:56:19Z</time>
      </trkpt>
      <trkpt lat="48.91328" lon="2.06145">
        <ele>70.7</ele>
        <time>2022-04-05T08:56:22Z</time>
      </trkpt>
      <trkpt lat="48.91323" lon="2.0615">
        <ele>73.1</ele>
        <time>2022-04-05T08:56:25Z</time>
      </trkpt>
      <trkpt lat="48.91319" lon="2.06154">
        <ele>75.5</ele>
        <time>2022-04-05T08:56:28Z</time>
      </trkpt>
      <trkpt lat="48.91315" lon="2.06159">
        <ele>77.5</ele>
        <time>2022-04-05T08:56:32Z</time>
      </trkpt>
      <trkpt lat="48.9131" lon="2.06161">
        <ele>78.4</ele>
        <time>2022-04-05T08:56:36Z</time>
      </trkpt>
      <trkpt lat="48.91305" lon="2.06162">
        <ele>79</ele>
        <time>2022-04-05T08:56:40Z</time>
      </trkpt>
      <trkpt lat="48.91301" lon="2.06163">
        <ele>78.2</ele>
        <time>2022-04-05T08:56:43Z</time>
      </trkpt>
      <trkpt lat="48.91296" lon="2.06164">
        <ele>76.8</ele>
        <time>2022-04-05T08:56:46Z</time>
      </trkpt>
      <trkpt lat="48.91291" lon="2.06165">
        <ele>75</ele>
        <time>2022-04-05T08:56:49Z</time>
      </trkpt>
      <trkpt lat="48.91286" lon="2.06167">
        <ele>73.3</ele>
        <time>2022-04-05T08:56:52Z</time>
      </trkpt>
      <trkpt lat="48.91282" lon="2.06169">
        <ele>72.1</ele>
        <time>2022-04-05T08:56:55Z</time>
      </trkpt>
      <trkpt lat="48.91277" lon="2.06172">
        <ele>71.4</ele>
        <time>2022-04-05T08:56:58Z</time>
      </trkpt>
      <trkpt lat="48.91273" lon="2.06176">
        <ele>71.1</ele>
        <time>2022-04-05T08:57:02Z</time>
      </trkpt>
      <trkpt lat="48.91269" lon="2.0618">
        <ele>70.9</ele>
        <time>2022-04-05T08:57:06Z</time>
      </trkpt>
      <trkpt lat="48.91265" lon="2.06184">
        <ele>69.6</ele>
        <time>2022-04-05T08:57:09Z</time>
      </trkpt>
      <trkpt lat="48.91261" lon="2.06188">
        <ele>69.3</ele>
        <time>2022-04-05T08:57:13Z</time>
      </trkpt>
      <trkpt lat="48.91257" lon="2.06191">
        <ele>70.4</ele>
        <time>2022-04-05T08:57:17Z</time>
      </trkpt>
      <trkpt lat="48.91252" lon="2.06194">
        <ele>71.4</ele>
        <time>2022-04-05T08:57:21Z</time>
      </trkpt>
      <trkpt lat="48.91246" lon="2.06198">
        <ele>72</ele>
        <time>2022-04-05T08:57:26Z</time>
      </trkpt>
      <trkpt lat="48.91242" lon="2.06201">
        <ele>72.5</ele>
        <time>2022-04-05T08:57:30Z</time>
      </trkpt>
      <trkpt lat="48.91236" lon="2.06203">
        <ele>72.8</ele>
        <time>2022-04-05T08:57:34Z</time>
      </trkpt>
      <trkpt lat="48.91231" lon="2.06205">
        <ele>73</ele>
        <time>2022-04-05T08:57:38Z</time>
      </trkpt>
      <trkpt lat="48.91227" lon="2.06208">
        <ele>73.1</ele>
        <time>2022-04-05T08:57:42Z</time>
      </trkpt>
      <trkpt lat="48.91221" lon="2.06214">
        <ele>72.7</ele>
        <time>2022-04-05T08:57:46Z</time>
      </trkpt>
      <trkpt lat="48.91216" lon="2.06218">
        <ele>71.9</ele>
        <time>2022-04-05T08:57:51Z</time>
      </trkpt>
      <trkpt lat="48.91211" lon="2.06221">
        <ele>71.7</ele>
        <time>2022-04-05T08:57:55Z</time>
      </trkpt>
      <trkpt lat="48.91207" lon="2.06224">
        <ele>71.3</ele>
        <time>2022-04-05T08:57:57Z</time>
      </trkpt>
      <trkpt lat="48.91202" lon="2.06226">
        <ele>72.1</ele>
        <time>2022-04-05T08:58:01Z</time>
      </trkpt>
      <trkpt lat="48.91197" lon="2.06229">
        <ele>73.3</ele>
        <time>2022-04-05T08:58:05Z</time>
      </trkpt>
      <trkpt lat="48.91192" lon="2.06231">
        <ele>74.1</ele>
        <time>2022-04-05T08:58:10Z</time>
      </trkpt>
      <trkpt lat="48.91187" lon="2.06231">
        <ele>72.7</ele>
        <time>2022-04-05T08:58:14Z</time>
      </trkpt>
      <trkpt lat="48.91182" lon="2.06232">
        <ele>71.4</ele>
        <time>2022-04-05T08:58:19Z</time>
      </trkpt>
      <trkpt lat="48.91176" lon="2.06235">
        <ele>71.6</ele>
        <time>2022-04-05T08:58:24Z</time>
      </trkpt>
      <trkpt lat="48.91172" lon="2.06237">
        <ele>71.6</ele>
        <time>2022-04-05T08:58:27Z</time>
      </trkpt>
      <trkpt lat="48.91168" lon="2.06231">
        <ele>71.3</ele>
        <time>2022-04-05T08:58:32Z</time>
      </trkpt>
      <trkpt lat="48.91166" lon="2.06222">
        <ele>70.2</ele>
        <time>2022-04-05T08:58:36Z</time>
      </trkpt>
      <trkpt lat="48.91165" lon="2.06215">
        <ele>67.3</ele>
        <time>2022-04-05T08:58:42Z</time>
      </trkpt>
      <trkpt lat="48.91163" lon="2.06209">
        <ele>65.4</ele>
        <time>2022-04-05T08:58:45Z</time>
      </trkpt>
      <trkpt lat="48.9116" lon="2.06202">
        <ele>64.1</ele>
        <time>2022-04-05T08:58:49Z</time>
      </trkpt>
      <trkpt lat="48.91156" lon="2.06197">
        <ele>63.2</ele>
        <time>2022-04-05T08:58:52Z</time>
      </trkpt>
      <trkpt lat="48.91154" lon="2.06191">
        <ele>63.1</ele>
        <time>2022-04-05T08:58:55Z</time>
      </trkpt>
      <trkpt lat="48.9115" lon="2.06185">
        <ele>62.8</ele>
        <time>2022-04-05T08:58:59Z</time>
      </trkpt>
      <trkpt lat="48.91146" lon="2.06179">
        <ele>63.7</ele>
        <time>2022-04-05T08:59:04Z</time>
      </trkpt>
      <trkpt lat="48.91144" lon="2.06171">
        <ele>65.3</ele>
        <time>2022-04-05T08:59:09Z</time>
      </trkpt>
      <trkpt lat="48.91142" lon="2.06165">
        <ele>65.9</ele>
        <time>2022-04-05T08:59:13Z</time>
      </trkpt>
      <trkpt lat="48.91139" lon="2.06158">
        <ele>65.9</ele>
        <time>2022-04-05T08:59:17Z</time>
      </trkpt>
      <trkpt lat="48.91136" lon="2.06152">
        <ele>65</ele>
        <time>2022-04-05T08:59:20Z</time>
      </trkpt>
      <trkpt lat="48.91134" lon="2.06145">
        <ele>64.2</ele>
        <time>2022-04-05T08:59:24Z</time>
      </trkpt>
      <trkpt lat="48.91131" lon="2.06139">
        <ele>63.4</ele>
        <time>2022-04-05T08:59:28Z</time>
      </trkpt>
      <trkpt lat="48.91128" lon="2.06132">
        <ele>62.5</ele>
        <time>2022-04-05T08:59:32Z</time>
      </trkpt>
      <trkpt lat="48.91124" lon="2.06127">
        <ele>62.2</ele>
        <time>2022-04-05T08:59:36Z</time>
      </trkpt>
      <trkpt lat="48.91121" lon="2.06122">
        <ele>62.8</ele>
        <time>2022-04-05T08:59:40Z</time>
      </trkpt>
      <trkpt lat="48.91118" lon="2.06116">
        <ele>63.1</ele>
        <time>2022-04-05T08:59:44Z</time>
      </trkpt>
      <trkpt lat="48.91114" lon="2.06109">
        <ele>63.3</ele>
        <time>2022-04-05T08:59:48Z</time>
      </trkpt>
      <trkpt lat="48.91111" lon="2.06103">
        <ele>64.5</ele>
        <time>2022-04-05T08:59:52Z</time>
      </trkpt>
      <trkpt lat="48.91109" lon="2.06096">
        <ele>67.7</ele>
        <time>2022-04-05T08:59:56Z</time>
      </trkpt>
      <trkpt lat="48.91107" lon="2.0609">
        <ele>70</ele>
        <time>2022-04-05T09:00:00Z</time>
      </trkpt>
      <trkpt lat="48.91104" lon="2.06084">
        <ele>71.5</ele>
        <time>2022-04-05T09:00:03Z</time>
      </trkpt>
      <trkpt lat="48.91101" lon="2.06079">
        <ele>71.8</ele>
        <time>2022-04-05T09:00:07Z</time>
      </trkpt>
      <trkpt lat="48.91097" lon="2.06073">
        <ele>71.1</ele>
        <time>2022-04-05T09:00:11Z</time>
      </trkpt>
      <trkpt lat="48.91094" lon="2.06067">
        <ele>70.3</ele>
        <time>2022-04-05T09:00:15Z</time>
      </trkpt>
      <trkpt lat="48.91092" lon="2.0606">
        <ele>70.6</ele>
        <time>2022-04-05T09:00:19Z</time>
      </trkpt>
      <trkpt lat="48.91089" lon="2.06055">
        <ele>71.4</ele>
        <time>2022-04-05T09:00:23Z</time>
      </trkpt>
      <trkpt lat="48.91086" lon="2.06048">
        <ele>72.2</ele>
        <time>2022-04-05T09:00:27Z</time>
      </trkpt>
      <trkpt lat="48.91083" lon="2.06042">
        <ele>70.7</ele>
        <time>2022-04-05T09:00:32Z</time>
      </trkpt>
      <trkpt lat="48.9108" lon="2.06036">
        <ele>69.1</ele>
        <time>2022-04-05T09:00:37Z</time>
      </trkpt>
      <trkpt lat="48.91078" lon="2.06029">
        <ele>69.6</ele>
        <time>2022-04-05T09:00:41Z</time>
      </trkpt>
      <trkpt lat="48.91076" lon="2.06023">
        <ele>71.3</ele>
        <time>2022-04-05T09:00:45Z</time>
      </trkpt>
      <trkpt lat="48.91073" lon="2.06016">
        <ele>73</ele>
        <time>2022-04-05T09:00:49Z</time>
      </trkpt>
      <trkpt lat="48.91071" lon="2.06009">
        <ele>74</ele>
        <time>2022-04-05T09:00:52Z</time>
      </trkpt>
      <trkpt lat="48.91068" lon="2.06002">
        <ele>74</ele>
        <time>2022-04-05T09:00:56Z</time>
      </trkpt>
      <trkpt lat="48.91065" lon="2.05996">
        <ele>72.7</ele>
        <time>2022-04-05T09:01:00Z</time>
      </trkpt>
      <trkpt lat="48.91061" lon="2.0599">
        <ele>71.8</ele>
        <time>2022-04-05T09:01:04Z</time>
      </trkpt>
      <trkpt lat="48.91058" lon="2.05985">
        <ele>71.5</ele>
        <time>2022-04-05T09:01:08Z</time>
      </trkpt>
      <trkpt lat="48.91054" lon="2.05978">
        <ele>72.5</ele>
        <time>2022-04-05T09:01:13Z</time>
      </trkpt>
      <trkpt lat="48.91052" lon="2.05971">
        <ele>73.3</ele>
        <time>2022-04-05T09:01:16Z</time>
      </trkpt>
      <trkpt lat="48.9105" lon="2.05964">
        <ele>73.5</ele>
        <time>2022-04-05T09:01:21Z</time>
      </trkpt>
      <trkpt lat="48.91047" lon="2.05957">
        <ele>72.4</ele>
        <time>2022-04-05T09:01:25Z</time>
      </trkpt>
      <trkpt lat="48.91043" lon="2.05951">
        <ele>72.1</ele>
        <time>2022-04-05T09:01:28Z</time>
      </trkpt>
      <trkpt lat="48.91039" lon="2.05946">
        <ele>72.1</ele>
        <time>2022-04-05T09:01:32Z</time>
      </trkpt>
      <trkpt lat="48.91035" lon="2.0594">
        <ele>72.7</ele>
        <time>2022-04-05T09:01:36Z</time>
      </trkpt>
      <trkpt lat="48.91032" lon="2.05933">
        <ele>74.7</ele>
        <time>2022-04-05T09:01:41Z</time>
      </trkpt>
      <trkpt lat="48.9103" lon="2.05927">
        <ele>76.6</ele>
        <time>2022-04-05T09:01:44Z</time>
      </trkpt>
      <trkpt lat="48.91028" lon="2.0592">
        <ele>77.4</ele>
        <time>2022-04-05T09:01:48Z</time>
      </trkpt>
      <trkpt lat="48.91025" lon="2.05913">
        <ele>77</ele>
        <time>2022-04-05T09:01:52Z</time>
      </trkpt>
      <trkpt lat="48.91021" lon="2.05908">
        <ele>75.5</ele>
        <time>2022-04-05T09:01:55Z</time>
      </trkpt>
      <trkpt lat="48.91017" lon="2.05903">
        <ele>74.3</ele>
        <time>2022-04-05T09:01:59Z</time>
      </trkpt>
      <trkpt lat="48.91013" lon="2.05897">
        <ele>73.8</ele>
        <time>2022-04-05T09:02:03Z</time>
      </trkpt>
      <trkpt lat="48.9101" lon="2.05891">
        <ele>75.5</ele>
        <time>2022-04-05T09:02:07Z</time>
      </trkpt>
      <trkpt lat="48.91007" lon="2.05884">
        <ele>77.2</ele>
        <time>2022-04-05T09:02:11Z</time>
      </trkpt>
      <trkpt lat="48.91005" lon="2.05878">
        <ele>77.4</ele>
        <time>2022-04-05T09:02:15Z</time>
      </trkpt>
      <trkpt lat="48.91002" lon="2.05871">
        <ele>76.7</ele>
        <time>2022-04-05T09:02:19Z</time>
      </trkpt>
      <trkpt lat="48.90998" lon="2.05863">
        <ele>75.9</ele>
        <time>2022-04-05T09:02:23Z</time>
      </trkpt>
      <trkpt lat="48.90995" lon="2.05857">
        <ele>73.8</ele>
        <time>2022-04-05T09:02:26Z</time>
      </trkpt>
      <trkpt lat="48.90992" lon="2.0585">
        <ele>72.1</ele>
        <time>2022-04-05T09:02:30Z</time>
      </trkpt>
      <trkpt lat="48.90988" lon="2.05844">
        <ele>72.1</ele>
        <time>2022-04-05T09:02:34Z</time>
      </trkpt>
      <trkpt lat="48.90985" lon="2.05839">
        <ele>72.8</ele>
        <time>2022-04-05T09:02:38Z</time>
      </trkpt>
      <trkpt lat="48.90982" lon="2.05832">
        <ele>72.5</ele>
        <time>2022-04-05T09:02:43Z</time>
      </trkpt>
      <trkpt lat="48.9098" lon="2.05824">
        <ele>71.9</ele>
        <time>2022-04-05T09:02:47Z</time>
      </trkpt>
      <trkpt lat="48.90978" lon="2.05816">
        <ele>71.2</ele>
        <time>2022-04-05T09:02:51Z</time>
      </trkpt>
      <trkpt lat="48.90975" lon="2.05809">
        <ele>70.1</ele>
        <time>2022-04-05T09:02:55Z</time>
      </trkpt>
      <trkpt lat="48.90972" lon="2.05802">
        <ele>69.7</ele>
        <time>2022-04-05T09:02:59Z</time>
      </trkpt>
      <trkpt lat="48.90969" lon="2.05796">
        <ele>70.3</ele>
        <time>2022-04-05T09:03:03Z</time>
      </trkpt>
      <trkpt lat="48.90966" lon="2.0579">
        <ele>70.5</ele>
        <time>2022-04-05T09:03:07Z</time>
      </trkpt>
      <trkpt lat="48.90962" lon="2.05784">
        <ele>69.6</ele>
        <time>2022-04-05T09:03:11Z</time>
      </trkpt>
      <trkpt lat="48.90958" lon="2.05779">
        <ele>68.6</ele>
        <time>2022-04-05T09:03:15Z</time>
      </trkpt>
      <trkpt lat="48.90954" lon="2.05774">
        <ele>68.2</ele>
        <time>2022-04-05T09:03:20Z</time>
      </trkpt>
      <trkpt lat="48.90951" lon="2.05768">
        <ele>68.1</ele>
        <time>2022-04-05T09:03:24Z</time>
      </trkpt>
      <trkpt lat="48.90948" lon="2.05763">
        <ele>67.9</ele>
        <time>2022-04-05T09:03:28Z</time>
      </trkpt>
      <trkpt lat="48.90945" lon="2.05757">
        <ele>67.6</ele>
        <time>2022-04-05T09:03:31Z</time>
      </trkpt>
      <trkpt lat="48.90942" lon="2.0575">
        <ele>66.3</ele>
        <time>2022-04-05T09:03:35Z</time>
      </trkpt>
      <trkpt lat="48.9094" lon="2.05744">
        <ele>65.3</ele>
        <time>2022-04-05T09:03:39Z</time>
      </trkpt>
      <trkpt lat="48.90937" lon="2.05737">
        <ele>64.6</ele>
        <time>2022-04-05T09:03:43Z</time>
      </trkpt>
      <trkpt lat="48.90934" lon="2.0573">
        <ele>64.8</ele>
        <time>2022-04-05T09:03:48Z</time>
      </trkpt>
      <trkpt lat="48.90931" lon="2.05724">
        <ele>65</ele>
        <time>2022-04-05T09:03:52Z</time>
      </trkpt>
      <trkpt lat="48.90928" lon="2.05718">
        <ele>66</ele>
        <time>2022-04-05T09:03:55Z</time>
      </trkpt>
      <trkpt lat="48.90925" lon="2.05712">
        <ele>65.8</ele>
        <time>2022-04-05T09:03:59Z</time>
      </trkpt>
      <trkpt lat="48.90922" lon="2.05706">
        <ele>65.8</ele>
        <time>2022-04-05T09:04:03Z</time>
      </trkpt>
      <trkpt lat="48.90918" lon="2.05701">
        <ele>65.9</ele>
        <time>2022-04-05T09:04:07Z</time>
      </trkpt>
      <trkpt lat="48.90914" lon="2.05695">
        <ele>67.3</ele>
        <time>2022-04-05T09:04:11Z</time>
      </trkpt>
      <trkpt lat="48.90909" lon="2.05689">
        <ele>68</ele>
        <time>2022-04-05T09:04:16Z</time>
      </trkpt>
      <trkpt lat="48.90907" lon="2.05682">
        <ele>68.2</ele>
        <time>2022-04-05T09:04:20Z</time>
      </trkpt>
      <trkpt lat="48.90903" lon="2.05676">
        <ele>67.1</ele>
        <time>2022-04-05T09:04:24Z</time>
      </trkpt>
      <trkpt lat="48.909" lon="2.05669">
        <ele>65.6</ele>
        <time>2022-04-05T09:04:27Z</time>
      </trkpt>
      <trkpt lat="48.90898" lon="2.05663">
        <ele>66.1</ele>
        <time>2022-04-05T09:04:31Z</time>
      </trkpt>
      <trkpt lat="48.90895" lon="2.05657">
        <ele>67.1</ele>
        <time>2022-04-05T09:04:36Z</time>
      </trkpt>
      <trkpt lat="48.90892" lon="2.0565">
        <ele>66.3</ele>
        <time>2022-04-05T09:04:39Z</time>
      </trkpt>
      <trkpt lat="48.90889" lon="2.05644">
        <ele>65.5</ele>
        <time>2022-04-05T09:04:43Z</time>
      </trkpt>
      <trkpt lat="48.90887" lon="2.05638">
        <ele>64.8</ele>
        <time>2022-04-05T09:04:47Z</time>
      </trkpt>
      <trkpt lat="48.90885" lon="2.0563">
        <ele>63.7</ele>
        <time>2022-04-05T09:04:51Z</time>
      </trkpt>
      <trkpt lat="48.90882" lon="2.05622">
        <ele>63.2</ele>
        <time>2022-04-05T09:04:56Z</time>
      </trkpt>
      <trkpt lat="48.90879" lon="2.05616">
        <ele>63.7</ele>
        <time>2022-04-05T09:05:00Z</time>
      </trkpt>
      <trkpt lat="48.90877" lon="2.05608">
        <ele>64.8</ele>
        <time>2022-04-05T09:05:05Z</time>
      </trkpt>
      <trkpt lat="48.90875" lon="2.05601">
        <ele>66.4</ele>
        <time>2022-04-05T09:05:08Z</time>
      </trkpt>
      <trkpt lat="48.90872" lon="2.05594">
        <ele>69.3</ele>
        <time>2022-04-05T09:05:12Z</time>
      </trkpt>
      <trkpt lat="48.90869" lon="2.05588">
        <ele>70.4</ele>
        <time>2022-04-05T09:05:16Z</time>
      </trkpt>
      <trkpt lat="48.90865" lon="2.05581">
        <ele>68.7</ele>
        <time>2022-04-05T09:05:21Z</time>
      </trkpt>
      <trkpt lat="48.90862" lon="2.05576">
        <ele>66.5</ele>
        <time>2022-04-05T09:05:24Z</time>
      </trkpt>
      <trkpt lat="48.90859" lon="2.05569">
        <ele>64.6</ele>
        <time>2022-04-05T09:05:29Z</time>
      </trkpt>
      <trkpt lat="48.90856" lon="2.05562">
        <ele>64.1</ele>
        <time>2022-04-05T09:05:32Z</time>
      </trkpt>
      <trkpt lat="48.90854" lon="2.05554">
        <ele>64.6</ele>
        <time>2022-04-05T09:05:36Z</time>
      </trkpt>
      <trkpt lat="48.90851" lon="2.05548">
        <ele>65.6</ele>
        <time>2022-04-05T09:05:40Z</time>
      </trkpt>
      <trkpt lat="48.90848" lon="2.05542">
        <ele>66.4</ele>
        <time>2022-04-05T09:05:43Z</time>
      </trkpt>
      <trkpt lat="48.90845" lon="2.05537">
        <ele>66.4</ele>
        <time>2022-04-05T09:05:47Z</time>
      </trkpt>
      <trkpt lat="48.90842" lon="2.05531">
        <ele>66.7</ele>
        <time>2022-04-05T09:05:50Z</time>
      </trkpt>
      <trkpt lat="48.90839" lon="2.05524">
        <ele>67.8</ele>
        <time>2022-04-05T09:05:54Z</time>
      </trkpt>
      <trkpt lat="48.90836" lon="2.05518">
        <ele>68.7</ele>
        <time>2022-04-05T09:05:58Z</time>
      </trkpt>
      <trkpt lat="48.90832" lon="2.05511">
        <ele>69</ele>
        <time>2022-04-05T09:06:03Z</time>
      </trkpt>
      <trkpt lat="48.90829" lon="2.05505">
        <ele>68.9</ele>
        <time>2022-04-05T09:06:07Z</time>
      </trkpt>
      <trkpt lat="48.90826" lon="2.055">
        <ele>69.1</ele>
        <time>2022-04-05T09:06:10Z</time>
      </trkpt>
      <trkpt lat="48.90822" lon="2.05493">
        <ele>68.8</ele>
        <time>2022-04-05T09:06:13Z</time>
      </trkpt>
      <trkpt lat="48.90819" lon="2.05487">
        <ele>68.3</ele>
        <time>2022-04-05T09:06:17Z</time>
      </trkpt>
      <trkpt lat="48.90816" lon="2.05481">
        <ele>67.9</ele>
        <time>2022-04-05T09:06:21Z</time>
      </trkpt>
      <trkpt lat="48.90813" lon="2.05474">
        <ele>67.1</ele>
        <time>2022-04-05T09:06:25Z</time>
      </trkpt>
      <trkpt lat="48.9081" lon="2.05467">
        <ele>66.7</ele>
        <time>2022-04-05T09:06:29Z</time>
      </trkpt>
      <trkpt lat="48.90806" lon="2.0546">
        <ele>66.5</ele>
        <time>2022-04-05T09:06:34Z</time>
      </trkpt>
      <trkpt lat="48.90803" lon="2.05454">
        <ele>67.2</ele>
        <time>2022-04-05T09:06:37Z</time>
      </trkpt>
      <trkpt lat="48.908" lon="2.05447">
        <ele>67.7</ele>
        <time>2022-04-05T09:06:42Z</time>
      </trkpt>
      <trkpt lat="48.90797" lon="2.05441">
        <ele>68</ele>
        <time>2022-04-05T09:06:46Z</time>
      </trkpt>
      <trkpt lat="48.90794" lon="2.05433">
        <ele>66.8</ele>
        <time>2022-04-05T09:06:51Z</time>
      </trkpt>
      <trkpt lat="48.90791" lon="2.05428">
        <ele>65.5</ele>
        <time>2022-04-05T09:06:55Z</time>
      </trkpt>
      <trkpt lat="48.90787" lon="2.05422">
        <ele>65.1</ele>
        <time>2022-04-05T09:06:59Z</time>
      </trkpt>
      <trkpt lat="48.90784" lon="2.05416">
        <ele>64.8</ele>
        <time>2022-04-05T09:07:02Z</time>
      </trkpt>
      <trkpt lat="48.90782" lon="2.0541">
        <ele>64.5</ele>
        <time>2022-04-05T09:07:06Z</time>
      </trkpt>
      <trkpt lat="48.9078" lon="2.05404">
        <ele>63.6</ele>
        <time>2022-04-05T09:07:10Z</time>
      </trkpt>
      <trkpt lat="48.90777" lon="2.05397">
        <ele>62.8</ele>
        <time>2022-04-05T09:07:14Z</time>
      </trkpt>
      <trkpt lat="48.90775" lon="2.05389">
        <ele>61.9</ele>
        <time>2022-04-05T09:07:18Z</time>
      </trkpt>
      <trkpt lat="48.90772" lon="2.05383">
        <ele>60.2</ele>
        <time>2022-04-05T09:07:22Z</time>
      </trkpt>
      <trkpt lat="48.90769" lon="2.05377">
        <ele>59.5</ele>
        <time>2022-04-05T09:07:26Z</time>
      </trkpt>
      <trkpt lat="48.90765" lon="2.05371">
        <ele>59.3</ele>
        <time>2022-04-05T09:07:30Z</time>
      </trkpt>
      <trkpt lat="48.90763" lon="2.05365">
        <ele>60.1</ele>
        <time>2022-04-05T09:07:34Z</time>
      </trkpt>
      <trkpt lat="48.9076" lon="2.05359">
        <ele>61.7</ele>
        <time>2022-04-05T09:07:39Z</time>
      </trkpt>
      <trkpt lat="48.90755" lon="2.05357">
        <ele>62.5</ele>
        <time>2022-04-05T09:07:44Z</time>
      </trkpt>
      <trkpt lat="48.90752" lon="2.05362">
        <ele>62.2</ele>
        <time>2022-04-05T09:07:47Z</time>
      </trkpt>
      <trkpt lat="48.90748" lon="2.05366">
        <ele>62.5</ele>
        <time>2022-04-05T09:07:54Z</time>
      </trkpt>
      <trkpt lat="48.90742" lon="2.05368">
        <ele>63.6</ele>
        <time>2022-04-05T09:07:59Z</time>
      </trkpt>
      <trkpt lat="48.90737" lon="2.05369">
        <ele>65</ele>
        <time>2022-04-05T09:08:06Z</time>
      </trkpt>
      <trkpt lat="48.90733" lon="2.05373">
        <ele>66.4</ele>
        <time>2022-04-05T09:08:14Z</time>
      </trkpt>
      <trkpt lat="48.9073" lon="2.0538">
        <ele>66.3</ele>
        <time>2022-04-05T09:08:19Z</time>
      </trkpt>
      <trkpt lat="48.90729" lon="2.05388">
        <ele>65.1</ele>
        <time>2022-04-05T09:08:24Z</time>
      </trkpt>
      <trkpt lat="48.90726" lon="2.05394">
        <ele>63.5</ele>
        <time>2022-04-05T09:08:29Z</time>
      </trkpt>
      <trkpt lat="48.90724" lon="2.05401">
        <ele>62.6</ele>
        <time>2022-04-05T09:08:35Z</time>
      </trkpt>
      <trkpt lat="48.90722" lon="2.05407">
        <ele>61.8</ele>
        <time>2022-04-05T09:08:39Z</time>
      </trkpt>
      <trkpt lat="48.9072" lon="2.05415">
        <ele>61.2</ele>
        <time>2022-04-05T09:08:45Z</time>
      </trkpt>
      <trkpt lat="48.90718" lon="2.05421">
        <ele>61</ele>
        <time>2022-04-05T09:08:49Z</time>
      </trkpt>
      <trkpt lat="48.90715" lon="2.05427">
        <ele>60.7</ele>
        <time>2022-04-05T09:08:53Z</time>
      </trkpt>
      <trkpt lat="48.90713" lon="2.05434">
        <ele>61.1</ele>
        <time>2022-04-05T09:08:58Z</time>
      </trkpt>
      <trkpt lat="48.9071" lon="2.05441">
        <ele>61.9</ele>
        <time>2022-04-05T09:09:03Z</time>
      </trkpt>
      <trkpt lat="48.90707" lon="2.05447">
        <ele>62.1</ele>
        <time>2022-04-05T09:09:07Z</time>
      </trkpt>
      <trkpt lat="48.90704" lon="2.05454">
        <ele>62.2</ele>
        <time>2022-04-05T09:09:11Z</time>
      </trkpt>
      <trkpt lat="48.90701" lon="2.0546">
        <ele>62.6</ele>
        <time>2022-04-05T09:09:15Z</time>
      </trkpt>
      <trkpt lat="48.90698" lon="2.05467">
        <ele>63.5</ele>
        <time>2022-04-05T09:09:19Z</time>
      </trkpt>
      <trkpt lat="48.90695" lon="2.05474">
        <ele>63.8</ele>
        <time>2022-04-05T09:09:23Z</time>
      </trkpt>
      <trkpt lat="48.90692" lon="2.0548">
        <ele>63.5</ele>
        <time>2022-04-05T09:09:27Z</time>
      </trkpt>
      <trkpt lat="48.90689" lon="2.05485">
        <ele>63</ele>
        <time>2022-04-05T09:09:32Z</time>
      </trkpt>
      <trkpt lat="48.90687" lon="2.05492">
        <ele>62.5</ele>
        <time>2022-04-05T09:09:36Z</time>
      </trkpt>
      <trkpt lat="48.90686" lon="2.05501">
        <ele>63.4</ele>
        <time>2022-04-05T09:09:40Z</time>
      </trkpt>
      <trkpt lat="48.90686" lon="2.05509">
        <ele>64.1</ele>
        <time>2022-04-05T09:09:45Z</time>
      </trkpt>
      <trkpt lat="48.90683" lon="2.05516">
        <ele>64.5</ele>
        <time>2022-04-05T09:09:49Z</time>
      </trkpt>
      <trkpt lat="48.9068" lon="2.05523">
        <ele>64.3</ele>
        <time>2022-04-05T09:09:53Z</time>
      </trkpt>
      <trkpt lat="48.90679" lon="2.0553">
        <ele>64.8</ele>
        <time>2022-04-05T09:09:57Z</time>
      </trkpt>
      <trkpt lat="48.90677" lon="2.05537">
        <ele>64.2</ele>
        <time>2022-04-05T09:10:02Z</time>
      </trkpt>
      <trkpt lat="48.90674" lon="2.05542">
        <ele>63.5</ele>
        <time>2022-04-05T09:10:06Z</time>
      </trkpt>
      <trkpt lat="48.90671" lon="2.05549">
        <ele>63.7</ele>
        <time>2022-04-05T09:10:11Z</time>
      </trkpt>
      <trkpt lat="48.90669" lon="2.05556">
        <ele>64.4</ele>
        <time>2022-04-05T09:10:15Z</time>
      </trkpt>
      <trkpt lat="48.90666" lon="2.05563">
        <ele>64.9</ele>
        <time>2022-04-05T09:10:20Z</time>
      </trkpt>
      <trkpt lat="48.90664" lon="2.05571">
        <ele>64.9</ele>
        <time>2022-04-05T09:10:24Z</time>
      </trkpt>
      <trkpt lat="48.90663" lon="2.05578">
        <ele>64.8</ele>
        <time>2022-04-05T09:10:28Z</time>
      </trkpt>
      <trkpt lat="48.90661" lon="2.05586">
        <ele>64.4</ele>
        <time>2022-04-05T09:10:32Z</time>
      </trkpt>
      <trkpt lat="48.90659" lon="2.05593">
        <ele>64.3</ele>
        <time>2022-04-05T09:10:37Z</time>
      </trkpt>
      <trkpt lat="48.90656" lon="2.05602">
        <ele>64.9</ele>
        <time>2022-04-05T09:10:42Z</time>
      </trkpt>
      <trkpt lat="48.90651" lon="2.05606">
        <ele>65</ele>
        <time>2022-04-05T09:10:46Z</time>
      </trkpt>
      <trkpt lat="48.90646" lon="2.05608">
        <ele>64.9</ele>
        <time>2022-04-05T09:10:50Z</time>
      </trkpt>
      <trkpt lat="48.90641" lon="2.0561">
        <ele>65</ele>
        <time>2022-04-05T09:10:55Z</time>
      </trkpt>
      <trkpt lat="48.90637" lon="2.05616">
        <ele>64.7</ele>
        <time>2022-04-05T09:10:59Z</time>
      </trkpt>
      <trkpt lat="48.90635" lon="2.05623">
        <ele>64.4</ele>
        <time>2022-04-05T09:11:04Z</time>
      </trkpt>
      <trkpt lat="48.90636" lon="2.05631">
        <ele>64.9</ele>
        <time>2022-04-05T09:11:08Z</time>
      </trkpt>
      <trkpt lat="48.90633" lon="2.05638">
        <ele>65.8</ele>
        <time>2022-04-05T09:11:13Z</time>
      </trkpt>
      <trkpt lat="48.90629" lon="2.05645">
        <ele>65.6</ele>
        <time>2022-04-05T09:11:17Z</time>
      </trkpt>
      <trkpt lat="48.90627" lon="2.05652">
        <ele>65.1</ele>
        <time>2022-04-05T09:11:22Z</time>
      </trkpt>
      <trkpt lat="48.90624" lon="2.05659">
        <ele>65.2</ele>
        <time>2022-04-05T09:11:27Z</time>
      </trkpt>
      <trkpt lat="48.90618" lon="2.05658">
        <ele>65.4</ele>
        <time>2022-04-05T09:11:32Z</time>
      </trkpt>
      <trkpt lat="48.90615" lon="2.05653">
        <ele>66.6</ele>
        <time>2022-04-05T09:11:35Z</time>
      </trkpt>
      <trkpt lat="48.9061" lon="2.05652">
        <ele>67.6</ele>
        <time>2022-04-05T09:11:41Z</time>
      </trkpt>
      <trkpt lat="48.90605" lon="2.05651">
        <ele>67.1</ele>
        <time>2022-04-05T09:11:45Z</time>
      </trkpt>
      <trkpt lat="48.906" lon="2.05651">
        <ele>66.8</ele>
        <time>2022-04-05T09:11:51Z</time>
      </trkpt>
      <trkpt lat="48.90595" lon="2.05652">
        <ele>66.8</ele>
        <time>2022-04-05T09:11:55Z</time>
      </trkpt>
      <trkpt lat="48.9059" lon="2.05654">
        <ele>66.2</ele>
        <time>2022-04-05T09:12:00Z</time>
      </trkpt>
      <trkpt lat="48.90585" lon="2.05657">
        <ele>65.4</ele>
        <time>2022-04-05T09:12:05Z</time>
      </trkpt>
      <trkpt lat="48.90585" lon="2.05664">
        <ele>65.4</ele>
        <time>2022-04-05T09:12:10Z</time>
      </trkpt>
      <trkpt lat="48.90583" lon="2.05671">
        <ele>66.6</ele>
        <time>2022-04-05T09:12:16Z</time>
      </trkpt>
      <trkpt lat="48.90583" lon="2.05678">
        <ele>72</ele>
        <time>2022-04-05T09:12:25Z</time>
      </trkpt>
      <trkpt lat="48.90583" lon="2.05686">
        <ele>72.8</ele>
        <time>2022-04-05T09:12:34Z</time>
      </trkpt>
      <trkpt lat="48.90584" lon="2.05693">
        <ele>70.9</ele>
        <time>2022-04-05T09:12:44Z</time>
      </trkpt>
      <trkpt lat="48.90584" lon="2.05701">
        <ele>70.1</ele>
        <time>2022-04-05T09:12:50Z</time>
      </trkpt>
      <trkpt lat="48.9058" lon="2.05708">
        <ele>69.8</ele>
        <time>2022-04-05T09:12:53Z</time>
      </trkpt>
      <trkpt lat="48.90577" lon="2.05712">
        <ele>69.4</ele>
        <time>2022-04-05T09:12:57Z</time>
      </trkpt>
      <trkpt lat="48.90575" lon="2.0572">
        <ele>68.8</ele>
        <time>2022-04-05T09:13:00Z</time>
      </trkpt>
      <trkpt lat="48.90575" lon="2.05728">
        <ele>67.3</ele>
        <time>2022-04-05T09:13:04Z</time>
      </trkpt>
      <trkpt lat="48.90576" lon="2.05735">
        <ele>65.6</ele>
        <time>2022-04-05T09:13:10Z</time>
      </trkpt>
      <trkpt lat="48.90575" lon="2.05742">
        <ele>65.3</ele>
        <time>2022-04-05T09:13:14Z</time>
      </trkpt>
      <trkpt lat="48.90573" lon="2.05749">
        <ele>65.6</ele>
        <time>2022-04-05T09:13:18Z</time>
      </trkpt>
      <trkpt lat="48.90571" lon="2.05757">
        <ele>66.9</ele>
        <time>2022-04-05T09:13:24Z</time>
      </trkpt>
      <trkpt lat="48.90569" lon="2.05764">
        <ele>66.3</ele>
        <time>2022-04-05T09:13:29Z</time>
      </trkpt>
      <trkpt lat="48.90569" lon="2.05772">
        <ele>64.7</ele>
        <time>2022-04-05T09:13:34Z</time>
      </trkpt>
      <trkpt lat="48.90568" lon="2.05781">
        <ele>63.7</ele>
        <time>2022-04-05T09:13:38Z</time>
      </trkpt>
      <trkpt lat="48.90568" lon="2.05788">
        <ele>63.2</ele>
        <time>2022-04-05T09:13:42Z</time>
      </trkpt>
      <trkpt lat="48.90568" lon="2.05797">
        <ele>62.9</ele>
        <time>2022-04-05T09:13:47Z</time>
      </trkpt>
      <trkpt lat="48.90568" lon="2.05804">
        <ele>62.7</ele>
        <time>2022-04-05T09:13:51Z</time>
      </trkpt>
      <trkpt lat="48.90568" lon="2.05812">
        <ele>62.6</ele>
        <time>2022-04-05T09:13:55Z</time>
      </trkpt>
      <trkpt lat="48.90567" lon="2.0582">
        <ele>63.5</ele>
        <time>2022-04-05T09:13:59Z</time>
      </trkpt>
      <trkpt lat="48.90566" lon="2.05828">
        <ele>64</ele>
        <time>2022-04-05T09:14:04Z</time>
      </trkpt>
      <trkpt lat="48.90564" lon="2.05836">
        <ele>63.7</ele>
        <time>2022-04-05T09:14:08Z</time>
      </trkpt>
      <trkpt lat="48.90564" lon="2.05845">
        <ele>62.8</ele>
        <time>2022-04-05T09:14:12Z</time>
      </trkpt>
      <trkpt lat="48.90564" lon="2.05852">
        <ele>62.3</ele>
        <time>2022-04-05T09:14:16Z</time>
      </trkpt>
      <trkpt lat="48.90562" lon="2.0586">
        <ele>62.1</ele>
        <time>2022-04-05T09:14:20Z</time>
      </trkpt>
      <trkpt lat="48.90561" lon="2.05868">
        <ele>61.9</ele>
        <time>2022-04-05T09:14:24Z</time>
      </trkpt>
      <trkpt lat="48.9056" lon="2.05876">
        <ele>62</ele>
        <time>2022-04-05T09:14:28Z</time>
      </trkpt>
      <trkpt lat="48.90559" lon="2.05884">
        <ele>63</ele>
        <time>2022-04-05T09:14:32Z</time>
      </trkpt>
      <trkpt lat="48.90558" lon="2.05891">
        <ele>63.6</ele>
        <time>2022-04-05T09:14:36Z</time>
      </trkpt>
      <trkpt lat="48.90557" lon="2.05898">
        <ele>63.7</ele>
        <time>2022-04-05T09:14:41Z</time>
      </trkpt>
      <trkpt lat="48.90557" lon="2.05906">
        <ele>63.1</ele>
        <time>2022-04-05T09:14:45Z</time>
      </trkpt>
      <trkpt lat="48.90556" lon="2.05913">
        <ele>62.7</ele>
        <time>2022-04-05T09:14:50Z</time>
      </trkpt>
      <trkpt lat="48.90554" lon="2.05919">
        <ele>62.8</ele>
        <time>2022-04-05T09:14:57Z</time>
      </trkpt>
      <trkpt lat="48.90558" lon="2.0592">
        <ele>62</ele>
        <time>2022-04-05T09:15:42Z</time>
      </trkpt>
      <trkpt lat="48.90562" lon="2.05924">
        <ele>62.4</ele>
        <time>2022-04-05T09:17:17Z</time>
      </trkpt>
      <trkpt lat="48.90566" lon="2.05928">
        <ele>62.1</ele>
        <time>2022-04-05T09:17:20Z</time>
      </trkpt>
      <trkpt lat="48.9057" lon="2.05933">
        <ele>61.9</ele>
        <time>2022-04-05T09:17:25Z</time>
      </trkpt>
      <trkpt lat="48.90574" lon="2.05937">
        <ele>61.6</ele>
        <time>2022-04-05T09:17:29Z</time>
      </trkpt>
      <trkpt lat="48.90578" lon="2.05942">
        <ele>61.9</ele>
        <time>2022-04-05T09:17:34Z</time>
      </trkpt>
      <trkpt lat="48.90582" lon="2.05947">
        <ele>62.4</ele>
        <time>2022-04-05T09:17:38Z</time>
      </trkpt>
      <trkpt lat="48.90585" lon="2.05954">
        <ele>62.9</ele>
        <time>2022-04-05T09:17:42Z</time>
      </trkpt>
      <trkpt lat="48.90589" lon="2.05959">
        <ele>63.8</ele>
        <time>2022-04-05T09:17:47Z</time>
      </trkpt>
      <trkpt lat="48.90594" lon="2.05962">
        <ele>65</ele>
        <time>2022-04-05T09:17:51Z</time>
      </trkpt>
      <trkpt lat="48.906" lon="2.05965">
        <ele>65.3</ele>
        <time>2022-04-05T09:17:56Z</time>
      </trkpt>
      <trkpt lat="48.90605" lon="2.05969">
        <ele>64.8</ele>
        <time>2022-04-05T09:18:00Z</time>
      </trkpt>
      <trkpt lat="48.9061" lon="2.05974">
        <ele>63.8</ele>
        <time>2022-04-05T09:18:05Z</time>
      </trkpt>
      <trkpt lat="48.90615" lon="2.05977">
        <ele>62.9</ele>
        <time>2022-04-05T09:18:09Z</time>
      </trkpt>
      <trkpt lat="48.90619" lon="2.05979">
        <ele>63.1</ele>
        <time>2022-04-05T09:18:12Z</time>
      </trkpt>
      <trkpt lat="48.90625" lon="2.05981">
        <ele>63.9</ele>
        <time>2022-04-05T09:18:17Z</time>
      </trkpt>
      <trkpt lat="48.9063" lon="2.05983">
        <ele>64.4</ele>
        <time>2022-04-05T09:18:21Z</time>
      </trkpt>
      <trkpt lat="48.90634" lon="2.05989">
        <ele>64.9</ele>
        <time>2022-04-05T09:18:25Z</time>
      </trkpt>
      <trkpt lat="48.90639" lon="2.05994">
        <ele>66.3</ele>
        <time>2022-04-05T09:18:30Z</time>
      </trkpt>
      <trkpt lat="48.90643" lon="2.05998">
        <ele>67</ele>
        <time>2022-04-05T09:18:33Z</time>
      </trkpt>
      <trkpt lat="48.90647" lon="2.06002">
        <ele>67.6</ele>
        <time>2022-04-05T09:18:36Z</time>
      </trkpt>
      <trkpt lat="48.90651" lon="2.06006">
        <ele>67.8</ele>
        <time>2022-04-05T09:18:40Z</time>
      </trkpt>
      <trkpt lat="48.90654" lon="2.06011">
        <ele>68.1</ele>
        <time>2022-04-05T09:18:43Z</time>
      </trkpt>
      <trkpt lat="48.90658" lon="2.06015">
        <ele>67.8</ele>
        <time>2022-04-05T09:18:48Z</time>
      </trkpt>
      <trkpt lat="48.90663" lon="2.0602">
        <ele>67.7</ele>
        <time>2022-04-05T09:18:52Z</time>
      </trkpt>
      <trkpt lat="48.90668" lon="2.06022">
        <ele>67.9</ele>
        <time>2022-04-05T09:18:57Z</time>
      </trkpt>
      <trkpt lat="48.90673" lon="2.06026">
        <ele>68.5</ele>
        <time>2022-04-05T09:19:01Z</time>
      </trkpt>
      <trkpt lat="48.90678" lon="2.06029">
        <ele>68.9</ele>
        <time>2022-04-05T09:19:06Z</time>
      </trkpt>
      <trkpt lat="48.90683" lon="2.06033">
        <ele>68.7</ele>
        <time>2022-04-05T09:19:10Z</time>
      </trkpt>
      <trkpt lat="48.90687" lon="2.06035">
        <ele>68.4</ele>
        <time>2022-04-05T09:19:14Z</time>
      </trkpt>
      <trkpt lat="48.90692" lon="2.06039">
        <ele>68</ele>
        <time>2022-04-05T09:19:18Z</time>
      </trkpt>
      <trkpt lat="48.90697" lon="2.06044">
        <ele>66.4</ele>
        <time>2022-04-05T09:19:22Z</time>
      </trkpt>
      <trkpt lat="48.90702" lon="2.06048">
        <ele>64.7</ele>
        <time>2022-04-05T09:19:26Z</time>
      </trkpt>
      <trkpt lat="48.90706" lon="2.06053">
        <ele>64.5</ele>
        <time>2022-04-05T09:19:30Z</time>
      </trkpt>
      <trkpt lat="48.9071" lon="2.06059">
        <ele>64.9</ele>
        <time>2022-04-05T09:19:34Z</time>
      </trkpt>
      <trkpt lat="48.90715" lon="2.06064">
        <ele>66</ele>
        <time>2022-04-05T09:19:38Z</time>
      </trkpt>
      <trkpt lat="48.90719" lon="2.06069">
        <ele>66.8</ele>
        <time>2022-04-05T09:19:43Z</time>
      </trkpt>
      <trkpt lat="48.90724" lon="2.06071">
        <ele>67.2</ele>
        <time>2022-04-05T09:19:46Z</time>
      </trkpt>
      <trkpt lat="48.90729" lon="2.06075">
        <ele>68.9</ele>
        <time>2022-04-05T09:19:51Z</time>
      </trkpt>
      <trkpt lat="48.90733" lon="2.06079">
        <ele>71.1</ele>
        <time>2022-04-05T09:19:55Z</time>
      </trkpt>
      <trkpt lat="48.90738" lon="2.06082">
        <ele>71.8</ele>
        <time>2022-04-05T09:19:59Z</time>
      </trkpt>
      <trkpt lat="48.90742" lon="2.06086">
        <ele>71.5</ele>
        <time>2022-04-05T09:20:02Z</time>
      </trkpt>
      <trkpt lat="48.90747" lon="2.06091">
        <ele>72.1</ele>
        <time>2022-04-05T09:20:06Z</time>
      </trkpt>
      <trkpt lat="48.9075" lon="2.06096">
        <ele>72.2</ele>
        <time>2022-04-05T09:20:10Z</time>
      </trkpt>
      <trkpt lat="48.90754" lon="2.06102">
        <ele>70.8</ele>
        <time>2022-04-05T09:20:14Z</time>
      </trkpt>
      <trkpt lat="48.90759" lon="2.06107">
        <ele>70</ele>
        <time>2022-04-05T09:20:18Z</time>
      </trkpt>
      <trkpt lat="48.90763" lon="2.06113">
        <ele>69.8</ele>
        <time>2022-04-05T09:20:22Z</time>
      </trkpt>
      <trkpt lat="48.90763" lon="2.06121">
        <ele>69.1</ele>
        <time>2022-04-05T09:20:27Z</time>
      </trkpt>
      <trkpt lat="48.90759" lon="2.06126">
        <ele>68.5</ele>
        <time>2022-04-05T09:20:31Z</time>
      </trkpt>
      <trkpt lat="48.90753" lon="2.06129">
        <ele>68.6</ele>
        <time>2022-04-05T09:20:35Z</time>
      </trkpt>
      <trkpt lat="48.90748" lon="2.06131">
        <ele>68.9</ele>
        <time>2022-04-05T09:20:38Z</time>
      </trkpt>
      <trkpt lat="48.90743" lon="2.06133">
        <ele>68.2</ele>
        <time>2022-04-05T09:20:42Z</time>
      </trkpt>
      <trkpt lat="48.90738" lon="2.06136">
        <ele>66.9</ele>
        <time>2022-04-05T09:20:46Z</time>
      </trkpt>
      <trkpt lat="48.90734" lon="2.0614">
        <ele>66.4</ele>
        <time>2022-04-05T09:20:50Z</time>
      </trkpt>
      <trkpt lat="48.9073" lon="2.06145">
        <ele>68.2</ele>
        <time>2022-04-05T09:20:54Z</time>
      </trkpt>
      <trkpt lat="48.90726" lon="2.0615">
        <ele>72</ele>
        <time>2022-04-05T09:20:59Z</time>
      </trkpt>
      <trkpt lat="48.90722" lon="2.06156">
        <ele>74.8</ele>
        <time>2022-04-05T09:21:03Z</time>
      </trkpt>
      <trkpt lat="48.90718" lon="2.06162">
        <ele>76</ele>
        <time>2022-04-05T09:21:07Z</time>
      </trkpt>
      <trkpt lat="48.90715" lon="2.06167">
        <ele>75.9</ele>
        <time>2022-04-05T09:21:11Z</time>
      </trkpt>
      <trkpt lat="48.90711" lon="2.06172">
        <ele>74.8</ele>
        <time>2022-04-05T09:21:15Z</time>
      </trkpt>
      <trkpt lat="48.90707" lon="2.06178">
        <ele>73.1</ele>
        <time>2022-04-05T09:21:19Z</time>
      </trkpt>
      <trkpt lat="48.90703" lon="2.06183">
        <ele>72.1</ele>
        <time>2022-04-05T09:21:23Z</time>
      </trkpt>
      <trkpt lat="48.90699" lon="2.06189">
        <ele>71.1</ele>
        <time>2022-04-05T09:21:27Z</time>
      </trkpt>
      <trkpt lat="48.90696" lon="2.06195">
        <ele>70.4</ele>
        <time>2022-04-05T09:21:32Z</time>
      </trkpt>
      <trkpt lat="48.90692" lon="2.06201">
        <ele>70.3</ele>
        <time>2022-04-05T09:21:35Z</time>
      </trkpt>
      <trkpt lat="48.90688" lon="2.06208">
        <ele>71</ele>
        <time>2022-04-05T09:21:39Z</time>
      </trkpt>
      <trkpt lat="48.90684" lon="2.06214">
        <ele>71.9</ele>
        <time>2022-04-05T09:21:43Z</time>
      </trkpt>
      <trkpt lat="48.9068" lon="2.06219">
        <ele>72.5</ele>
        <time>2022-04-05T09:21:47Z</time>
      </trkpt>
      <trkpt lat="48.90677" lon="2.06225">
        <ele>72.6</ele>
        <time>2022-04-05T09:21:50Z</time>
      </trkpt>
      <trkpt lat="48.90674" lon="2.0623">
        <ele>71.5</ele>
        <time>2022-04-05T09:21:54Z</time>
      </trkpt>
      <trkpt lat="48.9067" lon="2.06236">
        <ele>69.6</ele>
        <time>2022-04-05T09:21:57Z</time>
      </trkpt>
      <trkpt lat="48.90667" lon="2.06242">
        <ele>69.9</ele>
        <time>2022-04-05T09:22:01Z</time>
      </trkpt>
      <trkpt lat="48.90663" lon="2.06248">
        <ele>71.5</ele>
        <time>2022-04-05T09:22:05Z</time>
      </trkpt>
      <trkpt lat="48.90659" lon="2.06254">
        <ele>71.4</ele>
        <time>2022-04-05T09:22:09Z</time>
      </trkpt>
      <trkpt lat="48.90655" lon="2.06261">
        <ele>69.5</ele>
        <time>2022-04-05T09:22:14Z</time>
      </trkpt>
      <trkpt lat="48.90652" lon="2.06266">
        <ele>67.9</ele>
        <time>2022-04-05T09:22:18Z</time>
      </trkpt>
      <trkpt lat="48.90648" lon="2.06272">
        <ele>67.6</ele>
        <time>2022-04-05T09:22:22Z</time>
      </trkpt>
      <trkpt lat="48.90645" lon="2.06277">
        <ele>67.7</ele>
        <time>2022-04-05T09:22:25Z</time>
      </trkpt>
      <trkpt lat="48.90642" lon="2.06283">
        <ele>67.7</ele>
        <time>2022-04-05T09:22:29Z</time>
      </trkpt>
      <trkpt lat="48.90639" lon="2.0629">
        <ele>68.1</ele>
        <time>2022-04-05T09:22:33Z</time>
      </trkpt>
      <trkpt lat="48.90635" lon="2.06296">
        <ele>68.3</ele>
        <time>2022-04-05T09:22:37Z</time>
      </trkpt>
      <trkpt lat="48.90632" lon="2.06303">
        <ele>67.6</ele>
        <time>2022-04-05T09:22:41Z</time>
      </trkpt>
      <trkpt lat="48.9063" lon="2.06309">
        <ele>67.6</ele>
        <time>2022-04-05T09:22:44Z</time>
      </trkpt>
      <trkpt lat="48.90627" lon="2.06317">
        <ele>68.7</ele>
        <time>2022-04-05T09:22:49Z</time>
      </trkpt>
      <trkpt lat="48.90626" lon="2.06325">
        <ele>70.2</ele>
        <time>2022-04-05T09:22:53Z</time>
      </trkpt>
      <trkpt lat="48.90623" lon="2.06332">
        <ele>70.7</ele>
        <time>2022-04-05T09:22:59Z</time>
      </trkpt>
      <trkpt lat="48.9062" lon="2.06339">
        <ele>70.3</ele>
        <time>2022-04-05T09:23:04Z</time>
      </trkpt>
      <trkpt lat="48.90617" lon="2.06344">
        <ele>69.8</ele>
        <time>2022-04-05T09:23:08Z</time>
      </trkpt>
      <trkpt lat="48.90613" lon="2.06349">
        <ele>69.3</ele>
        <time>2022-04-05T09:23:12Z</time>
      </trkpt>
      <trkpt lat="48.9061" lon="2.06354">
        <ele>69.1</ele>
        <time>2022-04-05T09:23:15Z</time>
      </trkpt>
      <trkpt lat="48.90605" lon="2.06359">
        <ele>68.8</ele>
        <time>2022-04-05T09:23:19Z</time>
      </trkpt>
      <trkpt lat="48.90601" lon="2.06363">
        <ele>67.7</ele>
        <time>2022-04-05T09:23:23Z</time>
      </trkpt>
      <trkpt lat="48.90596" lon="2.06364">
        <ele>66.6</ele>
        <time>2022-04-05T09:23:27Z</time>
      </trkpt>
      <trkpt lat="48.9059" lon="2.06364">
        <ele>65.7</ele>
        <time>2022-04-05T09:23:31Z</time>
      </trkpt>
      <trkpt lat="48.90584" lon="2.06364">
        <ele>64.6</ele>
        <time>2022-04-05T09:23:35Z</time>
      </trkpt>
      <trkpt lat="48.90579" lon="2.06364">
        <ele>63.6</ele>
        <time>2022-04-05T09:23:39Z</time>
      </trkpt>
      <trkpt lat="48.90574" lon="2.06364">
        <ele>63.7</ele>
        <time>2022-04-05T09:23:43Z</time>
      </trkpt>
      <trkpt lat="48.90569" lon="2.06364">
        <ele>64.1</ele>
        <time>2022-04-05T09:23:46Z</time>
      </trkpt>
      <trkpt lat="48.90564" lon="2.06364">
        <ele>64</ele>
        <time>2022-04-05T09:23:50Z</time>
      </trkpt>
      <trkpt lat="48.90558" lon="2.06363">
        <ele>63.7</ele>
        <time>2022-04-05T09:23:55Z</time>
      </trkpt>
      <trkpt lat="48.90552" lon="2.06362">
        <ele>63.3</ele>
        <time>2022-04-05T09:23:58Z</time>
      </trkpt>
      <trkpt lat="48.90547" lon="2.06362">
        <ele>63.7</ele>
        <time>2022-04-05T09:24:02Z</time>
      </trkpt>
      <trkpt lat="48.90541" lon="2.06363">
        <ele>64.2</ele>
        <time>2022-04-05T09:24:06Z</time>
      </trkpt>
      <trkpt lat="48.90537" lon="2.06363">
        <ele>64.7</ele>
        <time>2022-04-05T09:24:09Z</time>
      </trkpt>
      <trkpt lat="48.90532" lon="2.06365">
        <ele>65.6</ele>
        <time>2022-04-05T09:24:12Z</time>
      </trkpt>
      <trkpt lat="48.90527" lon="2.06368">
        <ele>66.6</ele>
        <time>2022-04-05T09:24:16Z</time>
      </trkpt>
      <trkpt lat="48.90522" lon="2.06371">
        <ele>68</ele>
        <time>2022-04-05T09:24:19Z</time>
      </trkpt>
      <trkpt lat="48.90517" lon="2.06372">
        <ele>69.3</ele>
        <time>2022-04-05T09:24:24Z</time>
      </trkpt>
      <trkpt lat="48.90511" lon="2.06372">
        <ele>70.3</ele>
        <time>2022-04-05T09:24:28Z</time>
      </trkpt>
      <trkpt lat="48.90506" lon="2.06371">
        <ele>71</ele>
        <time>2022-04-05T09:24:31Z</time>
      </trkpt>
      <trkpt lat="48.905" lon="2.06369">
        <ele>71.1</ele>
        <time>2022-04-05T09:24:35Z</time>
      </trkpt>
      <trkpt lat="48.90495" lon="2.06369">
        <ele>71.7</ele>
        <time>2022-04-05T09:24:39Z</time>
      </trkpt>
      <trkpt lat="48.9049" lon="2.0637">
        <ele>71.9</ele>
        <time>2022-04-05T09:24:43Z</time>
      </trkpt>
      <trkpt lat="48.90485" lon="2.06371">
        <ele>71.6</ele>
        <time>2022-04-05T09:24:48Z</time>
      </trkpt>
      <trkpt lat="48.90479" lon="2.06372">
        <ele>72.1</ele>
        <time>2022-04-05T09:24:52Z</time>
      </trkpt>
      <trkpt lat="48.90474" lon="2.06373">
        <ele>73</ele>
        <time>2022-04-05T09:24:55Z</time>
      </trkpt>
      <trkpt lat="48.90469" lon="2.06373">
        <ele>73.4</ele>
        <time>2022-04-05T09:25:00Z</time>
      </trkpt>
      <trkpt lat="48.90463" lon="2.06372">
        <ele>73.6</ele>
        <time>2022-04-05T09:25:04Z</time>
      </trkpt>
      <trkpt lat="48.90458" lon="2.06372">
        <ele>73.5</ele>
        <time>2022-04-05T09:25:07Z</time>
      </trkpt>
      <trkpt lat="48.90453" lon="2.06373">
        <ele>72.9</ele>
        <time>2022-04-05T09:25:11Z</time>
      </trkpt>
      <trkpt lat="48.90448" lon="2.06375">
        <ele>72.9</ele>
        <time>2022-04-05T09:25:15Z</time>
      </trkpt>
      <trkpt lat="48.90443" lon="2.06378">
        <ele>72</ele>
        <time>2022-04-05T09:25:21Z</time>
      </trkpt>
      <trkpt lat="48.90438" lon="2.06379">
        <ele>71.5</ele>
        <time>2022-04-05T09:25:25Z</time>
      </trkpt>
      <trkpt lat="48.90433" lon="2.06379">
        <ele>71.5</ele>
        <time>2022-04-05T09:25:29Z</time>
      </trkpt>
      <trkpt lat="48.90428" lon="2.06378">
        <ele>71.5</ele>
        <time>2022-04-05T09:25:33Z</time>
      </trkpt>
      <trkpt lat="48.90422" lon="2.06378">
        <ele>70.5</ele>
        <time>2022-04-05T09:25:37Z</time>
      </trkpt>
      <trkpt lat="48.90418" lon="2.06379">
        <ele>69</ele>
        <time>2022-04-05T09:25:41Z</time>
      </trkpt>
      <trkpt lat="48.90412" lon="2.06379">
        <ele>67.3</ele>
        <time>2022-04-05T09:25:47Z</time>
      </trkpt>
      <trkpt lat="48.90407" lon="2.06378">
        <ele>66.1</ele>
        <time>2022-04-05T09:25:52Z</time>
      </trkpt>
      <trkpt lat="48.90405" lon="2.06386">
        <ele>65.6</ele>
        <time>2022-04-05T09:25:57Z</time>
      </trkpt>
      <trkpt lat="48.90405" lon="2.06394">
        <ele>64.9</ele>
        <time>2022-04-05T09:26:01Z</time>
      </trkpt>
      <trkpt lat="48.90403" lon="2.06402">
        <ele>64.6</ele>
        <time>2022-04-05T09:26:05Z</time>
      </trkpt>
      <trkpt lat="48.904" lon="2.06409">
        <ele>64.5</ele>
        <time>2022-04-05T09:26:09Z</time>
      </trkpt>
      <trkpt lat="48.90396" lon="2.06414">
        <ele>64.6</ele>
        <time>2022-04-05T09:26:15Z</time>
      </trkpt>
      <trkpt lat="48.90392" lon="2.06417">
        <ele>63.8</ele>
        <time>2022-04-05T09:26:20Z</time>
      </trkpt>
      <trkpt lat="48.9039" lon="2.06424">
        <ele>63.7</ele>
        <time>2022-04-05T09:26:26Z</time>
      </trkpt>
      <trkpt lat="48.90388" lon="2.06431">
        <ele>64.6</ele>
        <time>2022-04-05T09:26:31Z</time>
      </trkpt>
      <trkpt lat="48.90388" lon="2.06439">
        <ele>64.6</ele>
        <time>2022-04-05T09:26:37Z</time>
      </trkpt>
      <trkpt lat="48.90389" lon="2.06447">
        <ele>63.9</ele>
        <time>2022-04-05T09:26:41Z</time>
      </trkpt>
      <trkpt lat="48.90389" lon="2.06456">
        <ele>63</ele>
        <time>2022-04-05T09:26:45Z</time>
      </trkpt>
      <trkpt lat="48.90385" lon="2.06462">
        <ele>62.4</ele>
        <time>2022-04-05T09:26:50Z</time>
      </trkpt>
      <trkpt lat="48.90381" lon="2.06466">
        <ele>62.1</ele>
        <time>2022-04-05T09:26:53Z</time>
      </trkpt>
      <trkpt lat="48.90379" lon="2.06473">
        <ele>62.3</ele>
        <time>2022-04-05T09:26:58Z</time>
      </trkpt>
      <trkpt lat="48.90377" lon="2.0648">
        <ele>62.5</ele>
        <time>2022-04-05T09:27:02Z</time>
      </trkpt>
      <trkpt lat="48.90376" lon="2.06487">
        <ele>63</ele>
        <time>2022-04-05T09:27:06Z</time>
      </trkpt>
      <trkpt lat="48.90375" lon="2.06495">
        <ele>63.4</ele>
        <time>2022-04-05T09:27:10Z</time>
      </trkpt>
      <trkpt lat="48.90373" lon="2.06504">
        <ele>62.9</ele>
        <time>2022-04-05T09:27:15Z</time>
      </trkpt>
      <trkpt lat="48.90371" lon="2.0651">
        <ele>61.7</ele>
        <time>2022-04-05T09:27:20Z</time>
      </trkpt>
      <trkpt lat="48.9037" lon="2.06518">
        <ele>61.3</ele>
        <time>2022-04-05T09:27:24Z</time>
      </trkpt>
      <trkpt lat="48.90369" lon="2.06527">
        <ele>61.7</ele>
        <time>2022-04-05T09:27:29Z</time>
      </trkpt>
      <trkpt lat="48.90366" lon="2.06533">
        <ele>62.4</ele>
        <time>2022-04-05T09:27:33Z</time>
      </trkpt>
      <trkpt lat="48.90363" lon="2.06538">
        <ele>64.1</ele>
        <time>2022-04-05T09:27:37Z</time>
      </trkpt>
      <trkpt lat="48.90359" lon="2.06544">
        <ele>66.1</ele>
        <time>2022-04-05T09:27:41Z</time>
      </trkpt>
      <trkpt lat="48.90357" lon="2.0655">
        <ele>66.7</ele>
        <time>2022-04-05T09:27:45Z</time>
      </trkpt>
      <trkpt lat="48.90354" lon="2.06556">
        <ele>67</ele>
        <time>2022-04-05T09:27:49Z</time>
      </trkpt>
      <trkpt lat="48.90351" lon="2.06562">
        <ele>67.4</ele>
        <time>2022-04-05T09:27:53Z</time>
      </trkpt>
      <trkpt lat="48.90348" lon="2.06569">
        <ele>67.9</ele>
        <time>2022-04-05T09:27:57Z</time>
      </trkpt>
      <trkpt lat="48.90347" lon="2.06576">
        <ele>67.9</ele>
        <time>2022-04-05T09:28:00Z</time>
      </trkpt>
      <trkpt lat="48.90346" lon="2.06583">
        <ele>67.7</ele>
        <time>2022-04-05T09:28:04Z</time>
      </trkpt>
      <trkpt lat="48.90343" lon="2.06591">
        <ele>67</ele>
        <time>2022-04-05T09:28:08Z</time>
      </trkpt>
      <trkpt lat="48.90341" lon="2.06597">
        <ele>66.5</ele>
        <time>2022-04-05T09:28:12Z</time>
      </trkpt>
      <trkpt lat="48.90339" lon="2.06606">
        <ele>66.3</ele>
        <time>2022-04-05T09:28:16Z</time>
      </trkpt>
      <trkpt lat="48.90338" lon="2.06612">
        <ele>66.7</ele>
        <time>2022-04-05T09:28:20Z</time>
      </trkpt>
      <trkpt lat="48.90337" lon="2.0662">
        <ele>67.2</ele>
        <time>2022-04-05T09:28:24Z</time>
      </trkpt>
      <trkpt lat="48.90335" lon="2.06626">
        <ele>67.1</ele>
        <time>2022-04-05T09:28:27Z</time>
      </trkpt>
      <trkpt lat="48.90332" lon="2.06634">
        <ele>66.8</ele>
        <time>2022-04-05T09:28:32Z</time>
      </trkpt>
      <trkpt lat="48.90328" lon="2.06639">
        <ele>66.5</ele>
        <time>2022-04-05T09:28:36Z</time>
      </trkpt>
      <trkpt lat="48.90324" lon="2.06646">
        <ele>66</ele>
        <time>2022-04-05T09:28:40Z</time>
      </trkpt>
      <trkpt lat="48.90322" lon="2.06653">
        <ele>65.1</ele>
        <time>2022-04-05T09:28:45Z</time>
      </trkpt>
      <trkpt lat="48.9032" lon="2.0666">
        <ele>64.9</ele>
        <time>2022-04-05T09:28:49Z</time>
      </trkpt>
      <trkpt lat="48.90318" lon="2.06667">
        <ele>65.1</ele>
        <time>2022-04-05T09:28:53Z</time>
      </trkpt>
      <trkpt lat="48.90315" lon="2.06673">
        <ele>65.4</ele>
        <time>2022-04-05T09:28:57Z</time>
      </trkpt>
      <trkpt lat="48.90313" lon="2.06679">
        <ele>65.3</ele>
        <time>2022-04-05T09:29:02Z</time>
      </trkpt>
      <trkpt lat="48.90312" lon="2.06687">
        <ele>65.4</ele>
        <time>2022-04-05T09:29:06Z</time>
      </trkpt>
      <trkpt lat="48.90309" lon="2.06693">
        <ele>65.9</ele>
        <time>2022-04-05T09:29:10Z</time>
      </trkpt>
      <trkpt lat="48.90308" lon="2.06701">
        <ele>66.9</ele>
        <time>2022-04-05T09:29:13Z</time>
      </trkpt>
      <trkpt lat="48.90306" lon="2.06709">
        <ele>67.4</ele>
        <time>2022-04-05T09:29:18Z</time>
      </trkpt>
      <trkpt lat="48.90304" lon="2.06715">
        <ele>67.6</ele>
        <time>2022-04-05T09:29:22Z</time>
      </trkpt>
      <trkpt lat="48.903" lon="2.06722">
        <ele>67.9</ele>
        <time>2022-04-05T09:29:26Z</time>
      </trkpt>
      <trkpt lat="48.90298" lon="2.06729">
        <ele>68.7</ele>
        <time>2022-04-05T09:29:30Z</time>
      </trkpt>
      <trkpt lat="48.90295" lon="2.06736">
        <ele>69.4</ele>
        <time>2022-04-05T09:29:34Z</time>
      </trkpt>
      <trkpt lat="48.90293" lon="2.06742">
        <ele>69.8</ele>
        <time>2022-04-05T09:29:39Z</time>
      </trkpt>
      <trkpt lat="48.90292" lon="2.06749">
        <ele>70</ele>
        <time>2022-04-05T09:29:43Z</time>
      </trkpt>
      <trkpt lat="48.90292" lon="2.06758">
        <ele>71.1</ele>
        <time>2022-04-05T09:29:47Z</time>
      </trkpt>
      <trkpt lat="48.90293" lon="2.06765">
        <ele>71.8</ele>
        <time>2022-04-05T09:29:51Z</time>
      </trkpt>
      <trkpt lat="48.90293" lon="2.06773">
        <ele>72.2</ele>
        <time>2022-04-05T09:29:55Z</time>
      </trkpt>
      <trkpt lat="48.90294" lon="2.0678">
        <ele>71.5</ele>
        <time>2022-04-05T09:29:59Z</time>
      </trkpt>
      <trkpt lat="48.90294" lon="2.06788">
        <ele>70.2</ele>
        <time>2022-04-05T09:30:02Z</time>
      </trkpt>
      <trkpt lat="48.90292" lon="2.06796">
        <ele>69.6</ele>
        <time>2022-04-05T09:30:06Z</time>
      </trkpt>
      <trkpt lat="48.90288" lon="2.068">
        <ele>69.4</ele>
        <time>2022-04-05T09:30:09Z</time>
      </trkpt>
      <trkpt lat="48.90282" lon="2.06801">
        <ele>69.1</ele>
        <time>2022-04-05T09:30:13Z</time>
      </trkpt>
      <trkpt lat="48.90277" lon="2.06802">
        <ele>68.4</ele>
        <time>2022-04-05T09:30:18Z</time>
      </trkpt>
      <trkpt lat="48.90273" lon="2.06805">
        <ele>68.3</ele>
        <time>2022-04-05T09:30:23Z</time>
      </trkpt>
      <trkpt lat="48.90269" lon="2.06809">
        <ele>68.9</ele>
        <time>2022-04-05T09:30:29Z</time>
      </trkpt>
      <trkpt lat="48.90274" lon="2.06804">
        <ele>67.5</ele>
        <time>2022-04-05T09:30:37Z</time>
      </trkpt>
      <trkpt lat="48.9028" lon="2.06805">
        <ele>66.1</ele>
        <time>2022-04-05T09:30:41Z</time>
      </trkpt>
      <trkpt lat="48.90282" lon="2.06811">
        <ele>66.2</ele>
        <time>2022-04-05T09:30:44Z</time>
      </trkpt>
      <trkpt lat="48.90286" lon="2.06817">
        <ele>66.6</ele>
        <time>2022-04-05T09:30:49Z</time>
      </trkpt>
      <trkpt lat="48.90289" lon="2.06822">
        <ele>66.7</ele>
        <time>2022-04-05T09:30:53Z</time>
      </trkpt>
      <trkpt lat="48.90291" lon="2.06829">
        <ele>66.1</ele>
        <time>2022-04-05T09:30:58Z</time>
      </trkpt>
      <trkpt lat="48.90294" lon="2.06824">
        <ele>67.8</ele>
        <time>2022-04-05T09:31:17Z</time>
      </trkpt>
      <trkpt lat="48.90297" lon="2.0683">
        <ele>68.1</ele>
        <time>2022-04-05T09:31:25Z</time>
      </trkpt>
      <trkpt lat="48.90301" lon="2.06837">
        <ele>67.3</ele>
        <time>2022-04-05T09:31:29Z</time>
      </trkpt>
      <trkpt lat="48.90301" lon="2.06845">
        <ele>66.9</ele>
        <time>2022-04-05T09:31:33Z</time>
      </trkpt>
      <trkpt lat="48.903" lon="2.06853">
        <ele>67.2</ele>
        <time>2022-04-05T09:31:38Z</time>
      </trkpt>
      <trkpt lat="48.90299" lon="2.0686">
        <ele>70.5</ele>
        <time>2022-04-05T09:31:53Z</time>
      </trkpt>
      <trkpt lat="48.90299" lon="2.06867">
        <ele>72.4</ele>
        <time>2022-04-05T09:32:26Z</time>
      </trkpt>
      <trkpt lat="48.90298" lon="2.06876">
        <ele>71.9</ele>
        <time>2022-04-05T09:32:30Z</time>
      </trkpt>
      <trkpt lat="48.90298" lon="2.06884">
        <ele>71.8</ele>
        <time>2022-04-05T09:32:34Z</time>
      </trkpt>
      <trkpt lat="48.90298" lon="2.06893">
        <ele>72</ele>
        <time>2022-04-05T09:32:39Z</time>
      </trkpt>
      <trkpt lat="48.90297" lon="2.069">
        <ele>70.1</ele>
        <time>2022-04-05T09:32:43Z</time>
      </trkpt>
      <trkpt lat="48.90297" lon="2.06908">
        <ele>68.7</ele>
        <time>2022-04-05T09:32:47Z</time>
      </trkpt>
      <trkpt lat="48.90299" lon="2.06916">
        <ele>68.4</ele>
        <time>2022-04-05T09:32:51Z</time>
      </trkpt>
      <trkpt lat="48.90301" lon="2.06924">
        <ele>68.7</ele>
        <time>2022-04-05T09:32:55Z</time>
      </trkpt>
      <trkpt lat="48.90301" lon="2.06933">
        <ele>69.7</ele>
        <time>2022-04-05T09:32:58Z</time>
      </trkpt>
      <trkpt lat="48.90301" lon="2.06941">
        <ele>70.8</ele>
        <time>2022-04-05T09:33:02Z</time>
      </trkpt>
      <trkpt lat="48.90301" lon="2.06949">
        <ele>70.4</ele>
        <time>2022-04-05T09:33:08Z</time>
      </trkpt>
      <trkpt lat="48.90303" lon="2.06957">
        <ele>71.6</ele>
        <time>2022-04-05T09:33:13Z</time>
      </trkpt>
      <trkpt lat="48.90304" lon="2.06964">
        <ele>72</ele>
        <time>2022-04-05T09:33:17Z</time>
      </trkpt>
      <trkpt lat="48.90305" lon="2.06972">
        <ele>72.1</ele>
        <time>2022-04-05T09:33:21Z</time>
      </trkpt>
      <trkpt lat="48.90305" lon="2.06979">
        <ele>72.6</ele>
        <time>2022-04-05T09:33:25Z</time>
      </trkpt>
      <trkpt lat="48.90305" lon="2.06987">
        <ele>72.1</ele>
        <time>2022-04-05T09:33:30Z</time>
      </trkpt>
      <trkpt lat="48.90305" lon="2.06995">
        <ele>70.5</ele>
        <time>2022-04-05T09:33:35Z</time>
      </trkpt>
      <trkpt lat="48.90306" lon="2.07002">
        <ele>69.8</ele>
        <time>2022-04-05T09:33:39Z</time>
      </trkpt>
      <trkpt lat="48.90309" lon="2.07008">
        <ele>69.6</ele>
        <time>2022-04-05T09:33:43Z</time>
      </trkpt>
      <trkpt lat="48.90313" lon="2.07012">
        <ele>69.2</ele>
        <time>2022-04-05T09:33:47Z</time>
      </trkpt>
      <trkpt lat="48.90317" lon="2.07018">
        <ele>69.2</ele>
        <time>2022-04-05T09:33:51Z</time>
      </trkpt>
      <trkpt lat="48.9032" lon="2.07023">
        <ele>69.7</ele>
        <time>2022-04-05T09:33:54Z</time>
      </trkpt>
      <trkpt lat="48.90323" lon="2.07029">
        <ele>70.1</ele>
        <time>2022-04-05T09:33:58Z</time>
      </trkpt>
      <trkpt lat="48.90327" lon="2.07034">
        <ele>70</ele>
        <time>2022-04-05T09:34:01Z</time>
      </trkpt>
      <trkpt lat="48.90332" lon="2.07037">
        <ele>69.5</ele>
        <time>2022-04-05T09:34:05Z</time>
      </trkpt>
      <trkpt lat="48.90336" lon="2.07042">
        <ele>69.3</ele>
        <time>2022-04-05T09:34:09Z</time>
      </trkpt>
      <trkpt lat="48.90339" lon="2.07047">
        <ele>69.5</ele>
        <time>2022-04-05T09:34:13Z</time>
      </trkpt>
      <trkpt lat="48.90341" lon="2.07056">
        <ele>70.1</ele>
        <time>2022-04-05T09:34:17Z</time>
      </trkpt>
      <trkpt lat="48.90344" lon="2.07061">
        <ele>70.4</ele>
        <time>2022-04-05T09:34:21Z</time>
      </trkpt>
      <trkpt lat="48.90345" lon="2.07069">
        <ele>71.9</ele>
        <time>2022-04-05T09:34:25Z</time>
      </trkpt>
      <trkpt lat="48.90344" lon="2.07077">
        <ele>72.3</ele>
        <time>2022-04-05T09:34:30Z</time>
      </trkpt>
      <trkpt lat="48.90344" lon="2.07085">
        <ele>72</ele>
        <time>2022-04-05T09:34:34Z</time>
      </trkpt>
      <trkpt lat="48.90346" lon="2.07092">
        <ele>71.8</ele>
        <time>2022-04-05T09:34:39Z</time>
      </trkpt>
      <trkpt lat="48.90344" lon="2.07101">
        <ele>72</ele>
        <time>2022-04-05T09:34:43Z</time>
      </trkpt>
      <trkpt lat="48.90345" lon="2.07109">
        <ele>70.9</ele>
        <time>2022-04-05T09:34:47Z</time>
      </trkpt>
      <trkpt lat="48.90348" lon="2.07113">
        <ele>69.2</ele>
        <time>2022-04-05T09:34:51Z</time>
      </trkpt>
      <trkpt lat="48.90354" lon="2.07116">
        <ele>66.6</ele>
        <time>2022-04-05T09:34:55Z</time>
      </trkpt>
      <trkpt lat="48.9036" lon="2.07119">
        <ele>66</ele>
        <time>2022-04-05T09:35:00Z</time>
      </trkpt>
      <trkpt lat="48.90364" lon="2.07122">
        <ele>66.5</ele>
        <time>2022-04-05T09:35:04Z</time>
      </trkpt>
      <trkpt lat="48.90368" lon="2.07127">
        <ele>66.7</ele>
        <time>2022-04-05T09:35:08Z</time>
      </trkpt>
      <trkpt lat="48.90373" lon="2.07131">
        <ele>66.1</ele>
        <time>2022-04-05T09:35:12Z</time>
      </trkpt>
      <trkpt lat="48.90377" lon="2.07135">
        <ele>66</ele>
        <time>2022-04-05T09:35:17Z</time>
      </trkpt>
      <trkpt lat="48.90383" lon="2.07133">
        <ele>65.5</ele>
        <time>2022-04-05T09:35:21Z</time>
      </trkpt>
      <trkpt lat="48.90388" lon="2.07138">
        <ele>65.2</ele>
        <time>2022-04-05T09:35:26Z</time>
      </trkpt>
      <trkpt lat="48.90392" lon="2.07142">
        <ele>66</ele>
        <time>2022-04-05T09:35:29Z</time>
      </trkpt>
      <trkpt lat="48.90397" lon="2.07144">
        <ele>67.9</ele>
        <time>2022-04-05T09:35:34Z</time>
      </trkpt>
      <trkpt lat="48.90403" lon="2.07147">
        <ele>69.2</ele>
        <time>2022-04-05T09:35:39Z</time>
      </trkpt>
      <trkpt lat="48.90408" lon="2.07149">
        <ele>70.4</ele>
        <time>2022-04-05T09:35:43Z</time>
      </trkpt>
      <trkpt lat="48.90413" lon="2.07152">
        <ele>71.4</ele>
        <time>2022-04-05T09:35:46Z</time>
      </trkpt>
      <trkpt lat="48.90418" lon="2.07154">
        <ele>71.5</ele>
        <time>2022-04-05T09:35:51Z</time>
      </trkpt>
      <trkpt lat="48.90423" lon="2.07157">
        <ele>71.4</ele>
        <time>2022-04-05T09:35:55Z</time>
      </trkpt>
      <trkpt lat="48.90429" lon="2.07158">
        <ele>71.4</ele>
        <time>2022-04-05T09:35:59Z</time>
      </trkpt>
      <trkpt lat="48.90435" lon="2.07157">
        <ele>72.6</ele>
        <time>2022-04-05T09:36:04Z</time>
      </trkpt>
      <trkpt lat="48.9044" lon="2.07157">
        <ele>74.2</ele>
        <time>2022-04-05T09:36:08Z</time>
      </trkpt>
      <trkpt lat="48.90445" lon="2.07158">
        <ele>74.8</ele>
        <time>2022-04-05T09:36:11Z</time>
      </trkpt>
      <trkpt lat="48.90449" lon="2.07161">
        <ele>74.9</ele>
        <time>2022-04-05T09:36:15Z</time>
      </trkpt>
      <trkpt lat="48.90454" lon="2.07165">
        <ele>73.4</ele>
        <time>2022-04-05T09:36:18Z</time>
      </trkpt>
      <trkpt lat="48.90458" lon="2.07163">
        <ele>72.6</ele>
        <time>2022-04-05T09:36:24Z</time>
      </trkpt>
      <trkpt lat="48.90455" lon="2.07158">
        <ele>72.7</ele>
        <time>2022-04-05T09:36:27Z</time>
      </trkpt>
      <trkpt lat="48.90451" lon="2.07155">
        <ele>73.1</ele>
        <time>2022-04-05T09:38:21Z</time>
      </trkpt>
      <trkpt lat="48.90455" lon="2.07159">
        <ele>72.1</ele>
        <time>2022-04-05T09:41:29Z</time>
      </trkpt>
      <trkpt lat="48.9046" lon="2.07161">
        <ele>72.1</ele>
        <time>2022-04-05T09:41:32Z</time>
      </trkpt>
      <trkpt lat="48.90465" lon="2.07162">
        <ele>72.6</ele>
        <time>2022-04-05T09:41:37Z</time>
      </trkpt>
      <trkpt lat="48.9047" lon="2.07164">
        <ele>73.5</ele>
        <time>2022-04-05T09:41:41Z</time>
      </trkpt>
      <trkpt lat="48.90475" lon="2.07166">
        <ele>74.4</ele>
        <time>2022-04-05T09:41:45Z</time>
      </trkpt>
      <trkpt lat="48.90481" lon="2.07168">
        <ele>75</ele>
        <time>2022-04-05T09:41:50Z</time>
      </trkpt>
      <trkpt lat="48.90486" lon="2.07167">
        <ele>75.1</ele>
        <time>2022-04-05T09:41:54Z</time>
      </trkpt>
      <trkpt lat="48.9049" lon="2.07167">
        <ele>75.9</ele>
        <time>2022-04-05T09:41:59Z</time>
      </trkpt>
      <trkpt lat="48.90495" lon="2.0717">
        <ele>77.4</ele>
        <time>2022-04-05T09:42:05Z</time>
      </trkpt>
      <trkpt lat="48.90499" lon="2.07171">
        <ele>78.7</ele>
        <time>2022-04-05T09:42:10Z</time>
      </trkpt>
      <trkpt lat="48.90504" lon="2.07171">
        <ele>81.1</ele>
        <time>2022-04-05T09:42:17Z</time>
      </trkpt>
      <trkpt lat="48.90507" lon="2.07165">
        <ele>83.5</ele>
        <time>2022-04-05T09:42:22Z</time>
      </trkpt>
      <trkpt lat="48.9051" lon="2.07159">
        <ele>83.2</ele>
        <time>2022-04-05T09:42:25Z</time>
      </trkpt>
      <trkpt lat="48.90513" lon="2.07153">
        <ele>81.6</ele>
        <time>2022-04-05T09:42:28Z</time>
      </trkpt>
      <trkpt lat="48.90517" lon="2.07148">
        <ele>79.8</ele>
        <time>2022-04-05T09:42:31Z</time>
      </trkpt>
      <trkpt lat="48.9052" lon="2.07141">
        <ele>76.3</ele>
        <time>2022-04-05T09:42:35Z</time>
      </trkpt>
      <trkpt lat="48.90524" lon="2.07134">
        <ele>74.2</ele>
        <time>2022-04-05T09:42:39Z</time>
      </trkpt>
      <trkpt lat="48.90528" lon="2.07128">
        <ele>73.4</ele>
        <time>2022-04-05T09:42:43Z</time>
      </trkpt>
      <trkpt lat="48.90533" lon="2.07122">
        <ele>72.6</ele>
        <time>2022-04-05T09:42:47Z</time>
      </trkpt>
      <trkpt lat="48.90537" lon="2.07116">
        <ele>71.2</ele>
        <time>2022-04-05T09:42:51Z</time>
      </trkpt>
      <trkpt lat="48.90541" lon="2.07109">
        <ele>70.5</ele>
        <time>2022-04-05T09:42:55Z</time>
      </trkpt>
      <trkpt lat="48.90544" lon="2.07102">
        <ele>71</ele>
        <time>2022-04-05T09:42:59Z</time>
      </trkpt>
      <trkpt lat="48.90547" lon="2.07096">
        <ele>71.3</ele>
        <time>2022-04-05T09:43:03Z</time>
      </trkpt>
      <trkpt lat="48.9055" lon="2.0709">
        <ele>71.7</ele>
        <time>2022-04-05T09:43:06Z</time>
      </trkpt>
      <trkpt lat="48.90554" lon="2.07084">
        <ele>71.6</ele>
        <time>2022-04-05T09:43:10Z</time>
      </trkpt>
      <trkpt lat="48.90558" lon="2.07078">
        <ele>71.8</ele>
        <time>2022-04-05T09:43:14Z</time>
      </trkpt>
      <trkpt lat="48.90562" lon="2.07072">
        <ele>72.3</ele>
        <time>2022-04-05T09:43:18Z</time>
      </trkpt>
      <trkpt lat="48.90566" lon="2.07067">
        <ele>72.5</ele>
        <time>2022-04-05T09:43:22Z</time>
      </trkpt>
      <trkpt lat="48.9057" lon="2.07061">
        <ele>72.2</ele>
        <time>2022-04-05T09:43:26Z</time>
      </trkpt>
      <trkpt lat="48.90573" lon="2.07055">
        <ele>72.5</ele>
        <time>2022-04-05T09:43:31Z</time>
      </trkpt>
      <trkpt lat="48.90577" lon="2.07049">
        <ele>73.1</ele>
        <time>2022-04-05T09:43:34Z</time>
      </trkpt>
      <trkpt lat="48.90581" lon="2.07044">
        <ele>73.4</ele>
        <time>2022-04-05T09:43:38Z</time>
      </trkpt>
      <trkpt lat="48.90584" lon="2.07038">
        <ele>73</ele>
        <time>2022-04-05T09:43:42Z</time>
      </trkpt>
      <trkpt lat="48.90587" lon="2.07031">
        <ele>72.9</ele>
        <time>2022-04-05T09:43:46Z</time>
      </trkpt>
      <trkpt lat="48.90591" lon="2.07026">
        <ele>73</ele>
        <time>2022-04-05T09:43:50Z</time>
      </trkpt>
      <trkpt lat="48.90594" lon="2.07021">
        <ele>72.2</ele>
        <time>2022-04-05T09:43:54Z</time>
      </trkpt>
      <trkpt lat="48.90597" lon="2.07015">
        <ele>71.7</ele>
        <time>2022-04-05T09:43:58Z</time>
      </trkpt>
      <trkpt lat="48.906" lon="2.07009">
        <ele>71</ele>
        <time>2022-04-05T09:44:02Z</time>
      </trkpt>
      <trkpt lat="48.90604" lon="2.07002">
        <ele>70.8</ele>
        <time>2022-04-05T09:44:05Z</time>
      </trkpt>
      <trkpt lat="48.90607" lon="2.06996">
        <ele>70.2</ele>
        <time>2022-04-05T09:44:09Z</time>
      </trkpt>
      <trkpt lat="48.90611" lon="2.06991">
        <ele>69.2</ele>
        <time>2022-04-05T09:44:13Z</time>
      </trkpt>
      <trkpt lat="48.90615" lon="2.06984">
        <ele>68.5</ele>
        <time>2022-04-05T09:44:17Z</time>
      </trkpt>
      <trkpt lat="48.90619" lon="2.06977">
        <ele>68.5</ele>
        <time>2022-04-05T09:44:22Z</time>
      </trkpt>
      <trkpt lat="48.90623" lon="2.06971">
        <ele>69.4</ele>
        <time>2022-04-05T09:44:25Z</time>
      </trkpt>
      <trkpt lat="48.90627" lon="2.06966">
        <ele>70.9</ele>
        <time>2022-04-05T09:44:29Z</time>
      </trkpt>
      <trkpt lat="48.9063" lon="2.06961">
        <ele>71.4</ele>
        <time>2022-04-05T09:44:33Z</time>
      </trkpt>
      <trkpt lat="48.90634" lon="2.06954">
        <ele>71.7</ele>
        <time>2022-04-05T09:44:37Z</time>
      </trkpt>
      <trkpt lat="48.90638" lon="2.06948">
        <ele>71.6</ele>
        <time>2022-04-05T09:44:40Z</time>
      </trkpt>
      <trkpt lat="48.90642" lon="2.06942">
        <ele>71.7</ele>
        <time>2022-04-05T09:44:44Z</time>
      </trkpt>
      <trkpt lat="48.90645" lon="2.06937">
        <ele>71.5</ele>
        <time>2022-04-05T09:44:48Z</time>
      </trkpt>
      <trkpt lat="48.90649" lon="2.06931">
        <ele>70.8</ele>
        <time>2022-04-05T09:44:52Z</time>
      </trkpt>
      <trkpt lat="48.90652" lon="2.06925">
        <ele>70.4</ele>
        <time>2022-04-05T09:44:55Z</time>
      </trkpt>
      <trkpt lat="48.90655" lon="2.06919">
        <ele>70.2</ele>
        <time>2022-04-05T09:44:59Z</time>
      </trkpt>
      <trkpt lat="48.90659" lon="2.06913">
        <ele>72.2</ele>
        <time>2022-04-05T09:45:03Z</time>
      </trkpt>
      <trkpt lat="48.90663" lon="2.06908">
        <ele>74.2</ele>
        <time>2022-04-05T09:45:07Z</time>
      </trkpt>
      <trkpt lat="48.90668" lon="2.06903">
        <ele>74.7</ele>
        <time>2022-04-05T09:45:11Z</time>
      </trkpt>
      <trkpt lat="48.90672" lon="2.06897">
        <ele>74.2</ele>
        <time>2022-04-05T09:45:16Z</time>
      </trkpt>
      <trkpt lat="48.90675" lon="2.06892">
        <ele>73.5</ele>
        <time>2022-04-05T09:45:19Z</time>
      </trkpt>
      <trkpt lat="48.90679" lon="2.06886">
        <ele>73.1</ele>
        <time>2022-04-05T09:45:24Z</time>
      </trkpt>
      <trkpt lat="48.90683" lon="2.06881">
        <ele>73.4</ele>
        <time>2022-04-05T09:45:27Z</time>
      </trkpt>
      <trkpt lat="48.90687" lon="2.06877">
        <ele>73.3</ele>
        <time>2022-04-05T09:45:31Z</time>
      </trkpt>
      <trkpt lat="48.90691" lon="2.06871">
        <ele>74</ele>
        <time>2022-04-05T09:45:35Z</time>
      </trkpt>
      <trkpt lat="48.90694" lon="2.06865">
        <ele>74.8</ele>
        <time>2022-04-05T09:45:39Z</time>
      </trkpt>
      <trkpt lat="48.90698" lon="2.0686">
        <ele>75.3</ele>
        <time>2022-04-05T09:45:42Z</time>
      </trkpt>
      <trkpt lat="48.90702" lon="2.06855">
        <ele>75</ele>
        <time>2022-04-05T09:45:47Z</time>
      </trkpt>
      <trkpt lat="48.90705" lon="2.06847">
        <ele>74.4</ele>
        <time>2022-04-05T09:45:51Z</time>
      </trkpt>
      <trkpt lat="48.90708" lon="2.0684">
        <ele>73.1</ele>
        <time>2022-04-05T09:45:55Z</time>
      </trkpt>
      <trkpt lat="48.90711" lon="2.06835">
        <ele>72.1</ele>
        <time>2022-04-05T09:45:59Z</time>
      </trkpt>
      <trkpt lat="48.90716" lon="2.06831">
        <ele>71.7</ele>
        <time>2022-04-05T09:46:02Z</time>
      </trkpt>
      <trkpt lat="48.9072" lon="2.06825">
        <ele>71.5</ele>
        <time>2022-04-05T09:46:07Z</time>
      </trkpt>
      <trkpt lat="48.90722" lon="2.06818">
        <ele>71.4</ele>
        <time>2022-04-05T09:46:11Z</time>
      </trkpt>
      <trkpt lat="48.90725" lon="2.06812">
        <ele>72</ele>
        <time>2022-04-05T09:46:15Z</time>
      </trkpt>
      <trkpt lat="48.90728" lon="2.06805">
        <ele>71.5</ele>
        <time>2022-04-05T09:46:20Z</time>
      </trkpt>
      <trkpt lat="48.90733" lon="2.06801">
        <ele>71</ele>
        <time>2022-04-05T09:46:25Z</time>
      </trkpt>
      <trkpt lat="48.90737" lon="2.06797">
        <ele>71</ele>
        <time>2022-04-05T09:46:30Z</time>
      </trkpt>
      <trkpt lat="48.9074" lon="2.06791">
        <ele>71</ele>
        <time>2022-04-05T09:46:34Z</time>
      </trkpt>
      <trkpt lat="48.90743" lon="2.06785">
        <ele>70.6</ele>
        <time>2022-04-05T09:46:39Z</time>
      </trkpt>
      <trkpt lat="48.90746" lon="2.06777">
        <ele>69.8</ele>
        <time>2022-04-05T09:46:43Z</time>
      </trkpt>
      <trkpt lat="48.90749" lon="2.0677">
        <ele>68.5</ele>
        <time>2022-04-05T09:46:48Z</time>
      </trkpt>
      <trkpt lat="48.90752" lon="2.06764">
        <ele>67.5</ele>
        <time>2022-04-05T09:46:51Z</time>
      </trkpt>
      <trkpt lat="48.90755" lon="2.06757">
        <ele>66.8</ele>
        <time>2022-04-05T09:46:56Z</time>
      </trkpt>
      <trkpt lat="48.90758" lon="2.06752">
        <ele>67.1</ele>
        <time>2022-04-05T09:47:00Z</time>
      </trkpt>
      <trkpt lat="48.90763" lon="2.06747">
        <ele>68.1</ele>
        <time>2022-04-05T09:47:05Z</time>
      </trkpt>
      <trkpt lat="48.90768" lon="2.06742">
        <ele>68.5</ele>
        <time>2022-04-05T09:47:09Z</time>
      </trkpt>
      <trkpt lat="48.90772" lon="2.06736">
        <ele>68.5</ele>
        <time>2022-04-05T09:47:14Z</time>
      </trkpt>
      <trkpt lat="48.90776" lon="2.06732">
        <ele>67.9</ele>
        <time>2022-04-05T09:47:18Z</time>
      </trkpt>
      <trkpt lat="48.90781" lon="2.06728">
        <ele>67</ele>
        <time>2022-04-05T09:47:22Z</time>
      </trkpt>
      <trkpt lat="48.90785" lon="2.06722">
        <ele>67.2</ele>
        <time>2022-04-05T09:47:27Z</time>
      </trkpt>
      <trkpt lat="48.90788" lon="2.06717">
        <ele>68.1</ele>
        <time>2022-04-05T09:47:31Z</time>
      </trkpt>
      <trkpt lat="48.90792" lon="2.06713">
        <ele>69.4</ele>
        <time>2022-04-05T09:47:34Z</time>
      </trkpt>
      <trkpt lat="48.90795" lon="2.06709">
        <ele>70.7</ele>
        <time>2022-04-05T09:47:38Z</time>
      </trkpt>
      <trkpt lat="48.908" lon="2.06704">
        <ele>72.2</ele>
        <time>2022-04-05T09:47:42Z</time>
      </trkpt>
      <trkpt lat="48.90803" lon="2.06699">
        <ele>72.6</ele>
        <time>2022-04-05T09:47:46Z</time>
      </trkpt>
      <trkpt lat="48.90808" lon="2.06693">
        <ele>72.6</ele>
        <time>2022-04-05T09:47:50Z</time>
      </trkpt>
      <trkpt lat="48.90812" lon="2.0669">
        <ele>73</ele>
        <time>2022-04-05T09:47:54Z</time>
      </trkpt>
      <trkpt lat="48.90817" lon="2.06685">
        <ele>73.5</ele>
        <time>2022-04-05T09:47:58Z</time>
      </trkpt>
      <trkpt lat="48.90822" lon="2.06682">
        <ele>73.8</ele>
        <time>2022-04-05T09:48:02Z</time>
      </trkpt>
      <trkpt lat="48.90826" lon="2.06678">
        <ele>74</ele>
        <time>2022-04-05T09:48:06Z</time>
      </trkpt>
      <trkpt lat="48.90828" lon="2.0667">
        <ele>73.8</ele>
        <time>2022-04-05T09:48:10Z</time>
      </trkpt>
      <trkpt lat="48.90828" lon="2.06663">
        <ele>73.6</ele>
        <time>2022-04-05T09:48:13Z</time>
      </trkpt>
      <trkpt lat="48.90829" lon="2.06656">
        <ele>73.3</ele>
        <time>2022-04-05T09:48:16Z</time>
      </trkpt>
      <trkpt lat="48.90833" lon="2.06649">
        <ele>73.6</ele>
        <time>2022-04-05T09:48:21Z</time>
      </trkpt>
      <trkpt lat="48.90837" lon="2.06645">
        <ele>74.2</ele>
        <time>2022-04-05T09:48:24Z</time>
      </trkpt>
      <trkpt lat="48.90841" lon="2.06641">
        <ele>75.3</ele>
        <time>2022-04-05T09:48:28Z</time>
      </trkpt>
      <trkpt lat="48.90845" lon="2.06636">
        <ele>75.6</ele>
        <time>2022-04-05T09:48:33Z</time>
      </trkpt>
      <trkpt lat="48.90848" lon="2.06631">
        <ele>75.4</ele>
        <time>2022-04-05T09:48:38Z</time>
      </trkpt>
      <trkpt lat="48.90852" lon="2.06626">
        <ele>75.5</ele>
        <time>2022-04-05T09:48:42Z</time>
      </trkpt>
      <trkpt lat="48.90855" lon="2.06621">
        <ele>75.1</ele>
        <time>2022-04-05T09:48:46Z</time>
      </trkpt>
      <trkpt lat="48.90858" lon="2.06615">
        <ele>74.3</ele>
        <time>2022-04-05T09:48:50Z</time>
      </trkpt>
      <trkpt lat="48.90861" lon="2.0661">
        <ele>73.8</ele>
        <time>2022-04-05T09:48:54Z</time>
      </trkpt>
      <trkpt lat="48.90864" lon="2.06604">
        <ele>73.7</ele>
        <time>2022-04-05T09:48:58Z</time>
      </trkpt>
      <trkpt lat="48.90866" lon="2.06598">
        <ele>74.1</ele>
        <time>2022-04-05T09:49:02Z</time>
      </trkpt>
      <trkpt lat="48.90869" lon="2.06592">
        <ele>73.6</ele>
        <time>2022-04-05T09:49:06Z</time>
      </trkpt>
      <trkpt lat="48.90872" lon="2.06586">
        <ele>72.9</ele>
        <time>2022-04-05T09:49:10Z</time>
      </trkpt>
      <trkpt lat="48.90875" lon="2.0658">
        <ele>73.1</ele>
        <time>2022-04-05T09:49:14Z</time>
      </trkpt>
      <trkpt lat="48.90879" lon="2.06574">
        <ele>74.3</ele>
        <time>2022-04-05T09:49:18Z</time>
      </trkpt>
      <trkpt lat="48.90883" lon="2.06568">
        <ele>74.1</ele>
        <time>2022-04-05T09:49:22Z</time>
      </trkpt>
      <trkpt lat="48.90886" lon="2.06563">
        <ele>73.8</ele>
        <time>2022-04-05T09:49:26Z</time>
      </trkpt>
      <trkpt lat="48.9089" lon="2.06557">
        <ele>72.5</ele>
        <time>2022-04-05T09:49:30Z</time>
      </trkpt>
      <trkpt lat="48.90894" lon="2.06551">
        <ele>71.6</ele>
        <time>2022-04-05T09:49:34Z</time>
      </trkpt>
      <trkpt lat="48.90897" lon="2.06546">
        <ele>70.9</ele>
        <time>2022-04-05T09:49:38Z</time>
      </trkpt>
      <trkpt lat="48.90901" lon="2.06542">
        <ele>71</ele>
        <time>2022-04-05T09:49:42Z</time>
      </trkpt>
      <trkpt lat="48.90905" lon="2.06536">
        <ele>71.2</ele>
        <time>2022-04-05T09:49:46Z</time>
      </trkpt>
      <trkpt lat="48.90907" lon="2.0653">
        <ele>70.5</ele>
        <time>2022-04-05T09:49:50Z</time>
      </trkpt>
      <trkpt lat="48.90911" lon="2.06525">
        <ele>70.6</ele>
        <time>2022-04-05T09:49:54Z</time>
      </trkpt>
      <trkpt lat="48.90915" lon="2.06519">
        <ele>71.5</ele>
        <time>2022-04-05T09:49:58Z</time>
      </trkpt>
      <trkpt lat="48.90919" lon="2.06514">
        <ele>72.5</ele>
        <time>2022-04-05T09:50:02Z</time>
      </trkpt>
      <trkpt lat="48.90922" lon="2.06509">
        <ele>72.8</ele>
        <time>2022-04-05T09:50:06Z</time>
      </trkpt>
      <trkpt lat="48.90926" lon="2.06503">
        <ele>73</ele>
        <time>2022-04-05T09:50:10Z</time>
      </trkpt>
      <trkpt lat="48.90929" lon="2.06498">
        <ele>73.1</ele>
        <time>2022-04-05T09:50:14Z</time>
      </trkpt>
      <trkpt lat="48.90932" lon="2.06492">
        <ele>73.3</ele>
        <time>2022-04-05T09:50:18Z</time>
      </trkpt>
      <trkpt lat="48.90935" lon="2.06485">
        <ele>73.7</ele>
        <time>2022-04-05T09:50:22Z</time>
      </trkpt>
      <trkpt lat="48.90938" lon="2.06479">
        <ele>73.9</ele>
        <time>2022-04-05T09:50:26Z</time>
      </trkpt>
      <trkpt lat="48.90942" lon="2.06474">
        <ele>74.1</ele>
        <time>2022-04-05T09:50:30Z</time>
      </trkpt>
      <trkpt lat="48.90947" lon="2.06471">
        <ele>74.1</ele>
        <time>2022-04-05T09:50:34Z</time>
      </trkpt>
      <trkpt lat="48.9095" lon="2.06467">
        <ele>74</ele>
        <time>2022-04-05T09:50:38Z</time>
      </trkpt>
      <trkpt lat="48.90954" lon="2.06461">
        <ele>73.8</ele>
        <time>2022-04-05T09:50:43Z</time>
      </trkpt>
      <trkpt lat="48.90958" lon="2.06454">
        <ele>73.7</ele>
        <time>2022-04-05T09:50:49Z</time>
      </trkpt>
      <trkpt lat="48.90961" lon="2.06449">
        <ele>74.2</ele>
        <time>2022-04-05T09:50:53Z</time>
      </trkpt>
      <trkpt lat="48.90965" lon="2.06443">
        <ele>75.1</ele>
        <time>2022-04-05T09:50:58Z</time>
      </trkpt>
      <trkpt lat="48.90969" lon="2.06438">
        <ele>75.3</ele>
        <time>2022-04-05T09:51:02Z</time>
      </trkpt>
      <trkpt lat="48.90972" lon="2.06432">
        <ele>75.7</ele>
        <time>2022-04-05T09:51:06Z</time>
      </trkpt>
      <trkpt lat="48.90974" lon="2.06426">
        <ele>75.6</ele>
        <time>2022-04-05T09:51:10Z</time>
      </trkpt>
      <trkpt lat="48.90978" lon="2.0642">
        <ele>73.8</ele>
        <time>2022-04-05T09:51:14Z</time>
      </trkpt>
      <trkpt lat="48.90982" lon="2.06416">
        <ele>70.8</ele>
        <time>2022-04-05T09:51:19Z</time>
      </trkpt>
      <trkpt lat="48.90986" lon="2.06411">
        <ele>69.3</ele>
        <time>2022-04-05T09:51:23Z</time>
      </trkpt>
      <trkpt lat="48.90989" lon="2.06405">
        <ele>69.6</ele>
        <time>2022-04-05T09:51:27Z</time>
      </trkpt>
      <trkpt lat="48.90989" lon="2.06398">
        <ele>70</ele>
        <time>2022-04-05T09:51:30Z</time>
      </trkpt>
      <trkpt lat="48.90989" lon="2.0639">
        <ele>70.1</ele>
        <time>2022-04-05T09:51:34Z</time>
      </trkpt>
      <trkpt lat="48.9099" lon="2.06384">
        <ele>70.6</ele>
        <time>2022-04-05T09:51:38Z</time>
      </trkpt>
      <trkpt lat="48.90993" lon="2.06376">
        <ele>70.4</ele>
        <time>2022-04-05T09:51:42Z</time>
      </trkpt>
      <trkpt lat="48.90995" lon="2.06369">
        <ele>68.9</ele>
        <time>2022-04-05T09:51:46Z</time>
      </trkpt>
      <trkpt lat="48.90997" lon="2.06362">
        <ele>67.6</ele>
        <time>2022-04-05T09:51:50Z</time>
      </trkpt>
      <trkpt lat="48.90999" lon="2.06355">
        <ele>66.9</ele>
        <time>2022-04-05T09:51:54Z</time>
      </trkpt>
      <trkpt lat="48.91003" lon="2.06349">
        <ele>66.2</ele>
        <time>2022-04-05T09:51:58Z</time>
      </trkpt>
      <trkpt lat="48.91005" lon="2.06343">
        <ele>65.6</ele>
        <time>2022-04-05T09:52:03Z</time>
      </trkpt>
      <trkpt lat="48.91007" lon="2.06337">
        <ele>64.7</ele>
        <time>2022-04-05T09:52:07Z</time>
      </trkpt>
      <trkpt lat="48.91009" lon="2.0633">
        <ele>63.9</ele>
        <time>2022-04-05T09:52:11Z</time>
      </trkpt>
      <trkpt lat="48.91012" lon="2.06324">
        <ele>63.3</ele>
        <time>2022-04-05T09:52:15Z</time>
      </trkpt>
      <trkpt lat="48.91015" lon="2.06318">
        <ele>63.8</ele>
        <time>2022-04-05T09:52:20Z</time>
      </trkpt>
      <trkpt lat="48.9102" lon="2.06316">
        <ele>63.7</ele>
        <time>2022-04-05T09:52:26Z</time>
      </trkpt>
      <trkpt lat="48.91014" lon="2.06318">
        <ele>61.1</ele>
        <time>2022-04-05T09:52:56Z</time>
      </trkpt>
      <trkpt lat="48.91019" lon="2.06319">
        <ele>60.3</ele>
        <time>2022-04-05T09:52:59Z</time>
      </trkpt>
      <trkpt lat="48.91024" lon="2.06318">
        <ele>59.3</ele>
        <time>2022-04-05T09:53:04Z</time>
      </trkpt>
      <trkpt lat="48.91029" lon="2.06319">
        <ele>59</ele>
        <time>2022-04-05T09:53:08Z</time>
      </trkpt>
      <trkpt lat="48.91035" lon="2.0632">
        <ele>58.4</ele>
        <time>2022-04-05T09:53:13Z</time>
      </trkpt>
      <trkpt lat="48.91039" lon="2.0632">
        <ele>57.4</ele>
        <time>2022-04-05T09:53:16Z</time>
      </trkpt>
      <trkpt lat="48.91045" lon="2.06318">
        <ele>56.9</ele>
        <time>2022-04-05T09:53:20Z</time>
      </trkpt>
      <trkpt lat="48.9105" lon="2.06318">
        <ele>58.3</ele>
        <time>2022-04-05T09:53:24Z</time>
      </trkpt>
      <trkpt lat="48.91055" lon="2.06317">
        <ele>61.2</ele>
        <time>2022-04-05T09:53:27Z</time>
      </trkpt>
      <trkpt lat="48.9106" lon="2.06315">
        <ele>64.6</ele>
        <time>2022-04-05T09:53:31Z</time>
      </trkpt>
      <trkpt lat="48.91065" lon="2.06313">
        <ele>66</ele>
        <time>2022-04-05T09:53:35Z</time>
      </trkpt>
      <trkpt lat="48.9107" lon="2.06311">
        <ele>66.3</ele>
        <time>2022-04-05T09:53:39Z</time>
      </trkpt>
      <trkpt lat="48.91074" lon="2.06308">
        <ele>66.7</ele>
        <time>2022-04-05T09:53:42Z</time>
      </trkpt>
      <trkpt lat="48.91079" lon="2.06304">
        <ele>67.6</ele>
        <time>2022-04-05T09:53:46Z</time>
      </trkpt>
      <trkpt lat="48.91084" lon="2.06301">
        <ele>67.9</ele>
        <time>2022-04-05T09:53:50Z</time>
      </trkpt>
      <trkpt lat="48.91089" lon="2.06298">
        <ele>67.6</ele>
        <time>2022-04-05T09:53:54Z</time>
      </trkpt>
      <trkpt lat="48.91094" lon="2.06296">
        <ele>67.4</ele>
        <time>2022-04-05T09:53:58Z</time>
      </trkpt>
      <trkpt lat="48.91098" lon="2.06296">
        <ele>67.1</ele>
        <time>2022-04-05T09:54:01Z</time>
      </trkpt>
      <trkpt lat="48.91103" lon="2.06294">
        <ele>67.1</ele>
        <time>2022-04-05T09:54:04Z</time>
      </trkpt>
      <trkpt lat="48.91107" lon="2.06291">
        <ele>67.2</ele>
        <time>2022-04-05T09:54:08Z</time>
      </trkpt>
      <trkpt lat="48.91112" lon="2.06288">
        <ele>67</ele>
        <time>2022-04-05T09:54:12Z</time>
      </trkpt>
      <trkpt lat="48.91118" lon="2.06285">
        <ele>66.7</ele>
        <time>2022-04-05T09:54:15Z</time>
      </trkpt>
      <trkpt lat="48.91122" lon="2.06283">
        <ele>66.9</ele>
        <time>2022-04-05T09:54:19Z</time>
      </trkpt>
      <trkpt lat="48.91128" lon="2.06281">
        <ele>67.8</ele>
        <time>2022-04-05T09:54:23Z</time>
      </trkpt>
      <trkpt lat="48.91133" lon="2.06277">
        <ele>67.7</ele>
        <time>2022-04-05T09:54:27Z</time>
      </trkpt>
      <trkpt lat="48.91138" lon="2.06274">
        <ele>67.5</ele>
        <time>2022-04-05T09:54:31Z</time>
      </trkpt>
      <trkpt lat="48.91142" lon="2.06271">
        <ele>67.1</ele>
        <time>2022-04-05T09:54:35Z</time>
      </trkpt>
      <trkpt lat="48.91147" lon="2.06266">
        <ele>66.8</ele>
        <time>2022-04-05T09:54:39Z</time>
      </trkpt>
      <trkpt lat="48.91152" lon="2.06263">
        <ele>66.1</ele>
        <time>2022-04-05T09:54:44Z</time>
      </trkpt>
      <trkpt lat="48.91157" lon="2.0626">
        <ele>65.9</ele>
        <time>2022-04-05T09:54:48Z</time>
      </trkpt>
      <trkpt lat="48.91162" lon="2.06258">
        <ele>65.9</ele>
        <time>2022-04-05T09:54:52Z</time>
      </trkpt>
      <trkpt lat="48.91167" lon="2.06255">
        <ele>66.6</ele>
        <time>2022-04-05T09:54:55Z</time>
      </trkpt>
      <trkpt lat="48.91171" lon="2.06254">
        <ele>67.4</ele>
        <time>2022-04-05T09:54:59Z</time>
      </trkpt>
      <trkpt lat="48.91177" lon="2.06252">
        <ele>67.6</ele>
        <time>2022-04-05T09:55:03Z</time>
      </trkpt>
      <trkpt lat="48.91182" lon="2.06251">
        <ele>68.1</ele>
        <time>2022-04-05T09:55:07Z</time>
      </trkpt>
      <trkpt lat="48.91187" lon="2.0625">
        <ele>68.4</ele>
        <time>2022-04-05T09:55:12Z</time>
      </trkpt>
      <trkpt lat="48.9119" lon="2.06256">
        <ele>67.9</ele>
        <time>2022-04-05T09:55:16Z</time>
      </trkpt>
      <trkpt lat="48.9119" lon="2.06264">
        <ele>66.1</ele>
        <time>2022-04-05T09:55:20Z</time>
      </trkpt>
      <trkpt lat="48.9119" lon="2.06272">
        <ele>63.9</ele>
        <time>2022-04-05T09:55:25Z</time>
      </trkpt>
      <trkpt lat="48.91191" lon="2.0628">
        <ele>62.9</ele>
        <time>2022-04-05T09:55:29Z</time>
      </trkpt>
      <trkpt lat="48.91194" lon="2.06287">
        <ele>62.9</ele>
        <time>2022-04-05T09:55:34Z</time>
      </trkpt>
      <trkpt lat="48.91198" lon="2.06294">
        <ele>63.1</ele>
        <time>2022-04-05T09:55:39Z</time>
      </trkpt>
      <trkpt lat="48.912" lon="2.06301">
        <ele>64.8</ele>
        <time>2022-04-05T09:55:43Z</time>
      </trkpt>
      <trkpt lat="48.91203" lon="2.06308">
        <ele>65.9</ele>
        <time>2022-04-05T09:55:48Z</time>
      </trkpt>
      <trkpt lat="48.91207" lon="2.06314">
        <ele>66.5</ele>
        <time>2022-04-05T09:55:52Z</time>
      </trkpt>
      <trkpt lat="48.9121" lon="2.0632">
        <ele>66.1</ele>
        <time>2022-04-05T09:55:56Z</time>
      </trkpt>
      <trkpt lat="48.91213" lon="2.06327">
        <ele>65.3</ele>
        <time>2022-04-05T09:55:59Z</time>
      </trkpt>
      <trkpt lat="48.91216" lon="2.06333">
        <ele>64.9</ele>
        <time>2022-04-05T09:56:03Z</time>
      </trkpt>
      <trkpt lat="48.91219" lon="2.06339">
        <ele>64.6</ele>
        <time>2022-04-05T09:56:07Z</time>
      </trkpt>
      <trkpt lat="48.91223" lon="2.06344">
        <ele>63.9</ele>
        <time>2022-04-05T09:56:11Z</time>
      </trkpt>
      <trkpt lat="48.91228" lon="2.0635">
        <ele>62.5</ele>
        <time>2022-04-05T09:56:16Z</time>
      </trkpt>
      <trkpt lat="48.9123" lon="2.06358">
        <ele>61.4</ele>
        <time>2022-04-05T09:56:21Z</time>
      </trkpt>
      <trkpt lat="48.91233" lon="2.06366">
        <ele>60.9</ele>
        <time>2022-04-05T09:56:25Z</time>
      </trkpt>
      <trkpt lat="48.91236" lon="2.06373">
        <ele>60.4</ele>
        <time>2022-04-05T09:56:29Z</time>
      </trkpt>
      <trkpt lat="48.9124" lon="2.06379">
        <ele>60.1</ele>
        <time>2022-04-05T09:56:34Z</time>
      </trkpt>
      <trkpt lat="48.91243" lon="2.06386">
        <ele>60.3</ele>
        <time>2022-04-05T09:56:39Z</time>
      </trkpt>
      <trkpt lat="48.91245" lon="2.06393">
        <ele>61.5</ele>
        <time>2022-04-05T09:56:42Z</time>
      </trkpt>
      <trkpt lat="48.91248" lon="2.064">
        <ele>63.4</ele>
        <time>2022-04-05T09:56:47Z</time>
      </trkpt>
      <trkpt lat="48.91252" lon="2.06406">
        <ele>64.1</ele>
        <time>2022-04-05T09:56:52Z</time>
      </trkpt>
      <trkpt lat="48.91255" lon="2.06414">
        <ele>64.1</ele>
        <time>2022-04-05T09:56:57Z</time>
      </trkpt>
      <trkpt lat="48.91259" lon="2.06419">
        <ele>63.6</ele>
        <time>2022-04-05T09:57:01Z</time>
      </trkpt>
      <trkpt lat="48.91263" lon="2.06425">
        <ele>63.8</ele>
        <time>2022-04-05T09:57:05Z</time>
      </trkpt>
      <trkpt lat="48.91266" lon="2.06432">
        <ele>64.3</ele>
        <time>2022-04-05T09:57:09Z</time>
      </trkpt>
      <trkpt lat="48.91269" lon="2.06439">
        <ele>64.8</ele>
        <time>2022-04-05T09:57:14Z</time>
      </trkpt>
      <trkpt lat="48.91272" lon="2.06447">
        <ele>65.2</ele>
        <time>2022-04-05T09:57:18Z</time>
      </trkpt>
      <trkpt lat="48.91275" lon="2.06452">
        <ele>65.5</ele>
        <time>2022-04-05T09:57:21Z</time>
      </trkpt>
      <trkpt lat="48.91278" lon="2.06458">
        <ele>65.8</ele>
        <time>2022-04-05T09:57:24Z</time>
      </trkpt>
      <trkpt lat="48.91281" lon="2.06464">
        <ele>65.8</ele>
        <time>2022-04-05T09:57:28Z</time>
      </trkpt>
      <trkpt lat="48.91285" lon="2.06472">
        <ele>65.5</ele>
        <time>2022-04-05T09:57:33Z</time>
      </trkpt>
      <trkpt lat="48.91287" lon="2.06477">
        <ele>65.4</ele>
        <time>2022-04-05T09:57:36Z</time>
      </trkpt>
      <trkpt lat="48.9129" lon="2.06484">
        <ele>65.5</ele>
        <time>2022-04-05T09:57:40Z</time>
      </trkpt>
      <trkpt lat="48.91292" lon="2.06491">
        <ele>65.6</ele>
        <time>2022-04-05T09:57:44Z</time>
      </trkpt>
      <trkpt lat="48.91296" lon="2.06497">
        <ele>65.6</ele>
        <time>2022-04-05T09:57:49Z</time>
      </trkpt>
      <trkpt lat="48.913" lon="2.06501">
        <ele>66.2</ele>
        <time>2022-04-05T09:57:53Z</time>
      </trkpt>
      <trkpt lat="48.91303" lon="2.06507">
        <ele>66.7</ele>
        <time>2022-04-05T09:57:57Z</time>
      </trkpt>
      <trkpt lat="48.91306" lon="2.06513">
        <ele>67.2</ele>
        <time>2022-04-05T09:58:00Z</time>
      </trkpt>
      <trkpt lat="48.91309" lon="2.0652">
        <ele>66.6</ele>
        <time>2022-04-05T09:58:05Z</time>
      </trkpt>
      <trkpt lat="48.91311" lon="2.06526">
        <ele>66.2</ele>
        <time>2022-04-05T09:58:09Z</time>
      </trkpt>
      <trkpt lat="48.91314" lon="2.06533">
        <ele>65.7</ele>
        <time>2022-04-05T09:58:13Z</time>
      </trkpt>
      <trkpt lat="48.91318" lon="2.06539">
        <ele>65.8</ele>
        <time>2022-04-05T09:58:17Z</time>
      </trkpt>
      <trkpt lat="48.9132" lon="2.06544">
        <ele>65.7</ele>
        <time>2022-04-05T09:58:21Z</time>
      </trkpt>
      <trkpt lat="48.91323" lon="2.06551">
        <ele>64.8</ele>
        <time>2022-04-05T09:58:25Z</time>
      </trkpt>
      <trkpt lat="48.91326" lon="2.06557">
        <ele>64.3</ele>
        <time>2022-04-05T09:58:28Z</time>
      </trkpt>
      <trkpt lat="48.91328" lon="2.06563">
        <ele>64.2</ele>
        <time>2022-04-05T09:58:31Z</time>
      </trkpt>
      <trkpt lat="48.91331" lon="2.06569">
        <ele>64.9</ele>
        <time>2022-04-05T09:58:34Z</time>
      </trkpt>
      <trkpt lat="48.91334" lon="2.06576">
        <ele>65.6</ele>
        <time>2022-04-05T09:58:38Z</time>
      </trkpt>
      <trkpt lat="48.91336" lon="2.06584">
        <ele>67.2</ele>
        <time>2022-04-05T09:58:42Z</time>
      </trkpt>
      <trkpt lat="48.91338" lon="2.06591">
        <ele>68.2</ele>
        <time>2022-04-05T09:58:46Z</time>
      </trkpt>
      <trkpt lat="48.91338" lon="2.06598">
        <ele>68.1</ele>
        <time>2022-04-05T09:58:50Z</time>
      </trkpt>
      <trkpt lat="48.91342" lon="2.06603">
        <ele>66.1</ele>
        <time>2022-04-05T09:58:55Z</time>
      </trkpt>
      <trkpt lat="48.91347" lon="2.06605">
        <ele>64.2</ele>
        <time>2022-04-05T09:58:59Z</time>
      </trkpt>
      <trkpt lat="48.91351" lon="2.066">
        <ele>63.9</ele>
        <time>2022-04-05T09:59:03Z</time>
      </trkpt>
      <trkpt lat="48.91355" lon="2.06593">
        <ele>64.1</ele>
        <time>2022-04-05T09:59:08Z</time>
      </trkpt>
      <trkpt lat="48.91359" lon="2.0659">
        <ele>64.4</ele>
        <time>2022-04-05T09:59:11Z</time>
      </trkpt>
      <trkpt lat="48.91364" lon="2.06588">
        <ele>65.1</ele>
        <time>2022-04-05T09:59:15Z</time>
      </trkpt>
      <trkpt lat="48.91368" lon="2.06584">
        <ele>65.9</ele>
        <time>2022-04-05T09:59:18Z</time>
      </trkpt>
      <trkpt lat="48.91371" lon="2.06577">
        <ele>67.7</ele>
        <time>2022-04-05T09:59:23Z</time>
      </trkpt>
      <trkpt lat="48.91374" lon="2.06572">
        <ele>69.2</ele>
        <time>2022-04-05T09:59:26Z</time>
      </trkpt>
      <trkpt lat="48.91377" lon="2.06565">
        <ele>70.3</ele>
        <time>2022-04-05T09:59:30Z</time>
      </trkpt>
      <trkpt lat="48.91378" lon="2.06558">
        <ele>71.2</ele>
        <time>2022-04-05T09:59:34Z</time>
      </trkpt>
      <trkpt lat="48.91381" lon="2.0655">
        <ele>72.1</ele>
        <time>2022-04-05T09:59:38Z</time>
      </trkpt>
      <trkpt lat="48.91385" lon="2.06545">
        <ele>72.8</ele>
        <time>2022-04-05T09:59:42Z</time>
      </trkpt>
      <trkpt lat="48.9139" lon="2.06541">
        <ele>73.8</ele>
        <time>2022-04-05T09:59:47Z</time>
      </trkpt>
      <trkpt lat="48.91395" lon="2.06543">
        <ele>73.3</ele>
        <time>2022-04-05T09:59:54Z</time>
      </trkpt>
      <trkpt lat="48.914" lon="2.06543">
        <ele>72.8</ele>
        <time>2022-04-05T10:00:05Z</time>
      </trkpt>
      <trkpt lat="48.91404" lon="2.06538">
        <ele>73.3</ele>
        <time>2022-04-05T10:00:10Z</time>
      </trkpt>
      <trkpt lat="48.91406" lon="2.06531">
        <ele>73.4</ele>
        <time>2022-04-05T10:00:13Z</time>
      </trkpt>
      <trkpt lat="48.91407" lon="2.06522">
        <ele>73.4</ele>
        <time>2022-04-05T10:00:18Z</time>
      </trkpt>
      <trkpt lat="48.91411" lon="2.06525">
        <ele>72.7</ele>
        <time>2022-04-05T10:00:28Z</time>
      </trkpt>
      <trkpt lat="48.91408" lon="2.06521">
        <ele>71.3</ele>
        <time>2022-04-05T10:00:49Z</time>
      </trkpt>
      <trkpt lat="48.91407" lon="2.06511">
        <ele>71.2</ele>
        <time>2022-04-05T10:00:54Z</time>
      </trkpt>
      <trkpt lat="48.91409" lon="2.06504">
        <ele>70.5</ele>
        <time>2022-04-05T10:00:58Z</time>
      </trkpt>
      <trkpt lat="48.91412" lon="2.06498">
        <ele>69.8</ele>
        <time>2022-04-05T10:01:04Z</time>
      </trkpt>
      <trkpt lat="48.91414" lon="2.06491">
        <ele>71.4</ele>
        <time>2022-04-05T10:01:11Z</time>
      </trkpt>
      <trkpt lat="48.91417" lon="2.06483">
        <ele>74.2</ele>
        <time>2022-04-05T10:01:16Z</time>
      </trkpt>
      <trkpt lat="48.91419" lon="2.06476">
        <ele>75.6</ele>
        <time>2022-04-05T10:01:21Z</time>
      </trkpt>
      <trkpt lat="48.91422" lon="2.0647">
        <ele>76.3</ele>
        <time>2022-04-05T10:01:26Z</time>
      </trkpt>
      <trkpt lat="48.91424" lon="2.06464">
        <ele>77.8</ele>
        <time>2022-04-05T10:01:30Z</time>
      </trkpt>
      <trkpt lat="48.91426" lon="2.06457">
        <ele>77.8</ele>
        <time>2022-04-05T10:01:34Z</time>
      </trkpt>
      <trkpt lat="48.91428" lon="2.0645">
        <ele>76.4</ele>
        <time>2022-04-05T10:01:39Z</time>
      </trkpt>
      <trkpt lat="48.9143" lon="2.06444">
        <ele>75</ele>
        <time>2022-04-05T10:01:43Z</time>
      </trkpt>
      <trkpt lat="48.91433" lon="2.06436">
        <ele>74.1</ele>
        <time>2022-04-05T10:01:49Z</time>
      </trkpt>
      <trkpt lat="48.91434" lon="2.06428">
        <ele>73.1</ele>
        <time>2022-04-05T10:01:53Z</time>
      </trkpt>
      <trkpt lat="48.91437" lon="2.06422">
        <ele>71.8</ele>
        <time>2022-04-05T10:01:58Z</time>
      </trkpt>
      <trkpt lat="48.91439" lon="2.06415">
        <ele>71.1</ele>
        <time>2022-04-05T10:02:02Z</time>
      </trkpt>
      <trkpt lat="48.91442" lon="2.06407">
        <ele>71.4</ele>
        <time>2022-04-05T10:02:07Z</time>
      </trkpt>
      <trkpt lat="48.91444" lon="2.06399">
        <ele>72.4</ele>
        <time>2022-04-05T10:02:11Z</time>
      </trkpt>
      <trkpt lat="48.91446" lon="2.06392">
        <ele>73.4</ele>
        <time>2022-04-05T10:02:17Z</time>
      </trkpt>
      <trkpt lat="48.91447" lon="2.06385">
        <ele>73.5</ele>
        <time>2022-04-05T10:02:21Z</time>
      </trkpt>
      <trkpt lat="48.91447" lon="2.06378">
        <ele>72.8</ele>
        <time>2022-04-05T10:02:25Z</time>
      </trkpt>
      <trkpt lat="48.91448" lon="2.0637">
        <ele>73.2</ele>
        <time>2022-04-05T10:02:31Z</time>
      </trkpt>
      <trkpt lat="48.91448" lon="2.06362">
        <ele>73.3</ele>
        <time>2022-04-05T10:02:35Z</time>
      </trkpt>
      <trkpt lat="48.91447" lon="2.06355">
        <ele>73.1</ele>
        <time>2022-04-05T10:02:39Z</time>
      </trkpt>
      <trkpt lat="48.91445" lon="2.06347">
        <ele>72.5</ele>
        <time>2022-04-05T10:02:43Z</time>
      </trkpt>
      <trkpt lat="48.91443" lon="2.0634">
        <ele>72.7</ele>
        <time>2022-04-05T10:02:47Z</time>
      </trkpt>
      <trkpt lat="48.91442" lon="2.06333">
        <ele>73.4</ele>
        <time>2022-04-05T10:02:52Z</time>
      </trkpt>
      <trkpt lat="48.91442" lon="2.06325">
        <ele>73.9</ele>
        <time>2022-04-05T10:02:55Z</time>
      </trkpt>
      <trkpt lat="48.91443" lon="2.06318">
        <ele>74.9</ele>
        <time>2022-04-05T10:02:59Z</time>
      </trkpt>
      <trkpt lat="48.91443" lon="2.06311">
        <ele>76.2</ele>
        <time>2022-04-05T10:03:02Z</time>
      </trkpt>
      <trkpt lat="48.91443" lon="2.06304">
        <ele>76.6</ele>
        <time>2022-04-05T10:03:06Z</time>
      </trkpt>
      <trkpt lat="48.91443" lon="2.06296">
        <ele>75.4</ele>
        <time>2022-04-05T10:03:10Z</time>
      </trkpt>
      <trkpt lat="48.91442" lon="2.06289">
        <ele>74.6</ele>
        <time>2022-04-05T10:03:14Z</time>
      </trkpt>
      <trkpt lat="48.91443" lon="2.0628">
        <ele>73.1</ele>
        <time>2022-04-05T10:03:20Z</time>
      </trkpt>
      <trkpt lat="48.91443" lon="2.06272">
        <ele>71.8</ele>
        <time>2022-04-05T10:03:24Z</time>
      </trkpt>
      <trkpt lat="48.91442" lon="2.06266">
        <ele>71.2</ele>
        <time>2022-04-05T10:03:28Z</time>
      </trkpt>
      <trkpt lat="48.91441" lon="2.06258">
        <ele>71</ele>
        <time>2022-04-05T10:03:32Z</time>
      </trkpt>
      <trkpt lat="48.91442" lon="2.0625">
        <ele>71.4</ele>
        <time>2022-04-05T10:03:38Z</time>
      </trkpt>
      <trkpt lat="48.91443" lon="2.06242">
        <ele>71.7</ele>
        <time>2022-04-05T10:03:42Z</time>
      </trkpt>
      <trkpt lat="48.91444" lon="2.06235">
        <ele>71.4</ele>
        <time>2022-04-05T10:03:47Z</time>
      </trkpt>
      <trkpt lat="48.91442" lon="2.06228">
        <ele>69.7</ele>
        <time>2022-04-05T10:03:51Z</time>
      </trkpt>
      <trkpt lat="48.91439" lon="2.06223">
        <ele>68.5</ele>
        <time>2022-04-05T10:03:56Z</time>
      </trkpt>
      <trkpt lat="48.91436" lon="2.06217">
        <ele>68.2</ele>
        <time>2022-04-05T10:04:00Z</time>
      </trkpt>
      <trkpt lat="48.91433" lon="2.06211">
        <ele>67.4</ele>
        <time>2022-04-05T10:04:04Z</time>
      </trkpt>
      <trkpt lat="48.91429" lon="2.06205">
        <ele>66</ele>
        <time>2022-04-05T10:04:09Z</time>
      </trkpt>
      <trkpt lat="48.91426" lon="2.06198">
        <ele>65.3</ele>
        <time>2022-04-05T10:04:13Z</time>
      </trkpt>
      <trkpt lat="48.91423" lon="2.06191">
        <ele>65.3</ele>
        <time>2022-04-05T10:04:17Z</time>
      </trkpt>
      <trkpt lat="48.9142" lon="2.06184">
        <ele>66</ele>
        <time>2022-04-05T10:04:22Z</time>
      </trkpt>
      <trkpt lat="48.91417" lon="2.06177">
        <ele>67</ele>
        <time>2022-04-05T10:04:26Z</time>
      </trkpt>
      <trkpt lat="48.91414" lon="2.0617">
        <ele>67.3</ele>
        <time>2022-04-05T10:04:31Z</time>
      </trkpt>
      <trkpt lat="48.91411" lon="2.06164">
        <ele>67.2</ele>
        <time>2022-04-05T10:04:35Z</time>
      </trkpt>
      <trkpt lat="48.91407" lon="2.06157">
        <ele>66.6</ele>
        <time>2022-04-05T10:04:41Z</time>
      </trkpt>
      <trkpt lat="48.91405" lon="2.06149">
        <ele>65.7</ele>
        <time>2022-04-05T10:04:46Z</time>
      </trkpt>
      <trkpt lat="48.91402" lon="2.06143">
        <ele>64.9</ele>
        <time>2022-04-05T10:04:51Z</time>
      </trkpt>
      <trkpt lat="48.91399" lon="2.06136">
        <ele>64.3</ele>
        <time>2022-04-05T10:04:54Z</time>
      </trkpt>
      <trkpt lat="48.91396" lon="2.0613">
        <ele>63.4</ele>
        <time>2022-04-05T10:04:57Z</time>
      </trkpt>
      <trkpt lat="48.91393" lon="2.06124">
        <ele>62.8</ele>
        <time>2022-04-05T10:05:01Z</time>
      </trkpt>
      <trkpt lat="48.91391" lon="2.06118">
        <ele>62.1</ele>
        <time>2022-04-05T10:05:04Z</time>
      </trkpt>
      <trkpt lat="48.91387" lon="2.06112">
        <ele>61</ele>
        <time>2022-04-05T10:05:08Z</time>
      </trkpt>
      <trkpt lat="48.91385" lon="2.06105">
        <ele>60.6</ele>
        <time>2022-04-05T10:05:13Z</time>
      </trkpt>
      <trkpt lat="48.91382" lon="2.06098">
        <ele>61.1</ele>
        <time>2022-04-05T10:05:17Z</time>
      </trkpt>
      <trkpt lat="48.9138" lon="2.0609">
        <ele>61.5</ele>
        <time>2022-04-05T10:05:22Z</time>
      </trkpt>
      <trkpt lat="48.91378" lon="2.06083">
        <ele>61.5</ele>
        <time>2022-04-05T10:05:26Z</time>
      </trkpt>
      <trkpt lat="48.91375" lon="2.06076">
        <ele>60.9</ele>
        <time>2022-04-05T10:05:30Z</time>
      </trkpt>
      <trkpt lat="48.91372" lon="2.06069">
        <ele>60.6</ele>
        <time>2022-04-05T10:05:34Z</time>
      </trkpt>
      <trkpt lat="48.91368" lon="2.06063">
        <ele>61.5</ele>
        <time>2022-04-05T10:05:39Z</time>
      </trkpt>
      <trkpt lat="48.91365" lon="2.06057">
        <ele>64.5</ele>
        <time>2022-04-05T10:05:43Z</time>
      </trkpt>
      <trkpt lat="48.91362" lon="2.06051">
        <ele>65.7</ele>
        <time>2022-04-05T10:05:47Z</time>
      </trkpt>
      <trkpt lat="48.91359" lon="2.06045">
        <ele>66.2</ele>
        <time>2022-04-05T10:05:51Z</time>
      </trkpt>
      <trkpt lat="48.91356" lon="2.06039">
        <ele>66.3</ele>
        <time>2022-04-05T10:05:55Z</time>
      </trkpt>
      <trkpt lat="48.91354" lon="2.06033">
        <ele>65.2</ele>
        <time>2022-04-05T10:05:59Z</time>
      </trkpt>
      <trkpt lat="48.91351" lon="2.06027">
        <ele>64.5</ele>
        <time>2022-04-05T10:06:04Z</time>
      </trkpt>
      <trkpt lat="48.91348" lon="2.0602">
        <ele>64.6</ele>
        <time>2022-04-05T10:06:08Z</time>
      </trkpt>
      <trkpt lat="48.91345" lon="2.06013">
        <ele>65</ele>
        <time>2022-04-05T10:06:12Z</time>
      </trkpt>
      <trkpt lat="48.91343" lon="2.06007">
        <ele>65.1</ele>
        <time>2022-04-05T10:06:15Z</time>
      </trkpt>
      <trkpt lat="48.9134" lon="2.06">
        <ele>64.8</ele>
        <time>2022-04-05T10:06:19Z</time>
      </trkpt>
      <trkpt lat="48.91338" lon="2.05992">
        <ele>63</ele>
        <time>2022-04-05T10:06:23Z</time>
      </trkpt>
      <trkpt lat="48.91336" lon="2.05985">
        <ele>61.6</ele>
        <time>2022-04-05T10:06:28Z</time>
      </trkpt>
      <trkpt lat="48.91333" lon="2.05979">
        <ele>61.7</ele>
        <time>2022-04-05T10:06:33Z</time>
      </trkpt>
      <trkpt lat="48.9133" lon="2.05972">
        <ele>62.2</ele>
        <time>2022-04-05T10:06:37Z</time>
      </trkpt>
      <trkpt lat="48.91327" lon="2.05965">
        <ele>62</ele>
        <time>2022-04-05T10:06:42Z</time>
      </trkpt>
      <trkpt lat="48.91325" lon="2.05958">
        <ele>61.6</ele>
        <time>2022-04-05T10:06:46Z</time>
      </trkpt>
      <trkpt lat="48.91323" lon="2.0595">
        <ele>62</ele>
        <time>2022-04-05T10:06:50Z</time>
      </trkpt>
      <trkpt lat="48.9132" lon="2.05943">
        <ele>64.5</ele>
        <time>2022-04-05T10:06:54Z</time>
      </trkpt>
      <trkpt lat="48.91317" lon="2.05936">
        <ele>65.1</ele>
        <time>2022-04-05T10:06:58Z</time>
      </trkpt>
      <trkpt lat="48.91315" lon="2.05929">
        <ele>65.4</ele>
        <time>2022-04-05T10:07:03Z</time>
      </trkpt>
      <trkpt lat="48.91312" lon="2.05921">
        <ele>66.2</ele>
        <time>2022-04-05T10:07:07Z</time>
      </trkpt>
      <trkpt lat="48.91309" lon="2.05915">
        <ele>66.5</ele>
        <time>2022-04-05T10:07:11Z</time>
      </trkpt>
      <trkpt lat="48.91305" lon="2.0591">
        <ele>67.4</ele>
        <time>2022-04-05T10:07:16Z</time>
      </trkpt>
      <trkpt lat="48.91303" lon="2.05904">
        <ele>67.8</ele>
        <time>2022-04-05T10:07:20Z</time>
      </trkpt>
      <trkpt lat="48.91303" lon="2.05896">
        <ele>67.5</ele>
        <time>2022-04-05T10:07:24Z</time>
      </trkpt>
      <trkpt lat="48.91306" lon="2.0589">
        <ele>67.4</ele>
        <time>2022-04-05T10:07:29Z</time>
      </trkpt>
      <trkpt lat="48.9131" lon="2.05884">
        <ele>67.7</ele>
        <time>2022-04-05T10:07:33Z</time>
      </trkpt>
      <trkpt lat="48.91313" lon="2.0588">
        <ele>67.7</ele>
        <time>2022-04-05T10:07:36Z</time>
      </trkpt>
      <trkpt lat="48.91318" lon="2.05874">
        <ele>67</ele>
        <time>2022-04-05T10:07:40Z</time>
      </trkpt>
      <trkpt lat="48.91322" lon="2.05869">
        <ele>66.2</ele>
        <time>2022-04-05T10:07:44Z</time>
      </trkpt>
      <trkpt lat="48.91326" lon="2.05863">
        <ele>65.6</ele>
        <time>2022-04-05T10:07:48Z</time>
      </trkpt>
      <trkpt lat="48.91329" lon="2.05856">
        <ele>64.4</ele>
        <time>2022-04-05T10:07:52Z</time>
      </trkpt>
      <trkpt lat="48.91332" lon="2.05851">
        <ele>63.4</ele>
        <time>2022-04-05T10:07:57Z</time>
      </trkpt>
      <trkpt lat="48.91336" lon="2.05846">
        <ele>63.3</ele>
        <time>2022-04-05T10:08:01Z</time>
      </trkpt>
      <trkpt lat="48.9134" lon="2.05843">
        <ele>64.7</ele>
        <time>2022-04-05T10:08:05Z</time>
      </trkpt>
      <trkpt lat="48.91344" lon="2.05839">
        <ele>65.4</ele>
        <time>2022-04-05T10:08:09Z</time>
      </trkpt>
      <trkpt lat="48.91349" lon="2.05833">
        <ele>65.7</ele>
        <time>2022-04-05T10:08:13Z</time>
      </trkpt>
      <trkpt lat="48.91353" lon="2.05826">
        <ele>66.2</ele>
        <time>2022-04-05T10:08:18Z</time>
      </trkpt>
      <trkpt lat="48.91356" lon="2.05821">
        <ele>66.9</ele>
        <time>2022-04-05T10:08:21Z</time>
      </trkpt>
      <trkpt lat="48.9136" lon="2.05815">
        <ele>67.6</ele>
        <time>2022-04-05T10:08:26Z</time>
      </trkpt>
      <trkpt lat="48.91364" lon="2.0581">
        <ele>68.6</ele>
        <time>2022-04-05T10:08:30Z</time>
      </trkpt>
      <trkpt lat="48.91367" lon="2.05802">
        <ele>70.3</ele>
        <time>2022-04-05T10:08:34Z</time>
      </trkpt>
      <trkpt lat="48.91369" lon="2.05796">
        <ele>71.6</ele>
        <time>2022-04-05T10:08:38Z</time>
      </trkpt>
      <trkpt lat="48.91372" lon="2.0579">
        <ele>71.8</ele>
        <time>2022-04-05T10:08:41Z</time>
      </trkpt>
      <trkpt lat="48.91375" lon="2.05785">
        <ele>71.3</ele>
        <time>2022-04-05T10:08:45Z</time>
      </trkpt>
      <trkpt lat="48.91379" lon="2.05779">
        <ele>69.8</ele>
        <time>2022-04-05T10:08:49Z</time>
      </trkpt>
      <trkpt lat="48.91383" lon="2.05774">
        <ele>68.5</ele>
        <time>2022-04-05T10:08:53Z</time>
      </trkpt>
      <trkpt lat="48.91387" lon="2.05771">
        <ele>67.5</ele>
        <time>2022-04-05T10:08:57Z</time>
      </trkpt>
      <trkpt lat="48.9139" lon="2.05766">
        <ele>65.7</ele>
        <time>2022-04-05T10:09:01Z</time>
      </trkpt>
      <trkpt lat="48.91393" lon="2.0576">
        <ele>64</ele>
        <time>2022-04-05T10:09:05Z</time>
      </trkpt>
      <trkpt lat="48.91398" lon="2.05754">
        <ele>62.6</ele>
        <time>2022-04-05T10:09:10Z</time>
      </trkpt>
      <trkpt lat="48.91401" lon="2.05747">
        <ele>63</ele>
        <time>2022-04-05T10:09:14Z</time>
      </trkpt>
      <trkpt lat="48.91403" lon="2.05741">
        <ele>63.9</ele>
        <time>2022-04-05T10:09:18Z</time>
      </trkpt>
      <trkpt lat="48.91407" lon="2.05735">
        <ele>63.9</ele>
        <time>2022-04-05T10:09:22Z</time>
      </trkpt>
      <trkpt lat="48.91411" lon="2.0573">
        <ele>64.4</ele>
        <time>2022-04-05T10:09:26Z</time>
      </trkpt>
      <trkpt lat="48.91414" lon="2.05724">
        <ele>65</ele>
        <time>2022-04-05T10:09:30Z</time>
      </trkpt>
      <trkpt lat="48.91418" lon="2.05719">
        <ele>64.5</ele>
        <time>2022-04-05T10:09:34Z</time>
      </trkpt>
      <trkpt lat="48.91421" lon="2.05713">
        <ele>63.4</ele>
        <time>2022-04-05T10:09:38Z</time>
      </trkpt>
      <trkpt lat="48.91424" lon="2.05708">
        <ele>63.3</ele>
        <time>2022-04-05T10:09:42Z</time>
      </trkpt>
      <trkpt lat="48.91427" lon="2.05702">
        <ele>64.8</ele>
        <time>2022-04-05T10:09:46Z</time>
      </trkpt>
      <trkpt lat="48.91431" lon="2.05697">
        <ele>66.2</ele>
        <time>2022-04-05T10:09:50Z</time>
      </trkpt>
      <trkpt lat="48.91435" lon="2.05691">
        <ele>66.1</ele>
        <time>2022-04-05T10:09:54Z</time>
      </trkpt>
      <trkpt lat="48.91438" lon="2.05685">
        <ele>65.4</ele>
        <time>2022-04-05T10:09:58Z</time>
      </trkpt>
      <trkpt lat="48.91441" lon="2.05679">
        <ele>65.8</ele>
        <time>2022-04-05T10:10:02Z</time>
      </trkpt>
      <trkpt lat="48.91445" lon="2.05675">
        <ele>66.7</ele>
        <time>2022-04-05T10:10:06Z</time>
      </trkpt>
      <trkpt lat="48.91448" lon="2.0567">
        <ele>66.9</ele>
        <time>2022-04-05T10:10:10Z</time>
      </trkpt>
      <trkpt lat="48.91452" lon="2.05663">
        <ele>67.2</ele>
        <time>2022-04-05T10:10:14Z</time>
      </trkpt>
      <trkpt lat="48.91455" lon="2.05656">
        <ele>68</ele>
        <time>2022-04-05T10:10:18Z</time>
      </trkpt>
      <trkpt lat="48.91458" lon="2.05651">
        <ele>68</ele>
        <time>2022-04-05T10:10:23Z</time>
      </trkpt>
      <trkpt lat="48.91462" lon="2.05646">
        <ele>67.1</ele>
        <time>2022-04-05T10:10:27Z</time>
      </trkpt>
      <trkpt lat="48.91466" lon="2.05641">
        <ele>65.9</ele>
        <time>2022-04-05T10:10:31Z</time>
      </trkpt>
      <trkpt lat="48.9147" lon="2.05635">
        <ele>64.7</ele>
        <time>2022-04-05T10:10:36Z</time>
      </trkpt>
      <trkpt lat="48.91474" lon="2.05628">
        <ele>64.6</ele>
        <time>2022-04-05T10:10:40Z</time>
      </trkpt>
      <trkpt lat="48.91478" lon="2.05623">
        <ele>64.8</ele>
        <time>2022-04-05T10:10:45Z</time>
      </trkpt>
      <trkpt lat="48.91482" lon="2.05617">
        <ele>64.8</ele>
        <time>2022-04-05T10:10:49Z</time>
      </trkpt>
      <trkpt lat="48.91487" lon="2.05611">
        <ele>64</ele>
        <time>2022-04-05T10:10:54Z</time>
      </trkpt>
      <trkpt lat="48.9149" lon="2.05606">
        <ele>62.9</ele>
        <time>2022-04-05T10:10:57Z</time>
      </trkpt>
      <trkpt lat="48.91493" lon="2.056">
        <ele>61.7</ele>
        <time>2022-04-05T10:11:01Z</time>
      </trkpt>
      <trkpt lat="48.91496" lon="2.05594">
        <ele>61.6</ele>
        <time>2022-04-05T10:11:05Z</time>
      </trkpt>
      <trkpt lat="48.91499" lon="2.05587">
        <ele>61.9</ele>
        <time>2022-04-05T10:11:09Z</time>
      </trkpt>
      <trkpt lat="48.91499" lon="2.05579">
        <ele>62.5</ele>
        <time>2022-04-05T10:11:13Z</time>
      </trkpt>
      <trkpt lat="48.91496" lon="2.05572">
        <ele>62.7</ele>
        <time>2022-04-05T10:11:17Z</time>
      </trkpt>
      <trkpt lat="48.91493" lon="2.05567">
        <ele>62.7</ele>
        <time>2022-04-05T10:11:20Z</time>
      </trkpt>
      <trkpt lat="48.91489" lon="2.05561">
        <ele>63.1</ele>
        <time>2022-04-05T10:11:24Z</time>
      </trkpt>
      <trkpt lat="48.91485" lon="2.05555">
        <ele>63.5</ele>
        <time>2022-04-05T10:11:29Z</time>
      </trkpt>
      <trkpt lat="48.91481" lon="2.0555">
        <ele>64.2</ele>
        <time>2022-04-05T10:11:33Z</time>
      </trkpt>
      <trkpt lat="48.91477" lon="2.05546">
        <ele>65.2</ele>
        <time>2022-04-05T10:11:36Z</time>
      </trkpt>
      <trkpt lat="48.91474" lon="2.0554">
        <ele>65.6</ele>
        <time>2022-04-05T10:11:39Z</time>
      </trkpt>
      <trkpt lat="48.91471" lon="2.05532">
        <ele>66.5</ele>
        <time>2022-04-05T10:11:44Z</time>
      </trkpt>
      <trkpt lat="48.91467" lon="2.05525">
        <ele>68.9</ele>
        <time>2022-04-05T10:11:48Z</time>
      </trkpt>
      <trkpt lat="48.91463" lon="2.05519">
        <ele>70.6</ele>
        <time>2022-04-05T10:11:53Z</time>
      </trkpt>
      <trkpt lat="48.91461" lon="2.05513">
        <ele>70.9</ele>
        <time>2022-04-05T10:11:56Z</time>
      </trkpt>
      <trkpt lat="48.91457" lon="2.05507">
        <ele>71.5</ele>
        <time>2022-04-05T10:12:01Z</time>
      </trkpt>
      <trkpt lat="48.91454" lon="2.05499">
        <ele>73.2</ele>
        <time>2022-04-05T10:12:05Z</time>
      </trkpt>
      <trkpt lat="48.91451" lon="2.05493">
        <ele>75</ele>
        <time>2022-04-05T10:12:09Z</time>
      </trkpt>
      <trkpt lat="48.91447" lon="2.05487">
        <ele>76.9</ele>
        <time>2022-04-05T10:12:13Z</time>
      </trkpt>
      <trkpt lat="48.91443" lon="2.05481">
        <ele>79.2</ele>
        <time>2022-04-05T10:12:17Z</time>
      </trkpt>
      <trkpt lat="48.9144" lon="2.05474">
        <ele>80.1</ele>
        <time>2022-04-05T10:12:21Z</time>
      </trkpt>
      <trkpt lat="48.91438" lon="2.05467">
        <ele>80.1</ele>
        <time>2022-04-05T10:12:25Z</time>
      </trkpt>
      <trkpt lat="48.91435" lon="2.05461">
        <ele>79.3</ele>
        <time>2022-04-05T10:12:29Z</time>
      </trkpt>
      <trkpt lat="48.91432" lon="2.05455">
        <ele>79</ele>
        <time>2022-04-05T10:12:34Z</time>
      </trkpt>
      <trkpt lat="48.91429" lon="2.05448">
        <ele>79.1</ele>
        <time>2022-04-05T10:12:38Z</time>
      </trkpt>
      <trkpt lat="48.91426" lon="2.05442">
        <ele>79.3</ele>
        <time>2022-04-05T10:12:42Z</time>
      </trkpt>
      <trkpt lat="48.91422" lon="2.05435">
        <ele>79.8</ele>
        <time>2022-04-05T10:12:47Z</time>
      </trkpt>
      <trkpt lat="48.91419" lon="2.05427">
        <ele>80.8</ele>
        <time>2022-04-05T10:12:51Z</time>
      </trkpt>
      <trkpt lat="48.91416" lon="2.05421">
        <ele>81.3</ele>
        <time>2022-04-05T10:12:55Z</time>
      </trkpt>
      <trkpt lat="48.91415" lon="2.05414">
        <ele>80.4</ele>
        <time>2022-04-05T10:12:58Z</time>
      </trkpt>
      <trkpt lat="48.91412" lon="2.05407">
        <ele>78.8</ele>
        <time>2022-04-05T10:13:02Z</time>
      </trkpt>
      <trkpt lat="48.91409" lon="2.05401">
        <ele>78</ele>
        <time>2022-04-05T10:13:06Z</time>
      </trkpt>
      <trkpt lat="48.91406" lon="2.05394">
        <ele>75.5</ele>
        <time>2022-04-05T10:13:10Z</time>
      </trkpt>
      <trkpt lat="48.91403" lon="2.05387">
        <ele>72.8</ele>
        <time>2022-04-05T10:13:14Z</time>
      </trkpt>
      <trkpt lat="48.91401" lon="2.0538">
        <ele>71.9</ele>
        <time>2022-04-05T10:13:18Z</time>
      </trkpt>
      <trkpt lat="48.91397" lon="2.05373">
        <ele>71.8</ele>
        <time>2022-04-05T10:13:22Z</time>
      </trkpt>
      <trkpt lat="48.91394" lon="2.05367">
        <ele>72</ele>
        <time>2022-04-05T10:13:26Z</time>
      </trkpt>
      <trkpt lat="48.91392" lon="2.05361">
        <ele>72.7</ele>
        <time>2022-04-05T10:13:31Z</time>
      </trkpt>
      <trkpt lat="48.91389" lon="2.05354">
        <ele>74.4</ele>
        <time>2022-04-05T10:13:35Z</time>
      </trkpt>
      <trkpt lat="48.91386" lon="2.05348">
        <ele>76.3</ele>
        <time>2022-04-05T10:13:40Z</time>
      </trkpt>
      <trkpt lat="48.91384" lon="2.0534">
        <ele>76</ele>
        <time>2022-04-05T10:13:44Z</time>
      </trkpt>
      <trkpt lat="48.91383" lon="2.05333">
        <ele>72.7</ele>
        <time>2022-04-05T10:13:49Z</time>
      </trkpt>
      <trkpt lat="48.91382" lon="2.05325">
        <ele>69</ele>
        <time>2022-04-05T10:13:53Z</time>
      </trkpt>
      <trkpt lat="48.9138" lon="2.05318">
        <ele>67.5</ele>
        <time>2022-04-05T10:13:57Z</time>
      </trkpt>
      <trkpt lat="48.91376" lon="2.05311">
        <ele>68.1</ele>
        <time>2022-04-05T10:14:01Z</time>
      </trkpt>
      <trkpt lat="48.91374" lon="2.05305">
        <ele>68.7</ele>
        <time>2022-04-05T10:14:06Z</time>
      </trkpt>
      <trkpt lat="48.91372" lon="2.05297">
        <ele>67.8</ele>
        <time>2022-04-05T10:14:10Z</time>
      </trkpt>
      <trkpt lat="48.9137" lon="2.05291">
        <ele>66.1</ele>
        <time>2022-04-05T10:14:14Z</time>
      </trkpt>
      <trkpt lat="48.91368" lon="2.05284">
        <ele>65.1</ele>
        <time>2022-04-05T10:14:18Z</time>
      </trkpt>
      <trkpt lat="48.91365" lon="2.05277">
        <ele>64.9</ele>
        <time>2022-04-05T10:14:22Z</time>
      </trkpt>
      <trkpt lat="48.91362" lon="2.05272">
        <ele>65.1</ele>
        <time>2022-04-05T10:14:26Z</time>
      </trkpt>
      <trkpt lat="48.9136" lon="2.05266">
        <ele>65.4</ele>
        <time>2022-04-05T10:14:30Z</time>
      </trkpt>
      <trkpt lat="48.91357" lon="2.05261">
        <ele>65.6</ele>
        <time>2022-04-05T10:14:34Z</time>
      </trkpt>
      <trkpt lat="48.91354" lon="2.05255">
        <ele>65.3</ele>
        <time>2022-04-05T10:14:38Z</time>
      </trkpt>
      <trkpt lat="48.91351" lon="2.05248">
        <ele>64.6</ele>
        <time>2022-04-05T10:14:42Z</time>
      </trkpt>
      <trkpt lat="48.91349" lon="2.05241">
        <ele>64.5</ele>
        <time>2022-04-05T10:14:47Z</time>
      </trkpt>
      <trkpt lat="48.91346" lon="2.05235">
        <ele>65.2</ele>
        <time>2022-04-05T10:14:51Z</time>
      </trkpt>
      <trkpt lat="48.91342" lon="2.05229">
        <ele>65.5</ele>
        <time>2022-04-05T10:14:55Z</time>
      </trkpt>
      <trkpt lat="48.91343" lon="2.0522">
        <ele>64.6</ele>
        <time>2022-04-05T10:14:59Z</time>
      </trkpt>
      <trkpt lat="48.91346" lon="2.05212">
        <ele>61.6</ele>
        <time>2022-04-05T10:15:03Z</time>
      </trkpt>
      <trkpt lat="48.9135" lon="2.05207">
        <ele>58.5</ele>
        <time>2022-04-05T10:15:07Z</time>
      </trkpt>
      <trkpt lat="48.91353" lon="2.052">
        <ele>56.8</ele>
        <time>2022-04-05T10:15:11Z</time>
      </trkpt>
      <trkpt lat="48.91357" lon="2.05193">
        <ele>56.6</ele>
        <time>2022-04-05T10:15:16Z</time>
      </trkpt>
      <trkpt lat="48.9136" lon="2.05186">
        <ele>57.1</ele>
        <time>2022-04-05T10:15:20Z</time>
      </trkpt>
      <trkpt lat="48.91361" lon="2.0518">
        <ele>57.2</ele>
        <time>2022-04-05T10:15:24Z</time>
      </trkpt>
      <trkpt lat="48.91363" lon="2.05172">
        <ele>57.2</ele>
        <time>2022-04-05T10:15:28Z</time>
      </trkpt>
      <trkpt lat="48.91366" lon="2.05165">
        <ele>57.2</ele>
        <time>2022-04-05T10:15:31Z</time>
      </trkpt>
      <trkpt lat="48.91368" lon="2.05158">
        <ele>57.2</ele>
        <time>2022-04-05T10:15:34Z</time>
      </trkpt>
      <trkpt lat="48.9137" lon="2.05151">
        <ele>57.2</ele>
        <time>2022-04-05T10:15:37Z</time>
      </trkpt>
      <trkpt lat="48.91373" lon="2.05143">
        <ele>57.8</ele>
        <time>2022-04-05T10:15:41Z</time>
      </trkpt>
      <trkpt lat="48.91376" lon="2.05136">
        <ele>59.8</ele>
        <time>2022-04-05T10:15:45Z</time>
      </trkpt>
      <trkpt lat="48.91379" lon="2.05129">
        <ele>60.6</ele>
        <time>2022-04-05T10:15:50Z</time>
      </trkpt>
      <trkpt lat="48.91382" lon="2.05124">
        <ele>60.5</ele>
        <time>2022-04-05T10:15:53Z</time>
      </trkpt>
      <trkpt lat="48.91385" lon="2.05117">
        <ele>61</ele>
        <time>2022-04-05T10:16:02Z</time>
      </trkpt>
      <trkpt lat="48.9139" lon="2.05117">
        <ele>60</ele>
        <time>2022-04-05T10:16:25Z</time>
      </trkpt>
      <trkpt lat="48.91394" lon="2.05115">
        <ele>60.2</ele>
        <time>2022-04-05T10:16:30Z</time>
      </trkpt>
      <trkpt lat="48.91398" lon="2.0511">
        <ele>61.5</ele>
        <time>2022-04-05T10:16:37Z</time>
      </trkpt>
      <trkpt lat="48.91403" lon="2.05106">
        <ele>61.6</ele>
        <time>2022-04-05T10:16:44Z</time>
      </trkpt>
      <trkpt lat="48.91407" lon="2.05102">
        <ele>61.4</ele>
        <time>2022-04-05T10:16:52Z</time>
      </trkpt>
      <trkpt lat="48.9141" lon="2.05096">
        <ele>61.1</ele>
        <time>2022-04-05T10:17:00Z</time>
      </trkpt>
      <trkpt lat="48.91415" lon="2.05091">
        <ele>60.7</ele>
        <time>2022-04-05T10:17:06Z</time>
      </trkpt>
      <trkpt lat="48.91418" lon="2.05085">
        <ele>61.3</ele>
        <time>2022-04-05T10:17:13Z</time>
      </trkpt>
      <trkpt lat="48.91413" lon="2.05083">
        <ele>62.1</ele>
        <time>2022-04-05T10:17:19Z</time>
      </trkpt>
      <trkpt lat="48.91418" lon="2.05077">
        <ele>58.1</ele>
        <time>2022-04-05T10:18:37Z</time>
      </trkpt>
      <trkpt lat="48.91421" lon="2.05072">
        <ele>55</ele>
        <time>2022-04-05T10:18:41Z</time>
      </trkpt>
      <trkpt lat="48.91425" lon="2.05066">
        <ele>51.8</ele>
        <time>2022-04-05T10:18:47Z</time>
      </trkpt>
      <trkpt lat="48.91428" lon="2.05062">
        <ele>52.3</ele>
        <time>2022-04-05T10:18:50Z</time>
      </trkpt>
      <trkpt lat="48.91432" lon="2.05057">
        <ele>52.7</ele>
        <time>2022-04-05T10:18:53Z</time>
      </trkpt>
      <trkpt lat="48.91436" lon="2.05053">
        <ele>52.8</ele>
        <time>2022-04-05T10:18:57Z</time>
      </trkpt>
      <trkpt lat="48.9144" lon="2.05047">
        <ele>53.4</ele>
        <time>2022-04-05T10:19:02Z</time>
      </trkpt>
      <trkpt lat="48.91444" lon="2.05043">
        <ele>54.9</ele>
        <time>2022-04-05T10:19:06Z</time>
      </trkpt>
      <trkpt lat="48.91448" lon="2.05036">
        <ele>56</ele>
        <time>2022-04-05T10:19:12Z</time>
      </trkpt>
      <trkpt lat="48.91451" lon="2.05031">
        <ele>55.8</ele>
        <time>2022-04-05T10:19:18Z</time>
      </trkpt>
      <trkpt lat="48.91455" lon="2.05024">
        <ele>55.8</ele>
        <time>2022-04-05T10:19:23Z</time>
      </trkpt>
      <trkpt lat="48.91458" lon="2.05018">
        <ele>56.1</ele>
        <time>2022-04-05T10:19:29Z</time>
      </trkpt>
      <trkpt lat="48.91461" lon="2.05012">
        <ele>56.7</ele>
        <time>2022-04-05T10:19:33Z</time>
      </trkpt>
      <trkpt lat="48.91464" lon="2.05006">
        <ele>56.7</ele>
        <time>2022-04-05T10:19:37Z</time>
      </trkpt>
      <trkpt lat="48.91468" lon="2.05001">
        <ele>57.3</ele>
        <time>2022-04-05T10:19:42Z</time>
      </trkpt>
      <trkpt lat="48.91471" lon="2.04996">
        <ele>58</ele>
        <time>2022-04-05T10:19:45Z</time>
      </trkpt>
      <trkpt lat="48.91475" lon="2.0499">
        <ele>58.6</ele>
        <time>2022-04-05T10:19:49Z</time>
      </trkpt>
      <trkpt lat="48.91479" lon="2.04984">
        <ele>58.4</ele>
        <time>2022-04-05T10:19:54Z</time>
      </trkpt>
      <trkpt lat="48.91483" lon="2.04979">
        <ele>57.6</ele>
        <time>2022-04-05T10:19:58Z</time>
      </trkpt>
      <trkpt lat="48.91487" lon="2.04973">
        <ele>56.4</ele>
        <time>2022-04-05T10:20:02Z</time>
      </trkpt>
      <trkpt lat="48.9149" lon="2.04968">
        <ele>55.6</ele>
        <time>2022-04-05T10:20:07Z</time>
      </trkpt>
      <trkpt lat="48.91493" lon="2.04963">
        <ele>55.3</ele>
        <time>2022-04-05T10:20:11Z</time>
      </trkpt>
      <trkpt lat="48.91498" lon="2.04958">
        <ele>55.8</ele>
        <time>2022-04-05T10:20:15Z</time>
      </trkpt>
      <trkpt lat="48.91502" lon="2.04954">
        <ele>57.7</ele>
        <time>2022-04-05T10:20:19Z</time>
      </trkpt>
      <trkpt lat="48.91506" lon="2.04947">
        <ele>59.6</ele>
        <time>2022-04-05T10:20:25Z</time>
      </trkpt>
      <trkpt lat="48.91508" lon="2.04941">
        <ele>60</ele>
        <time>2022-04-05T10:20:29Z</time>
      </trkpt>
      <trkpt lat="48.91512" lon="2.04935">
        <ele>59.6</ele>
        <time>2022-04-05T10:20:33Z</time>
      </trkpt>
      <trkpt lat="48.91515" lon="2.0493">
        <ele>58.4</ele>
        <time>2022-04-05T10:20:38Z</time>
      </trkpt>
      <trkpt lat="48.9152" lon="2.04925">
        <ele>57.2</ele>
        <time>2022-04-05T10:20:43Z</time>
      </trkpt>
      <trkpt lat="48.91523" lon="2.04919">
        <ele>56.4</ele>
        <time>2022-04-05T10:20:47Z</time>
      </trkpt>
      <trkpt lat="48.91526" lon="2.04913">
        <ele>56</ele>
        <time>2022-04-05T10:20:53Z</time>
      </trkpt>
      <trkpt lat="48.91529" lon="2.04907">
        <ele>55.8</ele>
        <time>2022-04-05T10:20:57Z</time>
      </trkpt>
      <trkpt lat="48.91533" lon="2.04901">
        <ele>54.8</ele>
        <time>2022-04-05T10:21:01Z</time>
      </trkpt>
      <trkpt lat="48.91535" lon="2.04896">
        <ele>53.8</ele>
        <time>2022-04-05T10:21:05Z</time>
      </trkpt>
      <trkpt lat="48.91539" lon="2.04891">
        <ele>52.6</ele>
        <time>2022-04-05T10:21:10Z</time>
      </trkpt>
      <trkpt lat="48.91542" lon="2.04886">
        <ele>51.5</ele>
        <time>2022-04-05T10:21:14Z</time>
      </trkpt>
      <trkpt lat="48.91545" lon="2.04879">
        <ele>51.6</ele>
        <time>2022-04-05T10:21:18Z</time>
      </trkpt>
      <trkpt lat="48.91549" lon="2.04874">
        <ele>53.2</ele>
        <time>2022-04-05T10:21:22Z</time>
      </trkpt>
      <trkpt lat="48.91553" lon="2.04869">
        <ele>55.4</ele>
        <time>2022-04-05T10:21:27Z</time>
      </trkpt>
      <trkpt lat="48.91556" lon="2.04863">
        <ele>57.5</ele>
        <time>2022-04-05T10:21:31Z</time>
      </trkpt>
      <trkpt lat="48.91559" lon="2.04857">
        <ele>58.4</ele>
        <time>2022-04-05T10:21:35Z</time>
      </trkpt>
      <trkpt lat="48.91563" lon="2.04851">
        <ele>58.9</ele>
        <time>2022-04-05T10:21:40Z</time>
      </trkpt>
      <trkpt lat="48.91567" lon="2.04846">
        <ele>59.3</ele>
        <time>2022-04-05T10:21:44Z</time>
      </trkpt>
      <trkpt lat="48.9157" lon="2.0484">
        <ele>59.3</ele>
        <time>2022-04-05T10:21:50Z</time>
      </trkpt>
      <trkpt lat="48.91574" lon="2.04835">
        <ele>59.3</ele>
        <time>2022-04-05T10:21:54Z</time>
      </trkpt>
      <trkpt lat="48.91577" lon="2.04829">
        <ele>59.6</ele>
        <time>2022-04-05T10:21:57Z</time>
      </trkpt>
      <trkpt lat="48.91581" lon="2.04825">
        <ele>59.7</ele>
        <time>2022-04-05T10:22:01Z</time>
      </trkpt>
      <trkpt lat="48.91584" lon="2.0482">
        <ele>59.8</ele>
        <time>2022-04-05T10:22:04Z</time>
      </trkpt>
      <trkpt lat="48.91588" lon="2.04815">
        <ele>59.8</ele>
        <time>2022-04-05T10:22:08Z</time>
      </trkpt>
      <trkpt lat="48.91592" lon="2.0481">
        <ele>59.9</ele>
        <time>2022-04-05T10:22:12Z</time>
      </trkpt>
      <trkpt lat="48.91595" lon="2.04803">
        <ele>60.4</ele>
        <time>2022-04-05T10:22:17Z</time>
      </trkpt>
      <trkpt lat="48.91598" lon="2.04798">
        <ele>61.4</ele>
        <time>2022-04-05T10:22:21Z</time>
      </trkpt>
      <trkpt lat="48.91602" lon="2.04792">
        <ele>62</ele>
        <time>2022-04-05T10:22:25Z</time>
      </trkpt>
      <trkpt lat="48.91605" lon="2.04786">
        <ele>61.9</ele>
        <time>2022-04-05T10:22:29Z</time>
      </trkpt>
      <trkpt lat="48.91609" lon="2.04781">
        <ele>61.1</ele>
        <time>2022-04-05T10:22:33Z</time>
      </trkpt>
      <trkpt lat="48.91612" lon="2.04775">
        <ele>59.7</ele>
        <time>2022-04-05T10:22:37Z</time>
      </trkpt>
      <trkpt lat="48.91615" lon="2.04769">
        <ele>59.2</ele>
        <time>2022-04-05T10:22:41Z</time>
      </trkpt>
      <trkpt lat="48.91619" lon="2.04764">
        <ele>59.3</ele>
        <time>2022-04-05T10:22:46Z</time>
      </trkpt>
      <trkpt lat="48.91623" lon="2.04758">
        <ele>59.5</ele>
        <time>2022-04-05T10:22:51Z</time>
      </trkpt>
      <trkpt lat="48.91627" lon="2.04752">
        <ele>59.4</ele>
        <time>2022-04-05T10:22:56Z</time>
      </trkpt>
      <trkpt lat="48.91631" lon="2.04746">
        <ele>59.1</ele>
        <time>2022-04-05T10:23:00Z</time>
      </trkpt>
      <trkpt lat="48.91634" lon="2.0474">
        <ele>59.1</ele>
        <time>2022-04-05T10:23:04Z</time>
      </trkpt>
      <trkpt lat="48.91638" lon="2.04734">
        <ele>59.1</ele>
        <time>2022-04-05T10:23:08Z</time>
      </trkpt>
      <trkpt lat="48.91641" lon="2.04728">
        <ele>58.4</ele>
        <time>2022-04-05T10:23:12Z</time>
      </trkpt>
      <trkpt lat="48.91645" lon="2.04721">
        <ele>57.7</ele>
        <time>2022-04-05T10:23:16Z</time>
      </trkpt>
      <trkpt lat="48.91649" lon="2.04717">
        <ele>57.8</ele>
        <time>2022-04-05T10:23:21Z</time>
      </trkpt>
      <trkpt lat="48.91653" lon="2.04712">
        <ele>57.9</ele>
        <time>2022-04-05T10:23:25Z</time>
      </trkpt>
      <trkpt lat="48.91657" lon="2.04707">
        <ele>58.1</ele>
        <time>2022-04-05T10:23:29Z</time>
      </trkpt>
      <trkpt lat="48.9166" lon="2.04701">
        <ele>58.1</ele>
        <time>2022-04-05T10:23:33Z</time>
      </trkpt>
      <trkpt lat="48.91663" lon="2.04695">
        <ele>58.5</ele>
        <time>2022-04-05T10:23:37Z</time>
      </trkpt>
      <trkpt lat="48.91667" lon="2.04691">
        <ele>58.8</ele>
        <time>2022-04-05T10:23:41Z</time>
      </trkpt>
      <trkpt lat="48.91671" lon="2.04686">
        <ele>58.8</ele>
        <time>2022-04-05T10:23:45Z</time>
      </trkpt>
      <trkpt lat="48.91674" lon="2.04681">
        <ele>58.3</ele>
        <time>2022-04-05T10:23:49Z</time>
      </trkpt>
      <trkpt lat="48.91678" lon="2.04675">
        <ele>58</ele>
        <time>2022-04-05T10:23:53Z</time>
      </trkpt>
      <trkpt lat="48.91681" lon="2.04669">
        <ele>58.5</ele>
        <time>2022-04-05T10:23:57Z</time>
      </trkpt>
      <trkpt lat="48.91685" lon="2.04664">
        <ele>60</ele>
        <time>2022-04-05T10:24:01Z</time>
      </trkpt>
      <trkpt lat="48.91689" lon="2.04659">
        <ele>61.9</ele>
        <time>2022-04-05T10:24:05Z</time>
      </trkpt>
      <trkpt lat="48.91692" lon="2.04653">
        <ele>63</ele>
        <time>2022-04-05T10:24:09Z</time>
      </trkpt>
      <trkpt lat="48.91696" lon="2.04648">
        <ele>63.1</ele>
        <time>2022-04-05T10:24:14Z</time>
      </trkpt>
      <trkpt lat="48.91699" lon="2.04642">
        <ele>63.4</ele>
        <time>2022-04-05T10:24:18Z</time>
      </trkpt>
      <trkpt lat="48.91703" lon="2.04635">
        <ele>63</ele>
        <time>2022-04-05T10:24:22Z</time>
      </trkpt>
      <trkpt lat="48.91706" lon="2.04629">
        <ele>62.2</ele>
        <time>2022-04-05T10:24:27Z</time>
      </trkpt>
      <trkpt lat="48.9171" lon="2.04624">
        <ele>61.2</ele>
        <time>2022-04-05T10:24:32Z</time>
      </trkpt>
      <trkpt lat="48.91713" lon="2.04619">
        <ele>60.3</ele>
        <time>2022-04-05T10:24:35Z</time>
      </trkpt>
      <trkpt lat="48.91717" lon="2.04613">
        <ele>59</ele>
        <time>2022-04-05T10:24:39Z</time>
      </trkpt>
      <trkpt lat="48.9172" lon="2.04607">
        <ele>58.8</ele>
        <time>2022-04-05T10:24:43Z</time>
      </trkpt>
      <trkpt lat="48.91722" lon="2.04601">
        <ele>59.6</ele>
        <time>2022-04-05T10:24:47Z</time>
      </trkpt>
      <trkpt lat="48.91726" lon="2.04595">
        <ele>60.2</ele>
        <time>2022-04-05T10:24:51Z</time>
      </trkpt>
      <trkpt lat="48.91729" lon="2.0459">
        <ele>59.8</ele>
        <time>2022-04-05T10:24:55Z</time>
      </trkpt>
      <trkpt lat="48.91733" lon="2.04586">
        <ele>59.1</ele>
        <time>2022-04-05T10:25:00Z</time>
      </trkpt>
      <trkpt lat="48.91736" lon="2.04579">
        <ele>58.5</ele>
        <time>2022-04-05T10:25:04Z</time>
      </trkpt>
      <trkpt lat="48.9174" lon="2.04574">
        <ele>58.9</ele>
        <time>2022-04-05T10:25:09Z</time>
      </trkpt>
      <trkpt lat="48.91744" lon="2.04569">
        <ele>59.9</ele>
        <time>2022-04-05T10:25:13Z</time>
      </trkpt>
      <trkpt lat="48.91747" lon="2.04564">
        <ele>60.1</ele>
        <time>2022-04-05T10:25:17Z</time>
      </trkpt>
      <trkpt lat="48.91751" lon="2.04559">
        <ele>59.8</ele>
        <time>2022-04-05T10:25:21Z</time>
      </trkpt>
      <trkpt lat="48.91755" lon="2.04553">
        <ele>60.4</ele>
        <time>2022-04-05T10:25:27Z</time>
      </trkpt>
      <trkpt lat="48.9176" lon="2.04549">
        <ele>61.6</ele>
        <time>2022-04-05T10:25:32Z</time>
      </trkpt>
      <trkpt lat="48.91766" lon="2.04552">
        <ele>62.7</ele>
        <time>2022-04-05T10:25:36Z</time>
      </trkpt>
      <trkpt lat="48.91765" lon="2.0456">
        <ele>62.4</ele>
        <time>2022-04-05T10:25:47Z</time>
      </trkpt>
      <trkpt lat="48.91766" lon="2.04566">
        <ele>61.8</ele>
        <time>2022-04-05T10:25:49Z</time>
      </trkpt>
      <trkpt lat="48.91767" lon="2.04573">
        <ele>61.2</ele>
        <time>2022-04-05T10:25:53Z</time>
      </trkpt>
      <trkpt lat="48.9177" lon="2.04579">
        <ele>60.5</ele>
        <time>2022-04-05T10:25:57Z</time>
      </trkpt>
      <trkpt lat="48.91774" lon="2.04585">
        <ele>60.2</ele>
        <time>2022-04-05T10:26:02Z</time>
      </trkpt>
      <trkpt lat="48.91774" lon="2.04592">
        <ele>59.6</ele>
        <time>2022-04-05T10:26:06Z</time>
      </trkpt>
      <trkpt lat="48.91777" lon="2.04598">
        <ele>59</ele>
        <time>2022-04-05T10:26:09Z</time>
      </trkpt>
      <trkpt lat="48.9178" lon="2.04603">
        <ele>58.5</ele>
        <time>2022-04-05T10:26:12Z</time>
      </trkpt>
      <trkpt lat="48.91785" lon="2.04606">
        <ele>58.6</ele>
        <time>2022-04-05T10:26:16Z</time>
      </trkpt>
      <trkpt lat="48.91789" lon="2.0461">
        <ele>59.7</ele>
        <time>2022-04-05T10:26:20Z</time>
      </trkpt>
      <trkpt lat="48.91793" lon="2.04617">
        <ele>61</ele>
        <time>2022-04-05T10:26:25Z</time>
      </trkpt>
      <trkpt lat="48.91795" lon="2.04624">
        <ele>61.4</ele>
        <time>2022-04-05T10:26:29Z</time>
      </trkpt>
      <trkpt lat="48.91794" lon="2.04631">
        <ele>62.3</ele>
        <time>2022-04-05T10:26:35Z</time>
      </trkpt>
      <trkpt lat="48.91796" lon="2.04638">
        <ele>64</ele>
        <time>2022-04-05T10:26:47Z</time>
      </trkpt>
      <trkpt lat="48.91799" lon="2.04644">
        <ele>64.1</ele>
        <time>2022-04-05T10:26:51Z</time>
      </trkpt>
      <trkpt lat="48.91803" lon="2.04651">
        <ele>63.8</ele>
        <time>2022-04-05T10:26:55Z</time>
      </trkpt>
      <trkpt lat="48.91806" lon="2.04657">
        <ele>63.3</ele>
        <time>2022-04-05T10:26:59Z</time>
      </trkpt>
      <trkpt lat="48.9181" lon="2.04664">
        <ele>62.9</ele>
        <time>2022-04-05T10:27:03Z</time>
      </trkpt>
      <trkpt lat="48.91813" lon="2.0467">
        <ele>62.4</ele>
        <time>2022-04-05T10:27:07Z</time>
      </trkpt>
      <trkpt lat="48.91816" lon="2.04677">
        <ele>62.2</ele>
        <time>2022-04-05T10:27:11Z</time>
      </trkpt>
      <trkpt lat="48.9182" lon="2.04683">
        <ele>62</ele>
        <time>2022-04-05T10:27:16Z</time>
      </trkpt>
      <trkpt lat="48.91823" lon="2.0469">
        <ele>61.1</ele>
        <time>2022-04-05T10:27:20Z</time>
      </trkpt>
      <trkpt lat="48.91826" lon="2.04697">
        <ele>60.4</ele>
        <time>2022-04-05T10:27:26Z</time>
      </trkpt>
      <trkpt lat="48.91829" lon="2.04702">
        <ele>61.1</ele>
        <time>2022-04-05T10:27:30Z</time>
      </trkpt>
      <trkpt lat="48.91832" lon="2.04709">
        <ele>61.4</ele>
        <time>2022-04-05T10:27:34Z</time>
      </trkpt>
      <trkpt lat="48.91835" lon="2.04715">
        <ele>61.1</ele>
        <time>2022-04-05T10:27:38Z</time>
      </trkpt>
      <trkpt lat="48.91838" lon="2.04721">
        <ele>61</ele>
        <time>2022-04-05T10:27:42Z</time>
      </trkpt>
      <trkpt lat="48.9184" lon="2.04728">
        <ele>62.2</ele>
        <time>2022-04-05T10:27:46Z</time>
      </trkpt>
      <trkpt lat="48.91842" lon="2.04735">
        <ele>64.7</ele>
        <time>2022-04-05T10:27:50Z</time>
      </trkpt>
      <trkpt lat="48.91845" lon="2.04742">
        <ele>65.6</ele>
        <time>2022-04-05T10:27:54Z</time>
      </trkpt>
      <trkpt lat="48.91847" lon="2.0475">
        <ele>64.9</ele>
        <time>2022-04-05T10:27:58Z</time>
      </trkpt>
      <trkpt lat="48.9185" lon="2.04757">
        <ele>63.1</ele>
        <time>2022-04-05T10:28:02Z</time>
      </trkpt>
      <trkpt lat="48.91854" lon="2.04763">
        <ele>61.5</ele>
        <time>2022-04-05T10:28:07Z</time>
      </trkpt>
      <trkpt lat="48.91857" lon="2.04769">
        <ele>60</ele>
        <time>2022-04-05T10:28:11Z</time>
      </trkpt>
      <trkpt lat="48.9186" lon="2.04775">
        <ele>59.8</ele>
        <time>2022-04-05T10:28:15Z</time>
      </trkpt>
      <trkpt lat="48.91863" lon="2.04781">
        <ele>60.7</ele>
        <time>2022-04-05T10:28:19Z</time>
      </trkpt>
      <trkpt lat="48.91866" lon="2.04787">
        <ele>61.3</ele>
        <time>2022-04-05T10:28:23Z</time>
      </trkpt>
      <trkpt lat="48.91869" lon="2.04794">
        <ele>61.3</ele>
        <time>2022-04-05T10:28:27Z</time>
      </trkpt>
      <trkpt lat="48.91873" lon="2.048">
        <ele>61</ele>
        <time>2022-04-05T10:28:31Z</time>
      </trkpt>
      <trkpt lat="48.91876" lon="2.04805">
        <ele>61.4</ele>
        <time>2022-04-05T10:28:35Z</time>
      </trkpt>
      <trkpt lat="48.91879" lon="2.0481">
        <ele>63</ele>
        <time>2022-04-05T10:28:39Z</time>
      </trkpt>
      <trkpt lat="48.91882" lon="2.04816">
        <ele>63.9</ele>
        <time>2022-04-05T10:28:43Z</time>
      </trkpt>
      <trkpt lat="48.91884" lon="2.04823">
        <ele>63.2</ele>
        <time>2022-04-05T10:28:49Z</time>
      </trkpt>
      <trkpt lat="48.91887" lon="2.04829">
        <ele>61</ele>
        <time>2022-04-05T10:28:53Z</time>
      </trkpt>
      <trkpt lat="48.91889" lon="2.04836">
        <ele>59.1</ele>
        <time>2022-04-05T10:28:57Z</time>
      </trkpt>
      <trkpt lat="48.91891" lon="2.04842">
        <ele>59.2</ele>
        <time>2022-04-05T10:29:01Z</time>
      </trkpt>
      <trkpt lat="48.91895" lon="2.04849">
        <ele>60.3</ele>
        <time>2022-04-05T10:29:06Z</time>
      </trkpt>
      <trkpt lat="48.91899" lon="2.04855">
        <ele>61.2</ele>
        <time>2022-04-05T10:29:10Z</time>
      </trkpt>
      <trkpt lat="48.91903" lon="2.04861">
        <ele>61.7</ele>
        <time>2022-04-05T10:29:14Z</time>
      </trkpt>
      <trkpt lat="48.91906" lon="2.04866">
        <ele>61.5</ele>
        <time>2022-04-05T10:29:17Z</time>
      </trkpt>
      <trkpt lat="48.9191" lon="2.04871">
        <ele>60.5</ele>
        <time>2022-04-05T10:29:21Z</time>
      </trkpt>
      <trkpt lat="48.91913" lon="2.04876">
        <ele>58.7</ele>
        <time>2022-04-05T10:29:24Z</time>
      </trkpt>
      <trkpt lat="48.91915" lon="2.04882">
        <ele>57.4</ele>
        <time>2022-04-05T10:29:28Z</time>
      </trkpt>
      <trkpt lat="48.91918" lon="2.04888">
        <ele>56.4</ele>
        <time>2022-04-05T10:29:31Z</time>
      </trkpt>
      <trkpt lat="48.9192" lon="2.04896">
        <ele>55.2</ele>
        <time>2022-04-05T10:29:36Z</time>
      </trkpt>
      <trkpt lat="48.91923" lon="2.04901">
        <ele>54.1</ele>
        <time>2022-04-05T10:29:40Z</time>
      </trkpt>
      <trkpt lat="48.91927" lon="2.04905">
        <ele>53.3</ele>
        <time>2022-04-05T10:29:45Z</time>
      </trkpt>
      <trkpt lat="48.91931" lon="2.04909">
        <ele>53</ele>
        <time>2022-04-05T10:29:50Z</time>
      </trkpt>
      <trkpt lat="48.91934" lon="2.04914">
        <ele>52.6</ele>
        <time>2022-04-05T10:29:54Z</time>
      </trkpt>
      <trkpt lat="48.91938" lon="2.0492">
        <ele>52.6</ele>
        <time>2022-04-05T10:30:00Z</time>
      </trkpt>
      <trkpt lat="48.91942" lon="2.04924">
        <ele>52.9</ele>
        <time>2022-04-05T10:30:04Z</time>
      </trkpt>
      <trkpt lat="48.91946" lon="2.04931">
        <ele>54</ele>
        <time>2022-04-05T10:30:09Z</time>
      </trkpt>
      <trkpt lat="48.9195" lon="2.04936">
        <ele>55.6</ele>
        <time>2022-04-05T10:30:13Z</time>
      </trkpt>
      <trkpt lat="48.91955" lon="2.04938">
        <ele>55.7</ele>
        <time>2022-04-05T10:30:18Z</time>
      </trkpt>
      <trkpt lat="48.9196" lon="2.04941">
        <ele>54.2</ele>
        <time>2022-04-05T10:30:23Z</time>
      </trkpt>
      <trkpt lat="48.91965" lon="2.04943">
        <ele>53.7</ele>
        <time>2022-04-05T10:30:27Z</time>
      </trkpt>
      <trkpt lat="48.91971" lon="2.04945">
        <ele>54.5</ele>
        <time>2022-04-05T10:30:32Z</time>
      </trkpt>
      <trkpt lat="48.91975" lon="2.04949">
        <ele>56.5</ele>
        <time>2022-04-05T10:30:36Z</time>
      </trkpt>
      <trkpt lat="48.9198" lon="2.04951">
        <ele>58.5</ele>
        <time>2022-04-05T10:30:40Z</time>
      </trkpt>
      <trkpt lat="48.91984" lon="2.04954">
        <ele>59.6</ele>
        <time>2022-04-05T10:30:44Z</time>
      </trkpt>
      <trkpt lat="48.91989" lon="2.04956">
        <ele>60.5</ele>
        <time>2022-04-05T10:30:48Z</time>
      </trkpt>
      <trkpt lat="48.91994" lon="2.04959">
        <ele>61.6</ele>
        <time>2022-04-05T10:30:52Z</time>
      </trkpt>
      <trkpt lat="48.91999" lon="2.04962">
        <ele>63.3</ele>
        <time>2022-04-05T10:30:56Z</time>
      </trkpt>
      <trkpt lat="48.92004" lon="2.04966">
        <ele>64.5</ele>
        <time>2022-04-05T10:31:00Z</time>
      </trkpt>
      <trkpt lat="48.92008" lon="2.04968">
        <ele>64.6</ele>
        <time>2022-04-05T10:31:04Z</time>
      </trkpt>
      <trkpt lat="48.92013" lon="2.04971">
        <ele>63.8</ele>
        <time>2022-04-05T10:31:07Z</time>
      </trkpt>
      <trkpt lat="48.92017" lon="2.04974">
        <ele>63.4</ele>
        <time>2022-04-05T10:31:11Z</time>
      </trkpt>
      <trkpt lat="48.92022" lon="2.04978">
        <ele>62.6</ele>
        <time>2022-04-05T10:31:15Z</time>
      </trkpt>
      <trkpt lat="48.92028" lon="2.04981">
        <ele>62.2</ele>
        <time>2022-04-05T10:31:19Z</time>
      </trkpt>
      <trkpt lat="48.92033" lon="2.04981">
        <ele>61.3</ele>
        <time>2022-04-05T10:31:22Z</time>
      </trkpt>
      <trkpt lat="48.92037" lon="2.04982">
        <ele>61.1</ele>
        <time>2022-04-05T10:31:26Z</time>
      </trkpt>
      <trkpt lat="48.92043" lon="2.04985">
        <ele>61.3</ele>
        <time>2022-04-05T10:31:29Z</time>
      </trkpt>
      <trkpt lat="48.92049" lon="2.04987">
        <ele>61.6</ele>
        <time>2022-04-05T10:31:33Z</time>
      </trkpt>
      <trkpt lat="48.92054" lon="2.04988">
        <ele>60.9</ele>
        <time>2022-04-05T10:31:37Z</time>
      </trkpt>
      <trkpt lat="48.92059" lon="2.04989">
        <ele>60.8</ele>
        <time>2022-04-05T10:31:41Z</time>
      </trkpt>
      <trkpt lat="48.92064" lon="2.04991">
        <ele>61.4</ele>
        <time>2022-04-05T10:31:45Z</time>
      </trkpt>
      <trkpt lat="48.92069" lon="2.04992">
        <ele>61.4</ele>
        <time>2022-04-05T10:31:49Z</time>
      </trkpt>
      <trkpt lat="48.92074" lon="2.04993">
        <ele>61.2</ele>
        <time>2022-04-05T10:31:53Z</time>
      </trkpt>
      <trkpt lat="48.92078" lon="2.04996">
        <ele>61</ele>
        <time>2022-04-05T10:31:56Z</time>
      </trkpt>
      <trkpt lat="48.92082" lon="2.05">
        <ele>60.8</ele>
        <time>2022-04-05T10:32:00Z</time>
      </trkpt>
      <trkpt lat="48.92088" lon="2.05003">
        <ele>60.5</ele>
        <time>2022-04-05T10:32:04Z</time>
      </trkpt>
      <trkpt lat="48.92093" lon="2.05009">
        <ele>60.8</ele>
        <time>2022-04-05T10:32:08Z</time>
      </trkpt>
      <trkpt lat="48.92095" lon="2.05015">
        <ele>61.2</ele>
        <time>2022-04-05T10:32:11Z</time>
      </trkpt>
      <trkpt lat="48.92097" lon="2.05022">
        <ele>62.3</ele>
        <time>2022-04-05T10:32:14Z</time>
      </trkpt>
      <trkpt lat="48.921" lon="2.05028">
        <ele>63.1</ele>
        <time>2022-04-05T10:32:17Z</time>
      </trkpt>
      <trkpt lat="48.92103" lon="2.05035">
        <ele>63.8</ele>
        <time>2022-04-05T10:32:21Z</time>
      </trkpt>
      <trkpt lat="48.92107" lon="2.0504">
        <ele>63.7</ele>
        <time>2022-04-05T10:32:25Z</time>
      </trkpt>
      <trkpt lat="48.92112" lon="2.05044">
        <ele>63.3</ele>
        <time>2022-04-05T10:32:29Z</time>
      </trkpt>
      <trkpt lat="48.92116" lon="2.05046">
        <ele>62.7</ele>
        <time>2022-04-05T10:32:33Z</time>
      </trkpt>
      <trkpt lat="48.92122" lon="2.05048">
        <ele>62.4</ele>
        <time>2022-04-05T10:32:37Z</time>
      </trkpt>
      <trkpt lat="48.92126" lon="2.05052">
        <ele>61.6</ele>
        <time>2022-04-05T10:32:41Z</time>
      </trkpt>
      <trkpt lat="48.92131" lon="2.05056">
        <ele>61.6</ele>
        <time>2022-04-05T10:32:45Z</time>
      </trkpt>
      <trkpt lat="48.92135" lon="2.05059">
        <ele>61.8</ele>
        <time>2022-04-05T10:32:49Z</time>
      </trkpt>
      <trkpt lat="48.9214" lon="2.05062">
        <ele>61.7</ele>
        <time>2022-04-05T10:32:53Z</time>
      </trkpt>
      <trkpt lat="48.92145" lon="2.05064">
        <ele>62.1</ele>
        <time>2022-04-05T10:32:57Z</time>
      </trkpt>
      <trkpt lat="48.92151" lon="2.05066">
        <ele>63.3</ele>
        <time>2022-04-05T10:33:02Z</time>
      </trkpt>
      <trkpt lat="48.92156" lon="2.05069">
        <ele>63.1</ele>
        <time>2022-04-05T10:33:07Z</time>
      </trkpt>
      <trkpt lat="48.92161" lon="2.05071">
        <ele>63.1</ele>
        <time>2022-04-05T10:33:11Z</time>
      </trkpt>
      <trkpt lat="48.92166" lon="2.05074">
        <ele>62.9</ele>
        <time>2022-04-05T10:33:15Z</time>
      </trkpt>
      <trkpt lat="48.9217" lon="2.0508">
        <ele>63.3</ele>
        <time>2022-04-05T10:33:19Z</time>
      </trkpt>
      <trkpt lat="48.92175" lon="2.05083">
        <ele>63.2</ele>
        <time>2022-04-05T10:33:23Z</time>
      </trkpt>
      <trkpt lat="48.92181" lon="2.05085">
        <ele>63</ele>
        <time>2022-04-05T10:33:28Z</time>
      </trkpt>
      <trkpt lat="48.92186" lon="2.05087">
        <ele>63.6</ele>
        <time>2022-04-05T10:33:32Z</time>
      </trkpt>
      <trkpt lat="48.9219" lon="2.05085">
        <ele>64.5</ele>
        <time>2022-04-05T10:33:35Z</time>
      </trkpt>
      <trkpt lat="48.92195" lon="2.05085">
        <ele>64.8</ele>
        <time>2022-04-05T10:33:39Z</time>
      </trkpt>
      <trkpt lat="48.922" lon="2.05085">
        <ele>64.6</ele>
        <time>2022-04-05T10:33:44Z</time>
      </trkpt>
      <trkpt lat="48.92204" lon="2.05087">
        <ele>64.4</ele>
        <time>2022-04-05T10:33:49Z</time>
      </trkpt>
      <trkpt lat="48.92203" lon="2.05094">
        <ele>60.7</ele>
        <time>2022-04-05T10:34:16Z</time>
      </trkpt>
      <trkpt lat="48.92205" lon="2.05101">
        <ele>59.5</ele>
        <time>2022-04-05T10:34:21Z</time>
      </trkpt>
      <trkpt lat="48.92206" lon="2.05108">
        <ele>59.7</ele>
        <time>2022-04-05T10:34:25Z</time>
      </trkpt>
      <trkpt lat="48.92208" lon="2.05116">
        <ele>61.9</ele>
        <time>2022-04-05T10:34:29Z</time>
      </trkpt>
      <trkpt lat="48.9221" lon="2.05123">
        <ele>65.3</ele>
        <time>2022-04-05T10:34:33Z</time>
      </trkpt>
      <trkpt lat="48.92213" lon="2.05128">
        <ele>67.4</ele>
        <time>2022-04-05T10:34:37Z</time>
      </trkpt>
      <trkpt lat="48.92216" lon="2.05134">
        <ele>67.5</ele>
        <time>2022-04-05T10:34:42Z</time>
      </trkpt>
      <trkpt lat="48.92219" lon="2.0514">
        <ele>67</ele>
        <time>2022-04-05T10:34:46Z</time>
      </trkpt>
      <trkpt lat="48.92223" lon="2.05145">
        <ele>66.8</ele>
        <time>2022-04-05T10:34:50Z</time>
      </trkpt>
      <trkpt lat="48.92226" lon="2.05152">
        <ele>65.9</ele>
        <time>2022-04-05T10:34:54Z</time>
      </trkpt>
      <trkpt lat="48.9223" lon="2.05156">
        <ele>64.8</ele>
        <time>2022-04-05T10:34:58Z</time>
      </trkpt>
      <trkpt lat="48.92234" lon="2.05162">
        <ele>63</ele>
        <time>2022-04-05T10:35:02Z</time>
      </trkpt>
      <trkpt lat="48.92236" lon="2.0517">
        <ele>63.2</ele>
        <time>2022-04-05T10:35:07Z</time>
      </trkpt>
      <trkpt lat="48.92239" lon="2.05177">
        <ele>63.2</ele>
        <time>2022-04-05T10:35:11Z</time>
      </trkpt>
      <trkpt lat="48.92241" lon="2.05184">
        <ele>63.6</ele>
        <time>2022-04-05T10:35:15Z</time>
      </trkpt>
      <trkpt lat="48.92244" lon="2.05189">
        <ele>63.3</ele>
        <time>2022-04-05T10:35:19Z</time>
      </trkpt>
      <trkpt lat="48.92248" lon="2.05196">
        <ele>63.1</ele>
        <time>2022-04-05T10:35:23Z</time>
      </trkpt>
      <trkpt lat="48.92251" lon="2.05202">
        <ele>62</ele>
        <time>2022-04-05T10:35:27Z</time>
      </trkpt>
      <trkpt lat="48.92255" lon="2.05207">
        <ele>61.2</ele>
        <time>2022-04-05T10:35:31Z</time>
      </trkpt>
      <trkpt lat="48.92258" lon="2.05212">
        <ele>61.9</ele>
        <time>2022-04-05T10:35:35Z</time>
      </trkpt>
      <trkpt lat="48.92259" lon="2.05221">
        <ele>64.2</ele>
        <time>2022-04-05T10:35:40Z</time>
      </trkpt>
      <trkpt lat="48.92261" lon="2.05227">
        <ele>65.7</ele>
        <time>2022-04-05T10:35:43Z</time>
      </trkpt>
      <trkpt lat="48.92263" lon="2.05235">
        <ele>67.1</ele>
        <time>2022-04-05T10:35:48Z</time>
      </trkpt>
      <trkpt lat="48.92265" lon="2.05242">
        <ele>67.1</ele>
        <time>2022-04-05T10:35:51Z</time>
      </trkpt>
      <trkpt lat="48.92268" lon="2.05247">
        <ele>66.2</ele>
        <time>2022-04-05T10:35:55Z</time>
      </trkpt>
      <trkpt lat="48.92271" lon="2.05252">
        <ele>64.8</ele>
        <time>2022-04-05T10:35:58Z</time>
      </trkpt>
      <trkpt lat="48.92274" lon="2.05259">
        <ele>64.1</ele>
        <time>2022-04-05T10:36:02Z</time>
      </trkpt>
      <trkpt lat="48.92278" lon="2.05266">
        <ele>64.7</ele>
        <time>2022-04-05T10:36:07Z</time>
      </trkpt>
      <trkpt lat="48.92282" lon="2.05273">
        <ele>66</ele>
        <time>2022-04-05T10:36:12Z</time>
      </trkpt>
      <trkpt lat="48.92285" lon="2.05279">
        <ele>66.1</ele>
        <time>2022-04-05T10:36:16Z</time>
      </trkpt>
      <trkpt lat="48.92288" lon="2.05285">
        <ele>65.4</ele>
        <time>2022-04-05T10:36:20Z</time>
      </trkpt>
      <trkpt lat="48.92292" lon="2.05291">
        <ele>65.6</ele>
        <time>2022-04-05T10:36:24Z</time>
      </trkpt>
      <trkpt lat="48.92294" lon="2.05297">
        <ele>66.7</ele>
        <time>2022-04-05T10:36:28Z</time>
      </trkpt>
      <trkpt lat="48.92297" lon="2.05304">
        <ele>67</ele>
        <time>2022-04-05T10:36:32Z</time>
      </trkpt>
      <trkpt lat="48.92298" lon="2.05312">
        <ele>66.4</ele>
        <time>2022-04-05T10:36:36Z</time>
      </trkpt>
      <trkpt lat="48.92301" lon="2.05319">
        <ele>66</ele>
        <time>2022-04-05T10:36:41Z</time>
      </trkpt>
      <trkpt lat="48.92303" lon="2.05326">
        <ele>65.6</ele>
        <time>2022-04-05T10:36:45Z</time>
      </trkpt>
      <trkpt lat="48.92306" lon="2.05331">
        <ele>64.8</ele>
        <time>2022-04-05T10:36:49Z</time>
      </trkpt>
      <trkpt lat="48.9231" lon="2.05337">
        <ele>64.4</ele>
        <time>2022-04-05T10:36:53Z</time>
      </trkpt>
      <trkpt lat="48.92313" lon="2.05343">
        <ele>64.1</ele>
        <time>2022-04-05T10:36:57Z</time>
      </trkpt>
      <trkpt lat="48.92316" lon="2.05349">
        <ele>63.8</ele>
        <time>2022-04-05T10:37:01Z</time>
      </trkpt>
      <trkpt lat="48.92319" lon="2.05356">
        <ele>63</ele>
        <time>2022-04-05T10:37:05Z</time>
      </trkpt>
      <trkpt lat="48.92322" lon="2.05362">
        <ele>61.8</ele>
        <time>2022-04-05T10:37:10Z</time>
      </trkpt>
      <trkpt lat="48.92326" lon="2.05368">
        <ele>59.8</ele>
        <time>2022-04-05T10:37:14Z</time>
      </trkpt>
      <trkpt lat="48.9233" lon="2.05374">
        <ele>58.5</ele>
        <time>2022-04-05T10:37:18Z</time>
      </trkpt>
      <trkpt lat="48.92333" lon="2.0538">
        <ele>58.9</ele>
        <time>2022-04-05T10:37:22Z</time>
      </trkpt>
      <trkpt lat="48.92336" lon="2.05385">
        <ele>58.7</ele>
        <time>2022-04-05T10:37:27Z</time>
      </trkpt>
      <trkpt lat="48.9234" lon="2.05391">
        <ele>57.8</ele>
        <time>2022-04-05T10:37:31Z</time>
      </trkpt>
      <trkpt lat="48.92344" lon="2.05394">
        <ele>57.5</ele>
        <time>2022-04-05T10:37:35Z</time>
      </trkpt>
      <trkpt lat="48.92349" lon="2.05395">
        <ele>57.5</ele>
        <time>2022-04-05T10:37:40Z</time>
      </trkpt>
      <trkpt lat="48.92354" lon="2.05393">
        <ele>57.2</ele>
        <time>2022-04-05T10:37:45Z</time>
      </trkpt>
      <trkpt lat="48.92357" lon="2.05389">
        <ele>57.2</ele>
        <time>2022-04-05T10:37:50Z</time>
      </trkpt>
      <trkpt lat="48.92359" lon="2.05381">
        <ele>57.6</ele>
        <time>2022-04-05T10:37:55Z</time>
      </trkpt>
      <trkpt lat="48.92362" lon="2.05375">
        <ele>57.6</ele>
        <time>2022-04-05T10:38:00Z</time>
      </trkpt>
      <trkpt lat="48.92366" lon="2.0537">
        <ele>57</ele>
        <time>2022-04-05T10:38:06Z</time>
      </trkpt>
    </trkseg>
  </trk>
</gpx>